<?xml version="1.0" encoding="UTF-8" standalone="no" ?>
<gpx xmlns="http://www.topografix.com/GPX/1/1" xmlns:xsi="http://www.w3.org/2001/XMLSchema-instance" xsi:schemaLocation="http://www.topografix.com/GPX/1/1 http://www.topografix.com/GPX/1/1/gpx.xsd" version="1.1" creator="VisuGPX - https://www.visugpx.com">
  <metadata>
    <name>Saint Agnan en Vercors (38)</name>
    <desc><![CDATA[Randonnée en boucle au départ du parking de la Montagne de Beure qui vous conduira au Clâlet des Ours, le Pas des Ecoudus, la Cabane de Pré Peyret, les Carrières romaines, la Grande Cabane sur le GR91 pour regagner le GR93 vers la Cabane de Pré Peyret puis retour au parking de la Montagne de Beure.]]></desc>
  </metadata>
  <trk>
    <name><![CDATA[08-AOU-14 17:21:11]]></name>
    <trkseg>
      <trkpt lat="44.84235" lon="5.42396">
        <ele>1401.26</ele>
        <time>2014-08-08T07:11:24Z</time>
      </trkpt>
      <trkpt lat="44.84241" lon="5.42396">
        <ele>1400.78</ele>
        <time>2014-08-08T07:11:50Z</time>
      </trkpt>
      <trkpt lat="44.84239" lon="5.424">
        <ele>1401.26</ele>
        <time>2014-08-08T07:12:07Z</time>
      </trkpt>
      <trkpt lat="44.84242" lon="5.42396">
        <ele>1401.74</ele>
        <time>2014-08-08T07:12:26Z</time>
      </trkpt>
      <trkpt lat="44.8424" lon="5.42399">
        <ele>1400.78</ele>
        <time>2014-08-08T07:12:45Z</time>
      </trkpt>
      <trkpt lat="44.8424" lon="5.42398">
        <ele>1400.78</ele>
        <time>2014-08-08T07:13:09Z</time>
      </trkpt>
      <trkpt lat="44.84241" lon="5.42404">
        <ele>1401.26</ele>
        <time>2014-08-08T07:13:29Z</time>
      </trkpt>
      <trkpt lat="44.8424" lon="5.42409">
        <ele>1401.26</ele>
        <time>2014-08-08T07:13:51Z</time>
      </trkpt>
      <trkpt lat="44.84241" lon="5.42408">
        <ele>1401.26</ele>
        <time>2014-08-08T07:14:25Z</time>
      </trkpt>
      <trkpt lat="44.8424" lon="5.42412">
        <ele>1401.26</ele>
        <time>2014-08-08T07:14:50Z</time>
      </trkpt>
      <trkpt lat="44.8424" lon="5.42411">
        <ele>1401.26</ele>
        <time>2014-08-08T07:15:08Z</time>
      </trkpt>
      <trkpt lat="44.84238" lon="5.42408">
        <ele>1400.78</ele>
        <time>2014-08-08T07:15:32Z</time>
      </trkpt>
      <trkpt lat="44.84241" lon="5.42418">
        <ele>1401.26</ele>
        <time>2014-08-08T07:15:51Z</time>
      </trkpt>
      <trkpt lat="44.84245" lon="5.42435">
        <ele>1401.26</ele>
        <time>2014-08-08T07:16:10Z</time>
      </trkpt>
      <trkpt lat="44.84253" lon="5.42465">
        <ele>1399.82</ele>
        <time>2014-08-08T07:16:31Z</time>
      </trkpt>
      <trkpt lat="44.84247" lon="5.42494">
        <ele>1399.34</ele>
        <time>2014-08-08T07:16:51Z</time>
      </trkpt>
      <trkpt lat="44.84253" lon="5.4252">
        <ele>1403.18</ele>
        <time>2014-08-08T07:17:06Z</time>
      </trkpt>
      <trkpt lat="44.84257" lon="5.42533">
        <ele>1406.07</ele>
        <time>2014-08-08T07:17:18Z</time>
      </trkpt>
      <trkpt lat="44.84258" lon="5.42561">
        <ele>1409.43</ele>
        <time>2014-08-08T07:17:35Z</time>
      </trkpt>
      <trkpt lat="44.84235" lon="5.42565">
        <ele>1412.79</ele>
        <time>2014-08-08T07:17:53Z</time>
      </trkpt>
      <trkpt lat="44.84221" lon="5.4257">
        <ele>1414.72</ele>
        <time>2014-08-08T07:18:08Z</time>
      </trkpt>
      <trkpt lat="44.8422" lon="5.42571">
        <ele>1415.68</ele>
        <time>2014-08-08T07:18:10Z</time>
      </trkpt>
      <trkpt lat="44.84213" lon="5.42584">
        <ele>1419.04</ele>
        <time>2014-08-08T07:18:22Z</time>
      </trkpt>
      <trkpt lat="44.84203" lon="5.42607">
        <ele>1420.97</ele>
        <time>2014-08-08T07:18:42Z</time>
      </trkpt>
      <trkpt lat="44.84192" lon="5.42628">
        <ele>1423.85</ele>
        <time>2014-08-08T07:19:04Z</time>
      </trkpt>
      <trkpt lat="44.84177" lon="5.42643">
        <ele>1427.21</ele>
        <time>2014-08-08T07:19:22Z</time>
      </trkpt>
      <trkpt lat="44.84161" lon="5.42648">
        <ele>1428.18</ele>
        <time>2014-08-08T07:19:37Z</time>
      </trkpt>
      <trkpt lat="44.84146" lon="5.42654">
        <ele>1430.58</ele>
        <time>2014-08-08T07:19:57Z</time>
      </trkpt>
      <trkpt lat="44.84133" lon="5.42661">
        <ele>1432.02</ele>
        <time>2014-08-08T07:20:15Z</time>
      </trkpt>
      <trkpt lat="44.84114" lon="5.42674">
        <ele>1434.91</ele>
        <time>2014-08-08T07:20:36Z</time>
      </trkpt>
      <trkpt lat="44.84099" lon="5.42695">
        <ele>1437.79</ele>
        <time>2014-08-08T07:21:00Z</time>
      </trkpt>
      <trkpt lat="44.84083" lon="5.42727">
        <ele>1441.63</ele>
        <time>2014-08-08T07:21:19Z</time>
      </trkpt>
      <trkpt lat="44.84074" lon="5.42732">
        <ele>1443.56</ele>
        <time>2014-08-08T07:21:37Z</time>
      </trkpt>
      <trkpt lat="44.84055" lon="5.4274">
        <ele>1446.44</ele>
        <time>2014-08-08T07:21:58Z</time>
      </trkpt>
      <trkpt lat="44.84033" lon="5.42759">
        <ele>1449.81</ele>
        <time>2014-08-08T07:22:20Z</time>
      </trkpt>
      <trkpt lat="44.84013" lon="5.42779">
        <ele>1450.29</ele>
        <time>2014-08-08T07:22:44Z</time>
      </trkpt>
      <trkpt lat="44.84002" lon="5.42793">
        <ele>1453.65</ele>
        <time>2014-08-08T07:23:06Z</time>
      </trkpt>
      <trkpt lat="44.8399" lon="5.42813">
        <ele>1457.02</ele>
        <time>2014-08-08T07:23:23Z</time>
      </trkpt>
      <trkpt lat="44.83976" lon="5.4282">
        <ele>1458.94</ele>
        <time>2014-08-08T07:23:39Z</time>
      </trkpt>
      <trkpt lat="44.83961" lon="5.42822">
        <ele>1462.3</ele>
        <time>2014-08-08T07:23:57Z</time>
      </trkpt>
      <trkpt lat="44.83943" lon="5.42831">
        <ele>1464.23</ele>
        <time>2014-08-08T07:24:14Z</time>
      </trkpt>
      <trkpt lat="44.83926" lon="5.42832">
        <ele>1466.15</ele>
        <time>2014-08-08T07:24:31Z</time>
      </trkpt>
      <trkpt lat="44.83911" lon="5.42833">
        <ele>1469.03</ele>
        <time>2014-08-08T07:24:48Z</time>
      </trkpt>
      <trkpt lat="44.83894" lon="5.4284">
        <ele>1469.99</ele>
        <time>2014-08-08T07:25:06Z</time>
      </trkpt>
      <trkpt lat="44.83878" lon="5.42842">
        <ele>1472.88</ele>
        <time>2014-08-08T07:25:23Z</time>
      </trkpt>
      <trkpt lat="44.83861" lon="5.42843">
        <ele>1474.32</ele>
        <time>2014-08-08T07:25:43Z</time>
      </trkpt>
      <trkpt lat="44.83845" lon="5.42848">
        <ele>1475.76</ele>
        <time>2014-08-08T07:26:01Z</time>
      </trkpt>
      <trkpt lat="44.8383" lon="5.42857">
        <ele>1476.24</ele>
        <time>2014-08-08T07:26:23Z</time>
      </trkpt>
      <trkpt lat="44.83818" lon="5.42863">
        <ele>1477.68</ele>
        <time>2014-08-08T07:26:41Z</time>
      </trkpt>
      <trkpt lat="44.83804" lon="5.42869">
        <ele>1477.2</ele>
        <time>2014-08-08T07:27:02Z</time>
      </trkpt>
      <trkpt lat="44.83783" lon="5.42887">
        <ele>1475.76</ele>
        <time>2014-08-08T07:27:23Z</time>
      </trkpt>
      <trkpt lat="44.83764" lon="5.42897">
        <ele>1477.68</ele>
        <time>2014-08-08T07:27:46Z</time>
      </trkpt>
      <trkpt lat="44.83747" lon="5.42911">
        <ele>1476.72</ele>
        <time>2014-08-08T07:28:07Z</time>
      </trkpt>
      <trkpt lat="44.83739" lon="5.42925">
        <ele>1477.68</ele>
        <time>2014-08-08T07:28:29Z</time>
      </trkpt>
      <trkpt lat="44.83747" lon="5.42968">
        <ele>1479.61</ele>
        <time>2014-08-08T07:28:56Z</time>
      </trkpt>
      <trkpt lat="44.83752" lon="5.42999">
        <ele>1482.97</ele>
        <time>2014-08-08T07:29:18Z</time>
      </trkpt>
      <trkpt lat="44.83751" lon="5.43019">
        <ele>1485.85</ele>
        <time>2014-08-08T07:29:35Z</time>
      </trkpt>
      <trkpt lat="44.83747" lon="5.43046">
        <ele>1488.74</ele>
        <time>2014-08-08T07:29:59Z</time>
      </trkpt>
      <trkpt lat="44.83737" lon="5.43069">
        <ele>1489.22</ele>
        <time>2014-08-08T07:30:20Z</time>
      </trkpt>
      <trkpt lat="44.83723" lon="5.43091">
        <ele>1490.66</ele>
        <time>2014-08-08T07:30:39Z</time>
      </trkpt>
      <trkpt lat="44.83719" lon="5.43088">
        <ele>1491.62</ele>
        <time>2014-08-08T07:30:58Z</time>
      </trkpt>
      <trkpt lat="44.83721" lon="5.4308">
        <ele>1491.62</ele>
        <time>2014-08-08T07:31:19Z</time>
      </trkpt>
      <trkpt lat="44.8372" lon="5.43082">
        <ele>1492.1</ele>
        <time>2014-08-08T07:31:45Z</time>
      </trkpt>
      <trkpt lat="44.83723" lon="5.43085">
        <ele>1492.58</ele>
        <time>2014-08-08T07:32:16Z</time>
      </trkpt>
      <trkpt lat="44.83725" lon="5.43074">
        <ele>1492.1</ele>
        <time>2014-08-08T07:32:42Z</time>
      </trkpt>
      <trkpt lat="44.83728" lon="5.43075">
        <ele>1493.06</ele>
        <time>2014-08-08T07:33:08Z</time>
      </trkpt>
      <trkpt lat="44.83728" lon="5.43073">
        <ele>1493.55</ele>
        <time>2014-08-08T07:33:35Z</time>
      </trkpt>
      <trkpt lat="44.83719" lon="5.43093">
        <ele>1494.03</ele>
        <time>2014-08-08T07:33:53Z</time>
      </trkpt>
      <trkpt lat="44.83716" lon="5.43086">
        <ele>1494.03</ele>
        <time>2014-08-08T07:34:18Z</time>
      </trkpt>
      <trkpt lat="44.83713" lon="5.431">
        <ele>1494.51</ele>
        <time>2014-08-08T07:34:43Z</time>
      </trkpt>
      <trkpt lat="44.83708" lon="5.4309">
        <ele>1494.03</ele>
        <time>2014-08-08T07:35:08Z</time>
      </trkpt>
      <trkpt lat="44.8371" lon="5.431">
        <ele>1494.99</ele>
        <time>2014-08-08T07:35:32Z</time>
      </trkpt>
      <trkpt lat="44.83712" lon="5.43097">
        <ele>1495.47</ele>
        <time>2014-08-08T07:35:58Z</time>
      </trkpt>
      <trkpt lat="44.83702" lon="5.43125">
        <ele>1495.95</ele>
        <time>2014-08-08T07:36:18Z</time>
      </trkpt>
      <trkpt lat="44.8369" lon="5.43149">
        <ele>1498.35</ele>
        <time>2014-08-08T07:36:36Z</time>
      </trkpt>
      <trkpt lat="44.83677" lon="5.43188">
        <ele>1499.79</ele>
        <time>2014-08-08T07:36:55Z</time>
      </trkpt>
      <trkpt lat="44.83666" lon="5.43195">
        <ele>1501.24</ele>
        <time>2014-08-08T07:37:15Z</time>
      </trkpt>
      <trkpt lat="44.83654" lon="5.43196">
        <ele>1502.2</ele>
        <time>2014-08-08T07:37:38Z</time>
      </trkpt>
      <trkpt lat="44.83635" lon="5.43213">
        <ele>1504.12</ele>
        <time>2014-08-08T07:37:57Z</time>
      </trkpt>
      <trkpt lat="44.83614" lon="5.43206">
        <ele>1506.52</ele>
        <time>2014-08-08T07:38:17Z</time>
      </trkpt>
      <trkpt lat="44.83602" lon="5.43208">
        <ele>1507.97</ele>
        <time>2014-08-08T07:38:27Z</time>
      </trkpt>
      <trkpt lat="44.83586" lon="5.4321">
        <ele>1509.41</ele>
        <time>2014-08-08T07:38:47Z</time>
      </trkpt>
      <trkpt lat="44.83575" lon="5.43222">
        <ele>1510.37</ele>
        <time>2014-08-08T07:39:07Z</time>
      </trkpt>
      <trkpt lat="44.8355" lon="5.43237">
        <ele>1512.29</ele>
        <time>2014-08-08T07:39:30Z</time>
      </trkpt>
      <trkpt lat="44.83528" lon="5.4324">
        <ele>1514.69</ele>
        <time>2014-08-08T07:39:49Z</time>
      </trkpt>
      <trkpt lat="44.83508" lon="5.43246">
        <ele>1516.62</ele>
        <time>2014-08-08T07:40:07Z</time>
      </trkpt>
      <trkpt lat="44.83487" lon="5.43249">
        <ele>1518.54</ele>
        <time>2014-08-08T07:40:25Z</time>
      </trkpt>
      <trkpt lat="44.83467" lon="5.43244">
        <ele>1519.98</ele>
        <time>2014-08-08T07:40:45Z</time>
      </trkpt>
      <trkpt lat="44.8345" lon="5.43242">
        <ele>1521.42</ele>
        <time>2014-08-08T07:41:04Z</time>
      </trkpt>
      <trkpt lat="44.83443" lon="5.43248">
        <ele>1523.83</ele>
        <time>2014-08-08T07:41:15Z</time>
      </trkpt>
      <trkpt lat="44.8344" lon="5.43257">
        <ele>1525.27</ele>
        <time>2014-08-08T07:41:29Z</time>
      </trkpt>
      <trkpt lat="44.83435" lon="5.43262">
        <ele>1526.71</ele>
        <time>2014-08-08T07:41:46Z</time>
      </trkpt>
      <trkpt lat="44.8343" lon="5.43271">
        <ele>1528.63</ele>
        <time>2014-08-08T07:42:03Z</time>
      </trkpt>
      <trkpt lat="44.83425" lon="5.43291">
        <ele>1530.08</ele>
        <time>2014-08-08T07:42:18Z</time>
      </trkpt>
      <trkpt lat="44.83419" lon="5.43304">
        <ele>1532</ele>
        <time>2014-08-08T07:42:37Z</time>
      </trkpt>
      <trkpt lat="44.8341" lon="5.43326">
        <ele>1533.92</ele>
        <time>2014-08-08T07:42:56Z</time>
      </trkpt>
      <trkpt lat="44.83405" lon="5.43343">
        <ele>1537.29</ele>
        <time>2014-08-08T07:43:13Z</time>
      </trkpt>
      <trkpt lat="44.83405" lon="5.4335">
        <ele>1538.73</ele>
        <time>2014-08-08T07:43:28Z</time>
      </trkpt>
      <trkpt lat="44.83397" lon="5.43372">
        <ele>1541.13</ele>
        <time>2014-08-08T07:43:47Z</time>
      </trkpt>
      <trkpt lat="44.83391" lon="5.43394">
        <ele>1544.01</ele>
        <time>2014-08-08T07:44:07Z</time>
      </trkpt>
      <trkpt lat="44.83384" lon="5.43414">
        <ele>1546.42</ele>
        <time>2014-08-08T07:44:27Z</time>
      </trkpt>
      <trkpt lat="44.83384" lon="5.43413">
        <ele>1545.94</ele>
        <time>2014-08-08T07:44:47Z</time>
      </trkpt>
      <trkpt lat="44.83385" lon="5.43412">
        <ele>1547.38</ele>
        <time>2014-08-08T07:45:08Z</time>
      </trkpt>
      <trkpt lat="44.83384" lon="5.43413">
        <ele>1546.9</ele>
        <time>2014-08-08T07:45:27Z</time>
      </trkpt>
      <trkpt lat="44.83382" lon="5.43414">
        <ele>1546.9</ele>
        <time>2014-08-08T07:45:46Z</time>
      </trkpt>
      <trkpt lat="44.83385" lon="5.4342">
        <ele>1549.3</ele>
        <time>2014-08-08T07:46:17Z</time>
      </trkpt>
      <trkpt lat="44.83381" lon="5.4342">
        <ele>1549.3</ele>
        <time>2014-08-08T07:46:40Z</time>
      </trkpt>
      <trkpt lat="44.83381" lon="5.43419">
        <ele>1548.82</ele>
        <time>2014-08-08T07:47:03Z</time>
      </trkpt>
      <trkpt lat="44.8338" lon="5.4342">
        <ele>1548.82</ele>
        <time>2014-08-08T07:47:34Z</time>
      </trkpt>
      <trkpt lat="44.83381" lon="5.43419">
        <ele>1549.78</ele>
        <time>2014-08-08T07:48:05Z</time>
      </trkpt>
      <trkpt lat="44.83381" lon="5.43421">
        <ele>1549.3</ele>
        <time>2014-08-08T07:48:38Z</time>
      </trkpt>
      <trkpt lat="44.83381" lon="5.43423">
        <ele>1550.26</ele>
        <time>2014-08-08T07:48:56Z</time>
      </trkpt>
      <trkpt lat="44.8338" lon="5.43434">
        <ele>1552.19</ele>
        <time>2014-08-08T07:49:09Z</time>
      </trkpt>
      <trkpt lat="44.83379" lon="5.43445">
        <ele>1553.15</ele>
        <time>2014-08-08T07:49:18Z</time>
      </trkpt>
      <trkpt lat="44.83377" lon="5.43469">
        <ele>1556.99</ele>
        <time>2014-08-08T07:49:33Z</time>
      </trkpt>
      <trkpt lat="44.8337" lon="5.43489">
        <ele>1558.92</ele>
        <time>2014-08-08T07:49:52Z</time>
      </trkpt>
      <trkpt lat="44.83369" lon="5.43504">
        <ele>1559.88</ele>
        <time>2014-08-08T07:50:05Z</time>
      </trkpt>
      <trkpt lat="44.83367" lon="5.43518">
        <ele>1563.72</ele>
        <time>2014-08-08T07:50:18Z</time>
      </trkpt>
      <trkpt lat="44.83365" lon="5.4354">
        <ele>1565.64</ele>
        <time>2014-08-08T07:50:33Z</time>
      </trkpt>
      <trkpt lat="44.83366" lon="5.43547">
        <ele>1566.12</ele>
        <time>2014-08-08T07:50:45Z</time>
      </trkpt>
      <trkpt lat="44.83369" lon="5.43563">
        <ele>1566.61</ele>
        <time>2014-08-08T07:50:59Z</time>
      </trkpt>
      <trkpt lat="44.83369" lon="5.43567">
        <ele>1567.09</ele>
        <time>2014-08-08T07:51:02Z</time>
      </trkpt>
      <trkpt lat="44.83378" lon="5.43593">
        <ele>1567.09</ele>
        <time>2014-08-08T07:51:21Z</time>
      </trkpt>
      <trkpt lat="44.83384" lon="5.43599">
        <ele>1565.64</ele>
        <time>2014-08-08T07:51:37Z</time>
      </trkpt>
      <trkpt lat="44.83395" lon="5.43596">
        <ele>1569.01</ele>
        <time>2014-08-08T07:51:51Z</time>
      </trkpt>
      <trkpt lat="44.83409" lon="5.43589">
        <ele>1570.45</ele>
        <time>2014-08-08T07:52:08Z</time>
      </trkpt>
      <trkpt lat="44.83425" lon="5.43593">
        <ele>1571.89</ele>
        <time>2014-08-08T07:52:24Z</time>
      </trkpt>
      <trkpt lat="44.83428" lon="5.43612">
        <ele>1574.78</ele>
        <time>2014-08-08T07:52:41Z</time>
      </trkpt>
      <trkpt lat="44.83426" lon="5.43622">
        <ele>1575.74</ele>
        <time>2014-08-08T07:52:54Z</time>
      </trkpt>
      <trkpt lat="44.83425" lon="5.43635">
        <ele>1578.62</ele>
        <time>2014-08-08T07:53:10Z</time>
      </trkpt>
      <trkpt lat="44.83424" lon="5.43649">
        <ele>1581.03</ele>
        <time>2014-08-08T07:53:24Z</time>
      </trkpt>
      <trkpt lat="44.83423" lon="5.43664">
        <ele>1583.91</ele>
        <time>2014-08-08T07:53:39Z</time>
      </trkpt>
      <trkpt lat="44.83422" lon="5.43682">
        <ele>1587.27</ele>
        <time>2014-08-08T07:53:55Z</time>
      </trkpt>
      <trkpt lat="44.83417" lon="5.43698">
        <ele>1590.16</ele>
        <time>2014-08-08T07:54:09Z</time>
      </trkpt>
      <trkpt lat="44.83416" lon="5.43702">
        <ele>1591.6</ele>
        <time>2014-08-08T07:54:13Z</time>
      </trkpt>
      <trkpt lat="44.83409" lon="5.43711">
        <ele>1593.04</ele>
        <time>2014-08-08T07:54:26Z</time>
      </trkpt>
      <trkpt lat="44.83403" lon="5.43719">
        <ele>1594.96</ele>
        <time>2014-08-08T07:54:35Z</time>
      </trkpt>
      <trkpt lat="44.83393" lon="5.43731">
        <ele>1598.33</ele>
        <time>2014-08-08T07:54:47Z</time>
      </trkpt>
      <trkpt lat="44.83386" lon="5.43749">
        <ele>1601.21</ele>
        <time>2014-08-08T07:55:03Z</time>
      </trkpt>
      <trkpt lat="44.83376" lon="5.43762">
        <ele>1603.62</ele>
        <time>2014-08-08T07:55:18Z</time>
      </trkpt>
      <trkpt lat="44.83371" lon="5.43776">
        <ele>1606.5</ele>
        <time>2014-08-08T07:55:33Z</time>
      </trkpt>
      <trkpt lat="44.83371" lon="5.43784">
        <ele>1606.98</ele>
        <time>2014-08-08T07:55:48Z</time>
      </trkpt>
      <trkpt lat="44.83371" lon="5.43788">
        <ele>1606.5</ele>
        <time>2014-08-08T07:55:51Z</time>
      </trkpt>
      <trkpt lat="44.83375" lon="5.43798">
        <ele>1607.46</ele>
        <time>2014-08-08T07:56:06Z</time>
      </trkpt>
      <trkpt lat="44.83378" lon="5.43807">
        <ele>1607.94</ele>
        <time>2014-08-08T07:56:25Z</time>
      </trkpt>
      <trkpt lat="44.83383" lon="5.43824">
        <ele>1609.86</ele>
        <time>2014-08-08T07:56:39Z</time>
      </trkpt>
      <trkpt lat="44.83389" lon="5.43845">
        <ele>1611.31</ele>
        <time>2014-08-08T07:56:56Z</time>
      </trkpt>
      <trkpt lat="44.83394" lon="5.43866">
        <ele>1613.71</ele>
        <time>2014-08-08T07:57:13Z</time>
      </trkpt>
      <trkpt lat="44.83394" lon="5.43883">
        <ele>1617.07</ele>
        <time>2014-08-08T07:57:28Z</time>
      </trkpt>
      <trkpt lat="44.83394" lon="5.43888">
        <ele>1618.52</ele>
        <time>2014-08-08T07:57:31Z</time>
      </trkpt>
      <trkpt lat="44.83389" lon="5.43909">
        <ele>1621.88</ele>
        <time>2014-08-08T07:57:48Z</time>
      </trkpt>
      <trkpt lat="44.83388" lon="5.43912">
        <ele>1622.36</ele>
        <time>2014-08-08T07:57:50Z</time>
      </trkpt>
      <trkpt lat="44.83386" lon="5.43934">
        <ele>1625.25</ele>
        <time>2014-08-08T07:58:06Z</time>
      </trkpt>
      <trkpt lat="44.83385" lon="5.43937">
        <ele>1625.73</ele>
        <time>2014-08-08T07:58:08Z</time>
      </trkpt>
      <trkpt lat="44.83382" lon="5.43962">
        <ele>1628.61</ele>
        <time>2014-08-08T07:58:23Z</time>
      </trkpt>
      <trkpt lat="44.83379" lon="5.43977">
        <ele>1631.98</ele>
        <time>2014-08-08T07:58:34Z</time>
      </trkpt>
      <trkpt lat="44.83375" lon="5.43988">
        <ele>1633.9</ele>
        <time>2014-08-08T07:58:49Z</time>
      </trkpt>
      <trkpt lat="44.83379" lon="5.43995">
        <ele>1634.38</ele>
        <time>2014-08-08T07:59:03Z</time>
      </trkpt>
      <trkpt lat="44.83374" lon="5.44002">
        <ele>1634.38</ele>
        <time>2014-08-08T07:59:19Z</time>
      </trkpt>
      <trkpt lat="44.83372" lon="5.44008">
        <ele>1634.86</ele>
        <time>2014-08-08T07:59:38Z</time>
      </trkpt>
      <trkpt lat="44.8337" lon="5.44015">
        <ele>1635.82</ele>
        <time>2014-08-08T07:59:51Z</time>
      </trkpt>
      <trkpt lat="44.83368" lon="5.44015">
        <ele>1635.34</ele>
        <time>2014-08-08T08:00:08Z</time>
      </trkpt>
      <trkpt lat="44.83369" lon="5.44013">
        <ele>1635.82</ele>
        <time>2014-08-08T08:00:25Z</time>
      </trkpt>
      <trkpt lat="44.83369" lon="5.44017">
        <ele>1634.86</ele>
        <time>2014-08-08T08:00:52Z</time>
      </trkpt>
      <trkpt lat="44.83369" lon="5.44014">
        <ele>1634.38</ele>
        <time>2014-08-08T08:01:11Z</time>
      </trkpt>
      <trkpt lat="44.83369" lon="5.44015">
        <ele>1635.34</ele>
        <time>2014-08-08T08:01:36Z</time>
      </trkpt>
      <trkpt lat="44.83366" lon="5.44019">
        <ele>1634.86</ele>
        <time>2014-08-08T08:01:50Z</time>
      </trkpt>
      <trkpt lat="44.83369" lon="5.44017">
        <ele>1635.34</ele>
        <time>2014-08-08T08:02:25Z</time>
      </trkpt>
      <trkpt lat="44.83367" lon="5.44017">
        <ele>1634.38</ele>
        <time>2014-08-08T08:02:53Z</time>
      </trkpt>
      <trkpt lat="44.83367" lon="5.44019">
        <ele>1635.82</ele>
        <time>2014-08-08T08:03:18Z</time>
      </trkpt>
      <trkpt lat="44.8337" lon="5.44018">
        <ele>1635.82</ele>
        <time>2014-08-08T08:03:33Z</time>
      </trkpt>
      <trkpt lat="44.83371" lon="5.44019">
        <ele>1635.34</ele>
        <time>2014-08-08T08:03:56Z</time>
      </trkpt>
      <trkpt lat="44.83372" lon="5.44018">
        <ele>1635.34</ele>
        <time>2014-08-08T08:04:22Z</time>
      </trkpt>
      <trkpt lat="44.83371" lon="5.44019">
        <ele>1635.34</ele>
        <time>2014-08-08T08:04:48Z</time>
      </trkpt>
      <trkpt lat="44.83372" lon="5.44018">
        <ele>1636.3</ele>
        <time>2014-08-08T08:05:17Z</time>
      </trkpt>
      <trkpt lat="44.83372" lon="5.44018">
        <ele>1636.3</ele>
        <time>2014-08-08T08:05:32Z</time>
      </trkpt>
      <trkpt lat="44.83372" lon="5.44017">
        <ele>1635.34</ele>
        <time>2014-08-08T08:05:59Z</time>
      </trkpt>
      <trkpt lat="44.83371" lon="5.44016">
        <ele>1635.34</ele>
        <time>2014-08-08T08:06:19Z</time>
      </trkpt>
      <trkpt lat="44.83368" lon="5.4402">
        <ele>1635.34</ele>
        <time>2014-08-08T08:06:33Z</time>
      </trkpt>
      <trkpt lat="44.83365" lon="5.44024">
        <ele>1636.3</ele>
        <time>2014-08-08T08:06:59Z</time>
      </trkpt>
      <trkpt lat="44.8336" lon="5.44028">
        <ele>1636.3</ele>
        <time>2014-08-08T08:07:13Z</time>
      </trkpt>
      <trkpt lat="44.83355" lon="5.44038">
        <ele>1635.34</ele>
        <time>2014-08-08T08:07:27Z</time>
      </trkpt>
      <trkpt lat="44.83354" lon="5.44039">
        <ele>1635.34</ele>
        <time>2014-08-08T08:07:32Z</time>
      </trkpt>
      <trkpt lat="44.83349" lon="5.44041">
        <ele>1635.34</ele>
        <time>2014-08-08T08:07:37Z</time>
      </trkpt>
      <trkpt lat="44.83343" lon="5.44042">
        <ele>1634.86</ele>
        <time>2014-08-08T08:07:45Z</time>
      </trkpt>
      <trkpt lat="44.83325" lon="5.4404">
        <ele>1633.9</ele>
        <time>2014-08-08T08:08:03Z</time>
      </trkpt>
      <trkpt lat="44.83316" lon="5.44042">
        <ele>1636.3</ele>
        <time>2014-08-08T08:08:13Z</time>
      </trkpt>
      <trkpt lat="44.833" lon="5.44052">
        <ele>1637.26</ele>
        <time>2014-08-08T08:08:30Z</time>
      </trkpt>
      <trkpt lat="44.83295" lon="5.44056">
        <ele>1637.26</ele>
        <time>2014-08-08T08:08:36Z</time>
      </trkpt>
      <trkpt lat="44.83284" lon="5.44063">
        <ele>1639.67</ele>
        <time>2014-08-08T08:08:47Z</time>
      </trkpt>
      <trkpt lat="44.8328" lon="5.44064">
        <ele>1638.22</ele>
        <time>2014-08-08T08:08:52Z</time>
      </trkpt>
      <trkpt lat="44.83273" lon="5.44067">
        <ele>1632.94</ele>
        <time>2014-08-08T08:09:03Z</time>
      </trkpt>
      <trkpt lat="44.83272" lon="5.44066">
        <ele>1633.9</ele>
        <time>2014-08-08T08:09:04Z</time>
      </trkpt>
      <trkpt lat="44.83271" lon="5.44066">
        <ele>1640.15</ele>
        <time>2014-08-08T08:09:05Z</time>
      </trkpt>
      <trkpt lat="44.8327" lon="5.44066">
        <ele>1635.34</ele>
        <time>2014-08-08T08:09:06Z</time>
      </trkpt>
      <trkpt lat="44.83265" lon="5.44066">
        <ele>1635.34</ele>
        <time>2014-08-08T08:09:13Z</time>
      </trkpt>
      <trkpt lat="44.83257" lon="5.44064">
        <ele>1631.49</ele>
        <time>2014-08-08T08:09:21Z</time>
      </trkpt>
      <trkpt lat="44.83255" lon="5.44064">
        <ele>1635.82</ele>
        <time>2014-08-08T08:09:22Z</time>
      </trkpt>
      <trkpt lat="44.83241" lon="5.44069">
        <ele>1638.22</ele>
        <time>2014-08-08T08:09:38Z</time>
      </trkpt>
      <trkpt lat="44.83238" lon="5.4407">
        <ele>1637.26</ele>
        <time>2014-08-08T08:09:40Z</time>
      </trkpt>
      <trkpt lat="44.83231" lon="5.44061">
        <ele>1637.26</ele>
        <time>2014-08-08T08:09:56Z</time>
      </trkpt>
      <trkpt lat="44.83231" lon="5.44063">
        <ele>1636.78</ele>
        <time>2014-08-08T08:10:12Z</time>
      </trkpt>
      <trkpt lat="44.83229" lon="5.44065">
        <ele>1637.74</ele>
        <time>2014-08-08T08:10:27Z</time>
      </trkpt>
      <trkpt lat="44.83226" lon="5.44072">
        <ele>1637.26</ele>
        <time>2014-08-08T08:10:42Z</time>
      </trkpt>
      <trkpt lat="44.83221" lon="5.44086">
        <ele>1636.3</ele>
        <time>2014-08-08T08:10:58Z</time>
      </trkpt>
      <trkpt lat="44.83223" lon="5.4409">
        <ele>1637.26</ele>
        <time>2014-08-08T08:11:05Z</time>
      </trkpt>
      <trkpt lat="44.83215" lon="5.44095">
        <ele>1636.78</ele>
        <time>2014-08-08T08:11:19Z</time>
      </trkpt>
      <trkpt lat="44.83224" lon="5.4411">
        <ele>1634.86</ele>
        <time>2014-08-08T08:11:39Z</time>
      </trkpt>
      <trkpt lat="44.83226" lon="5.44128">
        <ele>1632.94</ele>
        <time>2014-08-08T08:11:55Z</time>
      </trkpt>
      <trkpt lat="44.83222" lon="5.44142">
        <ele>1630.05</ele>
        <time>2014-08-08T08:12:09Z</time>
      </trkpt>
      <trkpt lat="44.83221" lon="5.44162">
        <ele>1628.13</ele>
        <time>2014-08-08T08:12:27Z</time>
      </trkpt>
      <trkpt lat="44.83218" lon="5.44173">
        <ele>1626.69</ele>
        <time>2014-08-08T08:12:41Z</time>
      </trkpt>
      <trkpt lat="44.8322" lon="5.44189">
        <ele>1625.73</ele>
        <time>2014-08-08T08:12:55Z</time>
      </trkpt>
      <trkpt lat="44.83218" lon="5.44199">
        <ele>1622.84</ele>
        <time>2014-08-08T08:13:08Z</time>
      </trkpt>
      <trkpt lat="44.83214" lon="5.4421">
        <ele>1621.88</ele>
        <time>2014-08-08T08:13:22Z</time>
      </trkpt>
      <trkpt lat="44.83205" lon="5.44228">
        <ele>1622.36</ele>
        <time>2014-08-08T08:13:40Z</time>
      </trkpt>
      <trkpt lat="44.83195" lon="5.44245">
        <ele>1622.36</ele>
        <time>2014-08-08T08:13:56Z</time>
      </trkpt>
      <trkpt lat="44.83191" lon="5.44266">
        <ele>1623.8</ele>
        <time>2014-08-08T08:14:11Z</time>
      </trkpt>
      <trkpt lat="44.83186" lon="5.44285">
        <ele>1625.73</ele>
        <time>2014-08-08T08:14:26Z</time>
      </trkpt>
      <trkpt lat="44.83187" lon="5.44289">
        <ele>1626.21</ele>
        <time>2014-08-08T08:14:30Z</time>
      </trkpt>
      <trkpt lat="44.83187" lon="5.4431">
        <ele>1627.17</ele>
        <time>2014-08-08T08:14:49Z</time>
      </trkpt>
      <trkpt lat="44.83187" lon="5.44323">
        <ele>1630.53</ele>
        <time>2014-08-08T08:15:03Z</time>
      </trkpt>
      <trkpt lat="44.83186" lon="5.44325">
        <ele>1630.05</ele>
        <time>2014-08-08T08:15:05Z</time>
      </trkpt>
      <trkpt lat="44.83189" lon="5.44346">
        <ele>1630.53</ele>
        <time>2014-08-08T08:15:22Z</time>
      </trkpt>
      <trkpt lat="44.83197" lon="5.44368">
        <ele>1631.49</ele>
        <time>2014-08-08T08:15:39Z</time>
      </trkpt>
      <trkpt lat="44.83203" lon="5.44396">
        <ele>1629.09</ele>
        <time>2014-08-08T08:15:59Z</time>
      </trkpt>
      <trkpt lat="44.83204" lon="5.44426">
        <ele>1629.57</ele>
        <time>2014-08-08T08:16:19Z</time>
      </trkpt>
      <trkpt lat="44.832" lon="5.4445">
        <ele>1628.13</ele>
        <time>2014-08-08T08:16:38Z</time>
      </trkpt>
      <trkpt lat="44.83199" lon="5.44455">
        <ele>1628.13</ele>
        <time>2014-08-08T08:16:41Z</time>
      </trkpt>
      <trkpt lat="44.83199" lon="5.44481">
        <ele>1626.69</ele>
        <time>2014-08-08T08:16:58Z</time>
      </trkpt>
      <trkpt lat="44.83198" lon="5.44507">
        <ele>1625.73</ele>
        <time>2014-08-08T08:17:17Z</time>
      </trkpt>
      <trkpt lat="44.83197" lon="5.4452">
        <ele>1622.36</ele>
        <time>2014-08-08T08:17:27Z</time>
      </trkpt>
      <trkpt lat="44.83196" lon="5.44522">
        <ele>1622.36</ele>
        <time>2014-08-08T08:17:28Z</time>
      </trkpt>
      <trkpt lat="44.83189" lon="5.44543">
        <ele>1619.96</ele>
        <time>2014-08-08T08:17:47Z</time>
      </trkpt>
      <trkpt lat="44.83188" lon="5.4457">
        <ele>1617.07</ele>
        <time>2014-08-08T08:18:05Z</time>
      </trkpt>
      <trkpt lat="44.83192" lon="5.44593">
        <ele>1615.15</ele>
        <time>2014-08-08T08:18:23Z</time>
      </trkpt>
      <trkpt lat="44.83192" lon="5.44601">
        <ele>1614.67</ele>
        <time>2014-08-08T08:18:29Z</time>
      </trkpt>
      <trkpt lat="44.83199" lon="5.4463">
        <ele>1612.27</ele>
        <time>2014-08-08T08:18:49Z</time>
      </trkpt>
      <trkpt lat="44.83199" lon="5.4465">
        <ele>1612.27</ele>
        <time>2014-08-08T08:19:06Z</time>
      </trkpt>
      <trkpt lat="44.832" lon="5.44655">
        <ele>1612.75</ele>
        <time>2014-08-08T08:19:10Z</time>
      </trkpt>
      <trkpt lat="44.83191" lon="5.44681">
        <ele>1612.75</ele>
        <time>2014-08-08T08:19:29Z</time>
      </trkpt>
      <trkpt lat="44.83185" lon="5.44689">
        <ele>1613.71</ele>
        <time>2014-08-08T08:19:39Z</time>
      </trkpt>
      <trkpt lat="44.83172" lon="5.44712">
        <ele>1614.19</ele>
        <time>2014-08-08T08:19:58Z</time>
      </trkpt>
      <trkpt lat="44.8317" lon="5.44722">
        <ele>1614.67</ele>
        <time>2014-08-08T08:20:05Z</time>
      </trkpt>
      <trkpt lat="44.83165" lon="5.44748">
        <ele>1614.67</ele>
        <time>2014-08-08T08:20:22Z</time>
      </trkpt>
      <trkpt lat="44.83159" lon="5.44772">
        <ele>1612.27</ele>
        <time>2014-08-08T08:20:40Z</time>
      </trkpt>
      <trkpt lat="44.83154" lon="5.44784">
        <ele>1610.35</ele>
        <time>2014-08-08T08:20:51Z</time>
      </trkpt>
      <trkpt lat="44.83144" lon="5.44808">
        <ele>1606.5</ele>
        <time>2014-08-08T08:21:10Z</time>
      </trkpt>
      <trkpt lat="44.83143" lon="5.44812">
        <ele>1606.5</ele>
        <time>2014-08-08T08:21:13Z</time>
      </trkpt>
      <trkpt lat="44.83138" lon="5.44838">
        <ele>1604.1</ele>
        <time>2014-08-08T08:21:32Z</time>
      </trkpt>
      <trkpt lat="44.83136" lon="5.44866">
        <ele>1603.14</ele>
        <time>2014-08-08T08:21:53Z</time>
      </trkpt>
      <trkpt lat="44.83132" lon="5.44893">
        <ele>1602.66</ele>
        <time>2014-08-08T08:22:13Z</time>
      </trkpt>
      <trkpt lat="44.83127" lon="5.44922">
        <ele>1602.66</ele>
        <time>2014-08-08T08:22:34Z</time>
      </trkpt>
      <trkpt lat="44.8312" lon="5.44944">
        <ele>1602.17</ele>
        <time>2014-08-08T08:22:54Z</time>
      </trkpt>
      <trkpt lat="44.83112" lon="5.44964">
        <ele>1600.73</ele>
        <time>2014-08-08T08:23:14Z</time>
      </trkpt>
      <trkpt lat="44.83107" lon="5.44983">
        <ele>1598.81</ele>
        <time>2014-08-08T08:23:33Z</time>
      </trkpt>
      <trkpt lat="44.83102" lon="5.45">
        <ele>1597.37</ele>
        <time>2014-08-08T08:23:48Z</time>
      </trkpt>
      <trkpt lat="44.83095" lon="5.45021">
        <ele>1595.93</ele>
        <time>2014-08-08T08:24:09Z</time>
      </trkpt>
      <trkpt lat="44.83081" lon="5.45038">
        <ele>1594.96</ele>
        <time>2014-08-08T08:24:29Z</time>
      </trkpt>
      <trkpt lat="44.83069" lon="5.45058">
        <ele>1593.52</ele>
        <time>2014-08-08T08:24:49Z</time>
      </trkpt>
      <trkpt lat="44.83066" lon="5.45062">
        <ele>1591.6</ele>
        <time>2014-08-08T08:24:54Z</time>
      </trkpt>
      <trkpt lat="44.83056" lon="5.45077">
        <ele>1590.64</ele>
        <time>2014-08-08T08:25:12Z</time>
      </trkpt>
      <trkpt lat="44.83049" lon="5.45098">
        <ele>1587.27</ele>
        <time>2014-08-08T08:25:28Z</time>
      </trkpt>
      <trkpt lat="44.83043" lon="5.45106">
        <ele>1585.83</ele>
        <time>2014-08-08T08:25:36Z</time>
      </trkpt>
      <trkpt lat="44.83034" lon="5.45122">
        <ele>1583.43</ele>
        <time>2014-08-08T08:25:56Z</time>
      </trkpt>
      <trkpt lat="44.83028" lon="5.45137">
        <ele>1581.51</ele>
        <time>2014-08-08T08:26:14Z</time>
      </trkpt>
      <trkpt lat="44.83017" lon="5.4515">
        <ele>1578.62</ele>
        <time>2014-08-08T08:26:30Z</time>
      </trkpt>
      <trkpt lat="44.83003" lon="5.45164">
        <ele>1576.22</ele>
        <time>2014-08-08T08:26:49Z</time>
      </trkpt>
      <trkpt lat="44.82997" lon="5.45174">
        <ele>1573.33</ele>
        <time>2014-08-08T08:27:01Z</time>
      </trkpt>
      <trkpt lat="44.82988" lon="5.45191">
        <ele>1569.97</ele>
        <time>2014-08-08T08:27:20Z</time>
      </trkpt>
      <trkpt lat="44.82987" lon="5.45193">
        <ele>1569.49</ele>
        <time>2014-08-08T08:27:22Z</time>
      </trkpt>
      <trkpt lat="44.82975" lon="5.45207">
        <ele>1566.61</ele>
        <time>2014-08-08T08:27:40Z</time>
      </trkpt>
      <trkpt lat="44.82969" lon="5.45221">
        <ele>1563.24</ele>
        <time>2014-08-08T08:27:54Z</time>
      </trkpt>
      <trkpt lat="44.82965" lon="5.45236">
        <ele>1560.36</ele>
        <time>2014-08-08T08:28:10Z</time>
      </trkpt>
      <trkpt lat="44.82964" lon="5.45244">
        <ele>1558.92</ele>
        <time>2014-08-08T08:28:16Z</time>
      </trkpt>
      <trkpt lat="44.82961" lon="5.45258">
        <ele>1556.99</ele>
        <time>2014-08-08T08:28:27Z</time>
      </trkpt>
      <trkpt lat="44.82961" lon="5.45261">
        <ele>1556.03</ele>
        <time>2014-08-08T08:28:29Z</time>
      </trkpt>
      <trkpt lat="44.82965" lon="5.45276">
        <ele>1554.11</ele>
        <time>2014-08-08T08:28:43Z</time>
      </trkpt>
      <trkpt lat="44.82976" lon="5.45299">
        <ele>1552.19</ele>
        <time>2014-08-08T08:29:02Z</time>
      </trkpt>
      <trkpt lat="44.82985" lon="5.45322">
        <ele>1551.22</ele>
        <time>2014-08-08T08:29:21Z</time>
      </trkpt>
      <trkpt lat="44.82995" lon="5.4534">
        <ele>1549.3</ele>
        <time>2014-08-08T08:29:39Z</time>
      </trkpt>
      <trkpt lat="44.82998" lon="5.45345">
        <ele>1548.34</ele>
        <time>2014-08-08T08:29:57Z</time>
      </trkpt>
      <trkpt lat="44.83008" lon="5.45348">
        <ele>1548.82</ele>
        <time>2014-08-08T08:30:11Z</time>
      </trkpt>
      <trkpt lat="44.83007" lon="5.45348">
        <ele>1547.86</ele>
        <time>2014-08-08T08:30:28Z</time>
      </trkpt>
      <trkpt lat="44.83003" lon="5.45346">
        <ele>1547.86</ele>
        <time>2014-08-08T08:30:42Z</time>
      </trkpt>
      <trkpt lat="44.83005" lon="5.45354">
        <ele>1548.82</ele>
        <time>2014-08-08T08:31:00Z</time>
      </trkpt>
      <trkpt lat="44.83004" lon="5.45357">
        <ele>1548.34</ele>
        <time>2014-08-08T08:31:17Z</time>
      </trkpt>
      <trkpt lat="44.83005" lon="5.45357">
        <ele>1548.34</ele>
        <time>2014-08-08T08:31:18Z</time>
      </trkpt>
      <trkpt lat="44.83009" lon="5.4536">
        <ele>1549.3</ele>
        <time>2014-08-08T08:31:38Z</time>
      </trkpt>
      <trkpt lat="44.83012" lon="5.45359">
        <ele>1548.82</ele>
        <time>2014-08-08T08:31:58Z</time>
      </trkpt>
      <trkpt lat="44.83012" lon="5.45366">
        <ele>1549.3</ele>
        <time>2014-08-08T08:32:14Z</time>
      </trkpt>
      <trkpt lat="44.83012" lon="5.45367">
        <ele>1550.74</ele>
        <time>2014-08-08T08:32:35Z</time>
      </trkpt>
      <trkpt lat="44.83008" lon="5.45363">
        <ele>1550.26</ele>
        <time>2014-08-08T08:33:00Z</time>
      </trkpt>
      <trkpt lat="44.83013" lon="5.45376">
        <ele>1549.3</ele>
        <time>2014-08-08T08:33:22Z</time>
      </trkpt>
      <trkpt lat="44.83019" lon="5.45395">
        <ele>1550.26</ele>
        <time>2014-08-08T08:33:39Z</time>
      </trkpt>
      <trkpt lat="44.83018" lon="5.45402">
        <ele>1550.74</ele>
        <time>2014-08-08T08:33:52Z</time>
      </trkpt>
      <trkpt lat="44.83023" lon="5.45406">
        <ele>1550.26</ele>
        <time>2014-08-08T08:33:59Z</time>
      </trkpt>
      <trkpt lat="44.83028" lon="5.45422">
        <ele>1549.78</ele>
        <time>2014-08-08T08:34:06Z</time>
      </trkpt>
      <trkpt lat="44.83039" lon="5.45444">
        <ele>1552.67</ele>
        <time>2014-08-08T08:34:21Z</time>
      </trkpt>
      <trkpt lat="44.83055" lon="5.45463">
        <ele>1553.15</ele>
        <time>2014-08-08T08:34:37Z</time>
      </trkpt>
      <trkpt lat="44.83064" lon="5.45472">
        <ele>1556.03</ele>
        <time>2014-08-08T08:34:48Z</time>
      </trkpt>
      <trkpt lat="44.83076" lon="5.45478">
        <ele>1556.51</ele>
        <time>2014-08-08T08:35:05Z</time>
      </trkpt>
      <trkpt lat="44.83092" lon="5.45485">
        <ele>1558.92</ele>
        <time>2014-08-08T08:35:20Z</time>
      </trkpt>
      <trkpt lat="44.83106" lon="5.45492">
        <ele>1559.88</ele>
        <time>2014-08-08T08:35:35Z</time>
      </trkpt>
      <trkpt lat="44.83119" lon="5.45498">
        <ele>1559.88</ele>
        <time>2014-08-08T08:35:46Z</time>
      </trkpt>
      <trkpt lat="44.83133" lon="5.45505">
        <ele>1561.32</ele>
        <time>2014-08-08T08:36:02Z</time>
      </trkpt>
      <trkpt lat="44.83144" lon="5.45508">
        <ele>1562.28</ele>
        <time>2014-08-08T08:36:13Z</time>
      </trkpt>
      <trkpt lat="44.83147" lon="5.45512">
        <ele>1562.76</ele>
        <time>2014-08-08T08:36:17Z</time>
      </trkpt>
      <trkpt lat="44.83155" lon="5.45514">
        <ele>1563.24</ele>
        <time>2014-08-08T08:36:23Z</time>
      </trkpt>
      <trkpt lat="44.83176" lon="5.45527">
        <ele>1563.24</ele>
        <time>2014-08-08T08:36:40Z</time>
      </trkpt>
      <trkpt lat="44.83191" lon="5.45535">
        <ele>1563.72</ele>
        <time>2014-08-08T08:36:54Z</time>
      </trkpt>
      <trkpt lat="44.83203" lon="5.45546">
        <ele>1564.2</ele>
        <time>2014-08-08T08:37:08Z</time>
      </trkpt>
      <trkpt lat="44.83218" lon="5.45571">
        <ele>1564.2</ele>
        <time>2014-08-08T08:37:26Z</time>
      </trkpt>
      <trkpt lat="44.83229" lon="5.45593">
        <ele>1565.16</ele>
        <time>2014-08-08T08:37:43Z</time>
      </trkpt>
      <trkpt lat="44.83236" lon="5.45612">
        <ele>1566.61</ele>
        <time>2014-08-08T08:37:58Z</time>
      </trkpt>
      <trkpt lat="44.83241" lon="5.45634">
        <ele>1567.57</ele>
        <time>2014-08-08T08:38:12Z</time>
      </trkpt>
      <trkpt lat="44.83245" lon="5.45653">
        <ele>1566.61</ele>
        <time>2014-08-08T08:38:26Z</time>
      </trkpt>
      <trkpt lat="44.83248" lon="5.45657">
        <ele>1565.64</ele>
        <time>2014-08-08T08:38:29Z</time>
      </trkpt>
      <trkpt lat="44.83257" lon="5.45683">
        <ele>1567.09</ele>
        <time>2014-08-08T08:38:45Z</time>
      </trkpt>
      <trkpt lat="44.83265" lon="5.45697">
        <ele>1568.05</ele>
        <time>2014-08-08T08:38:57Z</time>
      </trkpt>
      <trkpt lat="44.8327" lon="5.4572">
        <ele>1567.09</ele>
        <time>2014-08-08T08:39:12Z</time>
      </trkpt>
      <trkpt lat="44.83275" lon="5.45744">
        <ele>1569.49</ele>
        <time>2014-08-08T08:39:27Z</time>
      </trkpt>
      <trkpt lat="44.83278" lon="5.45759">
        <ele>1571.41</ele>
        <time>2014-08-08T08:39:38Z</time>
      </trkpt>
      <trkpt lat="44.83279" lon="5.45767">
        <ele>1572.37</ele>
        <time>2014-08-08T08:39:44Z</time>
      </trkpt>
      <trkpt lat="44.83281" lon="5.45795">
        <ele>1572.85</ele>
        <time>2014-08-08T08:40:01Z</time>
      </trkpt>
      <trkpt lat="44.83281" lon="5.45812">
        <ele>1574.78</ele>
        <time>2014-08-08T08:40:13Z</time>
      </trkpt>
      <trkpt lat="44.83278" lon="5.45832">
        <ele>1575.26</ele>
        <time>2014-08-08T08:40:26Z</time>
      </trkpt>
      <trkpt lat="44.83275" lon="5.45838">
        <ele>1576.22</ele>
        <time>2014-08-08T08:40:38Z</time>
      </trkpt>
      <trkpt lat="44.83273" lon="5.45835">
        <ele>1575.26</ele>
        <time>2014-08-08T08:40:59Z</time>
      </trkpt>
      <trkpt lat="44.83277" lon="5.45836">
        <ele>1576.7</ele>
        <time>2014-08-08T08:41:14Z</time>
      </trkpt>
      <trkpt lat="44.83274" lon="5.45832">
        <ele>1576.22</ele>
        <time>2014-08-08T08:41:38Z</time>
      </trkpt>
      <trkpt lat="44.83274" lon="5.45832">
        <ele>1576.22</ele>
        <time>2014-08-08T08:42:00Z</time>
      </trkpt>
      <trkpt lat="44.83276" lon="5.45834">
        <ele>1576.22</ele>
        <time>2014-08-08T08:42:25Z</time>
      </trkpt>
      <trkpt lat="44.83276" lon="5.45836">
        <ele>1576.22</ele>
        <time>2014-08-08T08:42:49Z</time>
      </trkpt>
      <trkpt lat="44.83276" lon="5.45837">
        <ele>1576.22</ele>
        <time>2014-08-08T08:43:13Z</time>
      </trkpt>
      <trkpt lat="44.83275" lon="5.45835">
        <ele>1576.7</ele>
        <time>2014-08-08T08:43:38Z</time>
      </trkpt>
      <trkpt lat="44.83276" lon="5.4584">
        <ele>1576.7</ele>
        <time>2014-08-08T08:43:57Z</time>
      </trkpt>
      <trkpt lat="44.83274" lon="5.45839">
        <ele>1577.66</ele>
        <time>2014-08-08T08:44:22Z</time>
      </trkpt>
      <trkpt lat="44.83274" lon="5.45837">
        <ele>1577.18</ele>
        <time>2014-08-08T08:44:51Z</time>
      </trkpt>
      <trkpt lat="44.83277" lon="5.45841">
        <ele>1576.7</ele>
        <time>2014-08-08T08:45:20Z</time>
      </trkpt>
      <trkpt lat="44.83276" lon="5.45844">
        <ele>1576.22</ele>
        <time>2014-08-08T08:45:46Z</time>
      </trkpt>
      <trkpt lat="44.83277" lon="5.45844">
        <ele>1577.66</ele>
        <time>2014-08-08T08:46:10Z</time>
      </trkpt>
      <trkpt lat="44.83276" lon="5.45856">
        <ele>1577.66</ele>
        <time>2014-08-08T08:46:30Z</time>
      </trkpt>
      <trkpt lat="44.83274" lon="5.45874">
        <ele>1579.1</ele>
        <time>2014-08-08T08:46:44Z</time>
      </trkpt>
      <trkpt lat="44.83273" lon="5.45878">
        <ele>1578.62</ele>
        <time>2014-08-08T08:46:47Z</time>
      </trkpt>
      <trkpt lat="44.8327" lon="5.45896">
        <ele>1579.58</ele>
        <time>2014-08-08T08:47:02Z</time>
      </trkpt>
      <trkpt lat="44.83268" lon="5.45914">
        <ele>1581.51</ele>
        <time>2014-08-08T08:47:16Z</time>
      </trkpt>
      <trkpt lat="44.83267" lon="5.4592">
        <ele>1581.99</ele>
        <time>2014-08-08T08:47:20Z</time>
      </trkpt>
      <trkpt lat="44.83266" lon="5.45936">
        <ele>1583.91</ele>
        <time>2014-08-08T08:47:36Z</time>
      </trkpt>
      <trkpt lat="44.83265" lon="5.45953">
        <ele>1585.35</ele>
        <time>2014-08-08T08:47:48Z</time>
      </trkpt>
      <trkpt lat="44.83266" lon="5.45958">
        <ele>1585.35</ele>
        <time>2014-08-08T08:47:52Z</time>
      </trkpt>
      <trkpt lat="44.83265" lon="5.45961">
        <ele>1585.83</ele>
        <time>2014-08-08T08:47:54Z</time>
      </trkpt>
      <trkpt lat="44.83264" lon="5.45981">
        <ele>1587.75</ele>
        <time>2014-08-08T08:48:07Z</time>
      </trkpt>
      <trkpt lat="44.83263" lon="5.46002">
        <ele>1586.79</ele>
        <time>2014-08-08T08:48:23Z</time>
      </trkpt>
      <trkpt lat="44.83262" lon="5.46017">
        <ele>1587.75</ele>
        <time>2014-08-08T08:48:34Z</time>
      </trkpt>
      <trkpt lat="44.83257" lon="5.4604">
        <ele>1588.72</ele>
        <time>2014-08-08T08:48:48Z</time>
      </trkpt>
      <trkpt lat="44.83253" lon="5.4605">
        <ele>1589.2</ele>
        <time>2014-08-08T08:49:00Z</time>
      </trkpt>
      <trkpt lat="44.83251" lon="5.46057">
        <ele>1589.2</ele>
        <time>2014-08-08T08:49:05Z</time>
      </trkpt>
      <trkpt lat="44.8325" lon="5.46069">
        <ele>1590.16</ele>
        <time>2014-08-08T08:49:13Z</time>
      </trkpt>
      <trkpt lat="44.83245" lon="5.46089">
        <ele>1591.12</ele>
        <time>2014-08-08T08:49:28Z</time>
      </trkpt>
      <trkpt lat="44.83243" lon="5.46106">
        <ele>1592.08</ele>
        <time>2014-08-08T08:49:42Z</time>
      </trkpt>
      <trkpt lat="44.83243" lon="5.46107">
        <ele>1592.08</ele>
        <time>2014-08-08T08:49:43Z</time>
      </trkpt>
      <trkpt lat="44.83238" lon="5.46129">
        <ele>1592.56</ele>
        <time>2014-08-08T08:49:59Z</time>
      </trkpt>
      <trkpt lat="44.83238" lon="5.46131">
        <ele>1592.56</ele>
        <time>2014-08-08T08:50:00Z</time>
      </trkpt>
      <trkpt lat="44.83234" lon="5.46154">
        <ele>1594.48</ele>
        <time>2014-08-08T08:50:15Z</time>
      </trkpt>
      <trkpt lat="44.83228" lon="5.46172">
        <ele>1595.45</ele>
        <time>2014-08-08T08:50:30Z</time>
      </trkpt>
      <trkpt lat="44.83222" lon="5.46193">
        <ele>1596.41</ele>
        <time>2014-08-08T08:50:45Z</time>
      </trkpt>
      <trkpt lat="44.83218" lon="5.46212">
        <ele>1598.81</ele>
        <time>2014-08-08T08:50:58Z</time>
      </trkpt>
      <trkpt lat="44.83212" lon="5.4623">
        <ele>1601.21</ele>
        <time>2014-08-08T08:51:13Z</time>
      </trkpt>
      <trkpt lat="44.83206" lon="5.46241">
        <ele>1602.66</ele>
        <time>2014-08-08T08:51:25Z</time>
      </trkpt>
      <trkpt lat="44.832" lon="5.46252">
        <ele>1604.1</ele>
        <time>2014-08-08T08:51:35Z</time>
      </trkpt>
      <trkpt lat="44.83196" lon="5.46259">
        <ele>1605.06</ele>
        <time>2014-08-08T08:51:43Z</time>
      </trkpt>
      <trkpt lat="44.83194" lon="5.46268">
        <ele>1606.5</ele>
        <time>2014-08-08T08:51:50Z</time>
      </trkpt>
      <trkpt lat="44.83189" lon="5.46288">
        <ele>1609.38</ele>
        <time>2014-08-08T08:52:06Z</time>
      </trkpt>
      <trkpt lat="44.83184" lon="5.46304">
        <ele>1610.35</ele>
        <time>2014-08-08T08:52:18Z</time>
      </trkpt>
      <trkpt lat="44.83183" lon="5.46308">
        <ele>1610.35</ele>
        <time>2014-08-08T08:52:21Z</time>
      </trkpt>
      <trkpt lat="44.83181" lon="5.46317">
        <ele>1610.35</ele>
        <time>2014-08-08T08:52:27Z</time>
      </trkpt>
      <trkpt lat="44.83175" lon="5.46336">
        <ele>1611.31</ele>
        <time>2014-08-08T08:52:41Z</time>
      </trkpt>
      <trkpt lat="44.83169" lon="5.46351">
        <ele>1613.71</ele>
        <time>2014-08-08T08:52:53Z</time>
      </trkpt>
      <trkpt lat="44.83163" lon="5.46371">
        <ele>1614.67</ele>
        <time>2014-08-08T08:53:06Z</time>
      </trkpt>
      <trkpt lat="44.83156" lon="5.4639">
        <ele>1616.11</ele>
        <time>2014-08-08T08:53:20Z</time>
      </trkpt>
      <trkpt lat="44.83152" lon="5.46411">
        <ele>1617.56</ele>
        <time>2014-08-08T08:53:34Z</time>
      </trkpt>
      <trkpt lat="44.8315" lon="5.46419">
        <ele>1617.56</ele>
        <time>2014-08-08T08:53:40Z</time>
      </trkpt>
      <trkpt lat="44.83146" lon="5.46431">
        <ele>1618.52</ele>
        <time>2014-08-08T08:53:47Z</time>
      </trkpt>
      <trkpt lat="44.83139" lon="5.46453">
        <ele>1620.44</ele>
        <time>2014-08-08T08:54:01Z</time>
      </trkpt>
      <trkpt lat="44.83138" lon="5.46475">
        <ele>1623.32</ele>
        <time>2014-08-08T08:54:16Z</time>
      </trkpt>
      <trkpt lat="44.83137" lon="5.46491">
        <ele>1626.69</ele>
        <time>2014-08-08T08:54:28Z</time>
      </trkpt>
      <trkpt lat="44.83138" lon="5.46509">
        <ele>1630.05</ele>
        <time>2014-08-08T08:54:41Z</time>
      </trkpt>
      <trkpt lat="44.83134" lon="5.46531">
        <ele>1632.46</ele>
        <time>2014-08-08T08:54:56Z</time>
      </trkpt>
      <trkpt lat="44.8313" lon="5.46546">
        <ele>1633.42</ele>
        <time>2014-08-08T08:55:09Z</time>
      </trkpt>
      <trkpt lat="44.83132" lon="5.46547">
        <ele>1634.38</ele>
        <time>2014-08-08T08:55:22Z</time>
      </trkpt>
      <trkpt lat="44.83129" lon="5.46567">
        <ele>1634.86</ele>
        <time>2014-08-08T08:55:37Z</time>
      </trkpt>
      <trkpt lat="44.83124" lon="5.46572">
        <ele>1635.82</ele>
        <time>2014-08-08T08:55:50Z</time>
      </trkpt>
      <trkpt lat="44.83123" lon="5.46577">
        <ele>1635.82</ele>
        <time>2014-08-08T08:56:03Z</time>
      </trkpt>
      <trkpt lat="44.8312" lon="5.46591">
        <ele>1636.3</ele>
        <time>2014-08-08T08:56:17Z</time>
      </trkpt>
      <trkpt lat="44.83119" lon="5.46604">
        <ele>1637.74</ele>
        <time>2014-08-08T08:56:30Z</time>
      </trkpt>
      <trkpt lat="44.83116" lon="5.46622">
        <ele>1638.7</ele>
        <time>2014-08-08T08:56:46Z</time>
      </trkpt>
      <trkpt lat="44.83114" lon="5.46631">
        <ele>1639.67</ele>
        <time>2014-08-08T08:56:53Z</time>
      </trkpt>
      <trkpt lat="44.83115" lon="5.46639">
        <ele>1639.19</ele>
        <time>2014-08-08T08:57:00Z</time>
      </trkpt>
      <trkpt lat="44.83117" lon="5.46662">
        <ele>1640.15</ele>
        <time>2014-08-08T08:57:19Z</time>
      </trkpt>
      <trkpt lat="44.83113" lon="5.4667">
        <ele>1639.67</ele>
        <time>2014-08-08T08:57:39Z</time>
      </trkpt>
      <trkpt lat="44.83111" lon="5.46662">
        <ele>1639.19</ele>
        <time>2014-08-08T08:57:58Z</time>
      </trkpt>
      <trkpt lat="44.83115" lon="5.46664">
        <ele>1639.67</ele>
        <time>2014-08-08T08:58:24Z</time>
      </trkpt>
      <trkpt lat="44.83113" lon="5.46667">
        <ele>1639.67</ele>
        <time>2014-08-08T08:58:43Z</time>
      </trkpt>
      <trkpt lat="44.83115" lon="5.4666">
        <ele>1640.15</ele>
        <time>2014-08-08T08:59:05Z</time>
      </trkpt>
      <trkpt lat="44.8311" lon="5.46659">
        <ele>1639.67</ele>
        <time>2014-08-08T08:59:36Z</time>
      </trkpt>
      <trkpt lat="44.83115" lon="5.46679">
        <ele>1640.15</ele>
        <time>2014-08-08T08:59:59Z</time>
      </trkpt>
      <trkpt lat="44.83116" lon="5.46695">
        <ele>1641.59</ele>
        <time>2014-08-08T09:00:14Z</time>
      </trkpt>
      <trkpt lat="44.83115" lon="5.46708">
        <ele>1644.95</ele>
        <time>2014-08-08T09:00:27Z</time>
      </trkpt>
      <trkpt lat="44.8311" lon="5.46725">
        <ele>1645.91</ele>
        <time>2014-08-08T09:00:43Z</time>
      </trkpt>
      <trkpt lat="44.83104" lon="5.46742">
        <ele>1648.32</ele>
        <time>2014-08-08T09:00:59Z</time>
      </trkpt>
      <trkpt lat="44.83099" lon="5.46761">
        <ele>1650.24</ele>
        <time>2014-08-08T09:01:14Z</time>
      </trkpt>
      <trkpt lat="44.83097" lon="5.46773">
        <ele>1651.2</ele>
        <time>2014-08-08T09:01:25Z</time>
      </trkpt>
      <trkpt lat="44.83093" lon="5.46794">
        <ele>1653.6</ele>
        <time>2014-08-08T09:01:42Z</time>
      </trkpt>
      <trkpt lat="44.83089" lon="5.4681">
        <ele>1655.05</ele>
        <time>2014-08-08T09:01:56Z</time>
      </trkpt>
      <trkpt lat="44.83084" lon="5.46826">
        <ele>1657.45</ele>
        <time>2014-08-08T09:02:12Z</time>
      </trkpt>
      <trkpt lat="44.83083" lon="5.4683">
        <ele>1657.45</ele>
        <time>2014-08-08T09:02:15Z</time>
      </trkpt>
      <trkpt lat="44.83079" lon="5.46838">
        <ele>1657.93</ele>
        <time>2014-08-08T09:02:24Z</time>
      </trkpt>
      <trkpt lat="44.83077" lon="5.46856">
        <ele>1658.89</ele>
        <time>2014-08-08T09:02:37Z</time>
      </trkpt>
      <trkpt lat="44.8307" lon="5.46875">
        <ele>1660.81</ele>
        <time>2014-08-08T09:02:51Z</time>
      </trkpt>
      <trkpt lat="44.83062" lon="5.46889">
        <ele>1661.78</ele>
        <time>2014-08-08T09:03:05Z</time>
      </trkpt>
      <trkpt lat="44.83056" lon="5.46916">
        <ele>1661.78</ele>
        <time>2014-08-08T09:03:22Z</time>
      </trkpt>
      <trkpt lat="44.83047" lon="5.46944">
        <ele>1662.74</ele>
        <time>2014-08-08T09:03:43Z</time>
      </trkpt>
      <trkpt lat="44.83043" lon="5.46964">
        <ele>1663.22</ele>
        <time>2014-08-08T09:03:57Z</time>
      </trkpt>
      <trkpt lat="44.83038" lon="5.46986">
        <ele>1663.7</ele>
        <time>2014-08-08T09:04:12Z</time>
      </trkpt>
      <trkpt lat="44.83033" lon="5.46991">
        <ele>1663.7</ele>
        <time>2014-08-08T09:04:18Z</time>
      </trkpt>
      <trkpt lat="44.8303" lon="5.46997">
        <ele>1664.18</ele>
        <time>2014-08-08T09:04:24Z</time>
      </trkpt>
      <trkpt lat="44.83024" lon="5.47009">
        <ele>1665.14</ele>
        <time>2014-08-08T09:04:34Z</time>
      </trkpt>
      <trkpt lat="44.83018" lon="5.47032">
        <ele>1666.1</ele>
        <time>2014-08-08T09:04:49Z</time>
      </trkpt>
      <trkpt lat="44.83015" lon="5.47051">
        <ele>1666.58</ele>
        <time>2014-08-08T09:05:03Z</time>
      </trkpt>
      <trkpt lat="44.83014" lon="5.47073">
        <ele>1665.14</ele>
        <time>2014-08-08T09:05:19Z</time>
      </trkpt>
      <trkpt lat="44.83014" lon="5.47078">
        <ele>1665.62</ele>
        <time>2014-08-08T09:05:37Z</time>
      </trkpt>
      <trkpt lat="44.83014" lon="5.47095">
        <ele>1664.66</ele>
        <time>2014-08-08T09:05:50Z</time>
      </trkpt>
      <trkpt lat="44.83018" lon="5.47123">
        <ele>1663.22</ele>
        <time>2014-08-08T09:06:07Z</time>
      </trkpt>
      <trkpt lat="44.8302" lon="5.47137">
        <ele>1662.74</ele>
        <time>2014-08-08T09:06:17Z</time>
      </trkpt>
      <trkpt lat="44.83016" lon="5.4716">
        <ele>1662.74</ele>
        <time>2014-08-08T09:06:33Z</time>
      </trkpt>
      <trkpt lat="44.83011" lon="5.47178">
        <ele>1663.7</ele>
        <time>2014-08-08T09:06:45Z</time>
      </trkpt>
      <trkpt lat="44.83005" lon="5.47202">
        <ele>1662.74</ele>
        <time>2014-08-08T09:07:02Z</time>
      </trkpt>
      <trkpt lat="44.82996" lon="5.47222">
        <ele>1661.78</ele>
        <time>2014-08-08T09:07:19Z</time>
      </trkpt>
      <trkpt lat="44.82989" lon="5.47241">
        <ele>1660.81</ele>
        <time>2014-08-08T09:07:34Z</time>
      </trkpt>
      <trkpt lat="44.8298" lon="5.4726">
        <ele>1659.37</ele>
        <time>2014-08-08T09:07:51Z</time>
      </trkpt>
      <trkpt lat="44.82979" lon="5.47262">
        <ele>1659.85</ele>
        <time>2014-08-08T09:07:53Z</time>
      </trkpt>
      <trkpt lat="44.82968" lon="5.47281">
        <ele>1658.89</ele>
        <time>2014-08-08T09:08:08Z</time>
      </trkpt>
      <trkpt lat="44.82962" lon="5.47302">
        <ele>1657.93</ele>
        <time>2014-08-08T09:08:22Z</time>
      </trkpt>
      <trkpt lat="44.82961" lon="5.47329">
        <ele>1655.53</ele>
        <time>2014-08-08T09:08:41Z</time>
      </trkpt>
      <trkpt lat="44.82962" lon="5.47348">
        <ele>1654.57</ele>
        <time>2014-08-08T09:08:55Z</time>
      </trkpt>
      <trkpt lat="44.82966" lon="5.47359">
        <ele>1654.09</ele>
        <time>2014-08-08T09:09:02Z</time>
      </trkpt>
      <trkpt lat="44.82968" lon="5.47385">
        <ele>1653.6</ele>
        <time>2014-08-08T09:09:19Z</time>
      </trkpt>
      <trkpt lat="44.8297" lon="5.47408">
        <ele>1652.64</ele>
        <time>2014-08-08T09:09:33Z</time>
      </trkpt>
      <trkpt lat="44.8297" lon="5.47417">
        <ele>1651.68</ele>
        <time>2014-08-08T09:09:48Z</time>
      </trkpt>
      <trkpt lat="44.82975" lon="5.47429">
        <ele>1651.2</ele>
        <time>2014-08-08T09:10:05Z</time>
      </trkpt>
      <trkpt lat="44.82975" lon="5.47449">
        <ele>1648.32</ele>
        <time>2014-08-08T09:10:20Z</time>
      </trkpt>
      <trkpt lat="44.82977" lon="5.47472">
        <ele>1646.88</ele>
        <time>2014-08-08T09:10:37Z</time>
      </trkpt>
      <trkpt lat="44.82977" lon="5.47494">
        <ele>1644.47</ele>
        <time>2014-08-08T09:10:53Z</time>
      </trkpt>
      <trkpt lat="44.82977" lon="5.47512">
        <ele>1643.03</ele>
        <time>2014-08-08T09:11:08Z</time>
      </trkpt>
      <trkpt lat="44.82976" lon="5.47532">
        <ele>1641.59</ele>
        <time>2014-08-08T09:11:24Z</time>
      </trkpt>
      <trkpt lat="44.8297" lon="5.47547">
        <ele>1638.22</ele>
        <time>2014-08-08T09:11:39Z</time>
      </trkpt>
      <trkpt lat="44.82966" lon="5.47566">
        <ele>1634.86</ele>
        <time>2014-08-08T09:12:01Z</time>
      </trkpt>
      <trkpt lat="44.82962" lon="5.47583">
        <ele>1632.94</ele>
        <time>2014-08-08T09:12:16Z</time>
      </trkpt>
      <trkpt lat="44.82957" lon="5.47593">
        <ele>1630.05</ele>
        <time>2014-08-08T09:12:29Z</time>
      </trkpt>
      <trkpt lat="44.82953" lon="5.4761">
        <ele>1628.13</ele>
        <time>2014-08-08T09:12:45Z</time>
      </trkpt>
      <trkpt lat="44.82952" lon="5.47628">
        <ele>1627.17</ele>
        <time>2014-08-08T09:13:00Z</time>
      </trkpt>
      <trkpt lat="44.8295" lon="5.47645">
        <ele>1625.73</ele>
        <time>2014-08-08T09:13:14Z</time>
      </trkpt>
      <trkpt lat="44.82947" lon="5.47658">
        <ele>1625.25</ele>
        <time>2014-08-08T09:13:23Z</time>
      </trkpt>
      <trkpt lat="44.82941" lon="5.47679">
        <ele>1625.25</ele>
        <time>2014-08-08T09:13:37Z</time>
      </trkpt>
      <trkpt lat="44.82937" lon="5.47694">
        <ele>1625.25</ele>
        <time>2014-08-08T09:13:50Z</time>
      </trkpt>
      <trkpt lat="44.82936" lon="5.47699">
        <ele>1625.25</ele>
        <time>2014-08-08T09:13:54Z</time>
      </trkpt>
      <trkpt lat="44.82934" lon="5.4771">
        <ele>1623.8</ele>
        <time>2014-08-08T09:14:02Z</time>
      </trkpt>
      <trkpt lat="44.82927" lon="5.47727">
        <ele>1621.88</ele>
        <time>2014-08-08T09:14:16Z</time>
      </trkpt>
      <trkpt lat="44.82923" lon="5.47747">
        <ele>1622.36</ele>
        <time>2014-08-08T09:14:31Z</time>
      </trkpt>
      <trkpt lat="44.82924" lon="5.47766">
        <ele>1622.84</ele>
        <time>2014-08-08T09:14:45Z</time>
      </trkpt>
      <trkpt lat="44.82925" lon="5.47769">
        <ele>1622.36</ele>
        <time>2014-08-08T09:14:47Z</time>
      </trkpt>
      <trkpt lat="44.82922" lon="5.47792">
        <ele>1621.4</ele>
        <time>2014-08-08T09:15:04Z</time>
      </trkpt>
      <trkpt lat="44.82923" lon="5.478">
        <ele>1620.92</ele>
        <time>2014-08-08T09:15:11Z</time>
      </trkpt>
      <trkpt lat="44.82923" lon="5.47821">
        <ele>1619.48</ele>
        <time>2014-08-08T09:15:25Z</time>
      </trkpt>
      <trkpt lat="44.82925" lon="5.47843">
        <ele>1620.44</ele>
        <time>2014-08-08T09:15:42Z</time>
      </trkpt>
      <trkpt lat="44.8292" lon="5.47863">
        <ele>1621.4</ele>
        <time>2014-08-08T09:15:57Z</time>
      </trkpt>
      <trkpt lat="44.82917" lon="5.47884">
        <ele>1621.4</ele>
        <time>2014-08-08T09:16:13Z</time>
      </trkpt>
      <trkpt lat="44.82919" lon="5.47905">
        <ele>1619.96</ele>
        <time>2014-08-08T09:16:30Z</time>
      </trkpt>
      <trkpt lat="44.82921" lon="5.4792">
        <ele>1619</ele>
        <time>2014-08-08T09:16:43Z</time>
      </trkpt>
      <trkpt lat="44.82923" lon="5.47944">
        <ele>1618.52</ele>
        <time>2014-08-08T09:16:58Z</time>
      </trkpt>
      <trkpt lat="44.82929" lon="5.47964">
        <ele>1617.56</ele>
        <time>2014-08-08T09:17:14Z</time>
      </trkpt>
      <trkpt lat="44.8293" lon="5.47975">
        <ele>1616.11</ele>
        <time>2014-08-08T09:17:28Z</time>
      </trkpt>
      <trkpt lat="44.82929" lon="5.47985">
        <ele>1616.11</ele>
        <time>2014-08-08T09:17:36Z</time>
      </trkpt>
      <trkpt lat="44.82921" lon="5.48001">
        <ele>1614.19</ele>
        <time>2014-08-08T09:17:49Z</time>
      </trkpt>
      <trkpt lat="44.82917" lon="5.48007">
        <ele>1614.67</ele>
        <time>2014-08-08T09:18:04Z</time>
      </trkpt>
      <trkpt lat="44.82913" lon="5.4802">
        <ele>1614.19</ele>
        <time>2014-08-08T09:18:21Z</time>
      </trkpt>
      <trkpt lat="44.82909" lon="5.48029">
        <ele>1615.15</ele>
        <time>2014-08-08T09:18:37Z</time>
      </trkpt>
      <trkpt lat="44.82904" lon="5.48036">
        <ele>1615.15</ele>
        <time>2014-08-08T09:18:52Z</time>
      </trkpt>
      <trkpt lat="44.82898" lon="5.48047">
        <ele>1613.71</ele>
        <time>2014-08-08T09:19:08Z</time>
      </trkpt>
      <trkpt lat="44.82885" lon="5.48057">
        <ele>1613.71</ele>
        <time>2014-08-08T09:19:25Z</time>
      </trkpt>
      <trkpt lat="44.82868" lon="5.48071">
        <ele>1614.19</ele>
        <time>2014-08-08T09:19:43Z</time>
      </trkpt>
      <trkpt lat="44.82858" lon="5.48077">
        <ele>1615.15</ele>
        <time>2014-08-08T09:19:57Z</time>
      </trkpt>
      <trkpt lat="44.82844" lon="5.48084">
        <ele>1614.67</ele>
        <time>2014-08-08T09:20:13Z</time>
      </trkpt>
      <trkpt lat="44.82831" lon="5.48092">
        <ele>1615.15</ele>
        <time>2014-08-08T09:20:28Z</time>
      </trkpt>
      <trkpt lat="44.82819" lon="5.48102">
        <ele>1616.59</ele>
        <time>2014-08-08T09:20:43Z</time>
      </trkpt>
      <trkpt lat="44.82806" lon="5.48113">
        <ele>1615.63</ele>
        <time>2014-08-08T09:20:57Z</time>
      </trkpt>
      <trkpt lat="44.82798" lon="5.48117">
        <ele>1615.63</ele>
        <time>2014-08-08T09:21:05Z</time>
      </trkpt>
      <trkpt lat="44.82789" lon="5.48113">
        <ele>1613.23</ele>
        <time>2014-08-08T09:21:16Z</time>
      </trkpt>
      <trkpt lat="44.82783" lon="5.48114">
        <ele>1612.27</ele>
        <time>2014-08-08T09:21:25Z</time>
      </trkpt>
      <trkpt lat="44.82777" lon="5.48125">
        <ele>1609.86</ele>
        <time>2014-08-08T09:21:38Z</time>
      </trkpt>
      <trkpt lat="44.82763" lon="5.48144">
        <ele>1607.94</ele>
        <time>2014-08-08T09:21:56Z</time>
      </trkpt>
      <trkpt lat="44.8276" lon="5.48146">
        <ele>1607.94</ele>
        <time>2014-08-08T09:22:16Z</time>
      </trkpt>
      <trkpt lat="44.8276" lon="5.48143">
        <ele>1608.42</ele>
        <time>2014-08-08T09:22:44Z</time>
      </trkpt>
      <trkpt lat="44.82762" lon="5.48145">
        <ele>1607.46</ele>
        <time>2014-08-08T09:23:19Z</time>
      </trkpt>
      <trkpt lat="44.82759" lon="5.48143">
        <ele>1608.9</ele>
        <time>2014-08-08T09:23:46Z</time>
      </trkpt>
      <trkpt lat="44.82759" lon="5.48138">
        <ele>1607.94</ele>
        <time>2014-08-08T09:24:12Z</time>
      </trkpt>
      <trkpt lat="44.8276" lon="5.48147">
        <ele>1607.94</ele>
        <time>2014-08-08T09:24:36Z</time>
      </trkpt>
      <trkpt lat="44.82755" lon="5.48166">
        <ele>1604.58</ele>
        <time>2014-08-08T09:24:52Z</time>
      </trkpt>
      <trkpt lat="44.82754" lon="5.48168">
        <ele>1604.58</ele>
        <time>2014-08-08T09:24:53Z</time>
      </trkpt>
      <trkpt lat="44.8275" lon="5.48183">
        <ele>1604.1</ele>
        <time>2014-08-08T09:25:04Z</time>
      </trkpt>
      <trkpt lat="44.82747" lon="5.48189">
        <ele>1603.62</ele>
        <time>2014-08-08T09:25:09Z</time>
      </trkpt>
      <trkpt lat="44.82734" lon="5.48199">
        <ele>1604.58</ele>
        <time>2014-08-08T09:25:23Z</time>
      </trkpt>
      <trkpt lat="44.82731" lon="5.48215">
        <ele>1605.54</ele>
        <time>2014-08-08T09:25:36Z</time>
      </trkpt>
      <trkpt lat="44.8273" lon="5.48234">
        <ele>1606.02</ele>
        <time>2014-08-08T09:25:51Z</time>
      </trkpt>
      <trkpt lat="44.82729" lon="5.48252">
        <ele>1604.58</ele>
        <time>2014-08-08T09:26:05Z</time>
      </trkpt>
      <trkpt lat="44.82726" lon="5.48269">
        <ele>1602.66</ele>
        <time>2014-08-08T09:26:19Z</time>
      </trkpt>
      <trkpt lat="44.82721" lon="5.48273">
        <ele>1602.66</ele>
        <time>2014-08-08T09:26:24Z</time>
      </trkpt>
      <trkpt lat="44.82707" lon="5.48292">
        <ele>1602.17</ele>
        <time>2014-08-08T09:26:43Z</time>
      </trkpt>
      <trkpt lat="44.82699" lon="5.48302">
        <ele>1602.66</ele>
        <time>2014-08-08T09:26:56Z</time>
      </trkpt>
      <trkpt lat="44.82698" lon="5.48314">
        <ele>1603.62</ele>
        <time>2014-08-08T09:27:09Z</time>
      </trkpt>
      <trkpt lat="44.827" lon="5.48315">
        <ele>1603.62</ele>
        <time>2014-08-08T09:27:25Z</time>
      </trkpt>
      <trkpt lat="44.82701" lon="5.48315">
        <ele>1603.14</ele>
        <time>2014-08-08T09:28:00Z</time>
      </trkpt>
      <trkpt lat="44.827" lon="5.48314">
        <ele>1603.62</ele>
        <time>2014-08-08T09:28:32Z</time>
      </trkpt>
      <trkpt lat="44.827" lon="5.48313">
        <ele>1603.62</ele>
        <time>2014-08-08T09:29:00Z</time>
      </trkpt>
      <trkpt lat="44.82702" lon="5.48312">
        <ele>1603.14</ele>
        <time>2014-08-08T09:29:08Z</time>
      </trkpt>
      <trkpt lat="44.82706" lon="5.4831">
        <ele>1603.62</ele>
        <time>2014-08-08T09:29:25Z</time>
      </trkpt>
      <trkpt lat="44.82706" lon="5.48313">
        <ele>1603.62</ele>
        <time>2014-08-08T09:29:42Z</time>
      </trkpt>
      <trkpt lat="44.82702" lon="5.4831">
        <ele>1603.62</ele>
        <time>2014-08-08T09:30:02Z</time>
      </trkpt>
      <trkpt lat="44.82699" lon="5.4831">
        <ele>1602.66</ele>
        <time>2014-08-08T09:30:22Z</time>
      </trkpt>
      <trkpt lat="44.82701" lon="5.48323">
        <ele>1603.14</ele>
        <time>2014-08-08T09:30:42Z</time>
      </trkpt>
      <trkpt lat="44.82708" lon="5.48345">
        <ele>1604.1</ele>
        <time>2014-08-08T09:31:00Z</time>
      </trkpt>
      <trkpt lat="44.82711" lon="5.48366">
        <ele>1605.06</ele>
        <time>2014-08-08T09:31:15Z</time>
      </trkpt>
      <trkpt lat="44.82715" lon="5.4839">
        <ele>1605.06</ele>
        <time>2014-08-08T09:31:32Z</time>
      </trkpt>
      <trkpt lat="44.8272" lon="5.48417">
        <ele>1606.5</ele>
        <time>2014-08-08T09:31:48Z</time>
      </trkpt>
      <trkpt lat="44.82724" lon="5.48443">
        <ele>1606.98</ele>
        <time>2014-08-08T09:32:06Z</time>
      </trkpt>
      <trkpt lat="44.82725" lon="5.48461">
        <ele>1606.98</ele>
        <time>2014-08-08T09:32:20Z</time>
      </trkpt>
      <trkpt lat="44.82725" lon="5.48463">
        <ele>1607.94</ele>
        <time>2014-08-08T09:32:22Z</time>
      </trkpt>
      <trkpt lat="44.82733" lon="5.48481">
        <ele>1608.42</ele>
        <time>2014-08-08T09:32:35Z</time>
      </trkpt>
      <trkpt lat="44.82728" lon="5.48496">
        <ele>1608.42</ele>
        <time>2014-08-08T09:32:50Z</time>
      </trkpt>
      <trkpt lat="44.82727" lon="5.485">
        <ele>1608.9</ele>
        <time>2014-08-08T09:32:54Z</time>
      </trkpt>
      <trkpt lat="44.82729" lon="5.48526">
        <ele>1609.86</ele>
        <time>2014-08-08T09:33:09Z</time>
      </trkpt>
      <trkpt lat="44.82739" lon="5.48556">
        <ele>1610.83</ele>
        <time>2014-08-08T09:33:26Z</time>
      </trkpt>
      <trkpt lat="44.82742" lon="5.48567">
        <ele>1611.31</ele>
        <time>2014-08-08T09:33:33Z</time>
      </trkpt>
      <trkpt lat="44.82748" lon="5.48595">
        <ele>1612.75</ele>
        <time>2014-08-08T09:33:50Z</time>
      </trkpt>
      <trkpt lat="44.82753" lon="5.48606">
        <ele>1612.75</ele>
        <time>2014-08-08T09:34:08Z</time>
      </trkpt>
      <trkpt lat="44.82751" lon="5.48607">
        <ele>1612.27</ele>
        <time>2014-08-08T09:34:26Z</time>
      </trkpt>
      <trkpt lat="44.8275" lon="5.48608">
        <ele>1612.27</ele>
        <time>2014-08-08T09:34:45Z</time>
      </trkpt>
      <trkpt lat="44.82752" lon="5.48607">
        <ele>1612.27</ele>
        <time>2014-08-08T09:35:06Z</time>
      </trkpt>
      <trkpt lat="44.82751" lon="5.48615">
        <ele>1612.27</ele>
        <time>2014-08-08T09:35:24Z</time>
      </trkpt>
      <trkpt lat="44.82751" lon="5.48648">
        <ele>1613.71</ele>
        <time>2014-08-08T09:35:44Z</time>
      </trkpt>
      <trkpt lat="44.82755" lon="5.48679">
        <ele>1615.15</ele>
        <time>2014-08-08T09:36:02Z</time>
      </trkpt>
      <trkpt lat="44.82754" lon="5.48703">
        <ele>1618.52</ele>
        <time>2014-08-08T09:36:17Z</time>
      </trkpt>
      <trkpt lat="44.82759" lon="5.48722">
        <ele>1621.4</ele>
        <time>2014-08-08T09:36:32Z</time>
      </trkpt>
      <trkpt lat="44.8276" lon="5.48725">
        <ele>1621.88</ele>
        <time>2014-08-08T09:36:34Z</time>
      </trkpt>
      <trkpt lat="44.82767" lon="5.48741">
        <ele>1625.73</ele>
        <time>2014-08-08T09:36:46Z</time>
      </trkpt>
      <trkpt lat="44.82773" lon="5.48756">
        <ele>1629.09</ele>
        <time>2014-08-08T09:36:59Z</time>
      </trkpt>
      <trkpt lat="44.82781" lon="5.48766">
        <ele>1632.46</ele>
        <time>2014-08-08T09:37:11Z</time>
      </trkpt>
      <trkpt lat="44.82793" lon="5.48776">
        <ele>1634.38</ele>
        <time>2014-08-08T09:37:27Z</time>
      </trkpt>
      <trkpt lat="44.82802" lon="5.48786">
        <ele>1635.82</ele>
        <time>2014-08-08T09:37:44Z</time>
      </trkpt>
      <trkpt lat="44.82809" lon="5.48793">
        <ele>1636.3</ele>
        <time>2014-08-08T09:38:00Z</time>
      </trkpt>
      <trkpt lat="44.82809" lon="5.48795">
        <ele>1636.3</ele>
        <time>2014-08-08T09:38:21Z</time>
      </trkpt>
      <trkpt lat="44.8281" lon="5.48798">
        <ele>1636.78</ele>
        <time>2014-08-08T09:38:42Z</time>
      </trkpt>
      <trkpt lat="44.8281" lon="5.48797">
        <ele>1636.3</ele>
        <time>2014-08-08T09:39:04Z</time>
      </trkpt>
      <trkpt lat="44.82811" lon="5.48795">
        <ele>1636.78</ele>
        <time>2014-08-08T09:39:30Z</time>
      </trkpt>
      <trkpt lat="44.82809" lon="5.4881">
        <ele>1637.26</ele>
        <time>2014-08-08T09:39:46Z</time>
      </trkpt>
      <trkpt lat="44.82812" lon="5.48824">
        <ele>1641.11</ele>
        <time>2014-08-08T09:39:58Z</time>
      </trkpt>
      <trkpt lat="44.82812" lon="5.48826">
        <ele>1641.59</ele>
        <time>2014-08-08T09:39:59Z</time>
      </trkpt>
      <trkpt lat="44.82816" lon="5.48844">
        <ele>1644.47</ele>
        <time>2014-08-08T09:40:15Z</time>
      </trkpt>
      <trkpt lat="44.82819" lon="5.48861">
        <ele>1646.4</ele>
        <time>2014-08-08T09:40:30Z</time>
      </trkpt>
      <trkpt lat="44.82826" lon="5.4887">
        <ele>1648.8</ele>
        <time>2014-08-08T09:40:43Z</time>
      </trkpt>
      <trkpt lat="44.8283" lon="5.48884">
        <ele>1649.28</ele>
        <time>2014-08-08T09:41:06Z</time>
      </trkpt>
      <trkpt lat="44.82831" lon="5.489">
        <ele>1652.16</ele>
        <time>2014-08-08T09:41:19Z</time>
      </trkpt>
      <trkpt lat="44.82835" lon="5.48918">
        <ele>1654.57</ele>
        <time>2014-08-08T09:41:34Z</time>
      </trkpt>
      <trkpt lat="44.82837" lon="5.48929">
        <ele>1657.45</ele>
        <time>2014-08-08T09:41:47Z</time>
      </trkpt>
      <trkpt lat="44.82838" lon="5.48945">
        <ele>1658.89</ele>
        <time>2014-08-08T09:42:04Z</time>
      </trkpt>
      <trkpt lat="44.82834" lon="5.48954">
        <ele>1661.78</ele>
        <time>2014-08-08T09:42:16Z</time>
      </trkpt>
      <trkpt lat="44.8283" lon="5.48958">
        <ele>1662.26</ele>
        <time>2014-08-08T09:42:29Z</time>
      </trkpt>
      <trkpt lat="44.82827" lon="5.48971">
        <ele>1663.22</ele>
        <time>2014-08-08T09:42:45Z</time>
      </trkpt>
      <trkpt lat="44.82827" lon="5.48968">
        <ele>1663.22</ele>
        <time>2014-08-08T09:43:05Z</time>
      </trkpt>
      <trkpt lat="44.82831" lon="5.48972">
        <ele>1663.7</ele>
        <time>2014-08-08T09:43:34Z</time>
      </trkpt>
      <trkpt lat="44.82838" lon="5.48996">
        <ele>1663.22</ele>
        <time>2014-08-08T09:43:52Z</time>
      </trkpt>
      <trkpt lat="44.82837" lon="5.49">
        <ele>1663.7</ele>
        <time>2014-08-08T09:44:05Z</time>
      </trkpt>
      <trkpt lat="44.82837" lon="5.49014">
        <ele>1665.14</ele>
        <time>2014-08-08T09:44:13Z</time>
      </trkpt>
      <trkpt lat="44.82841" lon="5.49024">
        <ele>1668.02</ele>
        <time>2014-08-08T09:44:21Z</time>
      </trkpt>
      <trkpt lat="44.82847" lon="5.49039">
        <ele>1669.47</ele>
        <time>2014-08-08T09:44:36Z</time>
      </trkpt>
      <trkpt lat="44.82852" lon="5.49047">
        <ele>1672.35</ele>
        <time>2014-08-08T09:44:45Z</time>
      </trkpt>
      <trkpt lat="44.82855" lon="5.49063">
        <ele>1675.23</ele>
        <time>2014-08-08T09:45:00Z</time>
      </trkpt>
      <trkpt lat="44.82855" lon="5.49072">
        <ele>1676.2</ele>
        <time>2014-08-08T09:45:16Z</time>
      </trkpt>
      <trkpt lat="44.82851" lon="5.49082">
        <ele>1679.08</ele>
        <time>2014-08-08T09:45:29Z</time>
      </trkpt>
      <trkpt lat="44.82852" lon="5.49094">
        <ele>1679.56</ele>
        <time>2014-08-08T09:45:45Z</time>
      </trkpt>
      <trkpt lat="44.82856" lon="5.49105">
        <ele>1681.48</ele>
        <time>2014-08-08T09:46:00Z</time>
      </trkpt>
      <trkpt lat="44.82862" lon="5.49123">
        <ele>1681.48</ele>
        <time>2014-08-08T09:46:15Z</time>
      </trkpt>
      <trkpt lat="44.82863" lon="5.49129">
        <ele>1682.93</ele>
        <time>2014-08-08T09:46:21Z</time>
      </trkpt>
      <trkpt lat="44.82869" lon="5.49132">
        <ele>1682.93</ele>
        <time>2014-08-08T09:46:39Z</time>
      </trkpt>
      <trkpt lat="44.82879" lon="5.49146">
        <ele>1684.85</ele>
        <time>2014-08-08T09:46:55Z</time>
      </trkpt>
      <trkpt lat="44.82889" lon="5.49157">
        <ele>1687.25</ele>
        <time>2014-08-08T09:47:12Z</time>
      </trkpt>
      <trkpt lat="44.82898" lon="5.49171">
        <ele>1687.25</ele>
        <time>2014-08-08T09:47:29Z</time>
      </trkpt>
      <trkpt lat="44.82905" lon="5.49181">
        <ele>1688.21</ele>
        <time>2014-08-08T09:47:43Z</time>
      </trkpt>
      <trkpt lat="44.82909" lon="5.49187">
        <ele>1689.17</ele>
        <time>2014-08-08T09:47:56Z</time>
      </trkpt>
      <trkpt lat="44.82918" lon="5.49195">
        <ele>1691.58</ele>
        <time>2014-08-08T09:48:12Z</time>
      </trkpt>
      <trkpt lat="44.82922" lon="5.49205">
        <ele>1693.02</ele>
        <time>2014-08-08T09:48:28Z</time>
      </trkpt>
      <trkpt lat="44.82928" lon="5.4921">
        <ele>1693.02</ele>
        <time>2014-08-08T09:48:43Z</time>
      </trkpt>
      <trkpt lat="44.8293" lon="5.49222">
        <ele>1693.02</ele>
        <time>2014-08-08T09:49:00Z</time>
      </trkpt>
      <trkpt lat="44.8294" lon="5.49235">
        <ele>1693.02</ele>
        <time>2014-08-08T09:49:17Z</time>
      </trkpt>
      <trkpt lat="44.82944" lon="5.49241">
        <ele>1692.06</ele>
        <time>2014-08-08T09:49:31Z</time>
      </trkpt>
      <trkpt lat="44.82951" lon="5.49256">
        <ele>1693.5</ele>
        <time>2014-08-08T09:49:46Z</time>
      </trkpt>
      <trkpt lat="44.82952" lon="5.49265">
        <ele>1693.98</ele>
        <time>2014-08-08T09:50:01Z</time>
      </trkpt>
      <trkpt lat="44.82957" lon="5.49273">
        <ele>1693.5</ele>
        <time>2014-08-08T09:50:19Z</time>
      </trkpt>
      <trkpt lat="44.82954" lon="5.4927">
        <ele>1693.5</ele>
        <time>2014-08-08T09:50:40Z</time>
      </trkpt>
      <trkpt lat="44.82955" lon="5.49265">
        <ele>1694.46</ele>
        <time>2014-08-08T09:50:56Z</time>
      </trkpt>
      <trkpt lat="44.82957" lon="5.49267">
        <ele>1694.46</ele>
        <time>2014-08-08T09:51:17Z</time>
      </trkpt>
      <trkpt lat="44.82954" lon="5.49266">
        <ele>1694.46</ele>
        <time>2014-08-08T09:51:48Z</time>
      </trkpt>
      <trkpt lat="44.82954" lon="5.49268">
        <ele>1694.94</ele>
        <time>2014-08-08T09:52:23Z</time>
      </trkpt>
      <trkpt lat="44.82951" lon="5.49272">
        <ele>1694.94</ele>
        <time>2014-08-08T09:52:57Z</time>
      </trkpt>
      <trkpt lat="44.8296" lon="5.49277">
        <ele>1694.46</ele>
        <time>2014-08-08T09:53:23Z</time>
      </trkpt>
      <trkpt lat="44.82967" lon="5.49292">
        <ele>1693.98</ele>
        <time>2014-08-08T09:53:38Z</time>
      </trkpt>
      <trkpt lat="44.82983" lon="5.49306">
        <ele>1693.02</ele>
        <time>2014-08-08T09:53:56Z</time>
      </trkpt>
      <trkpt lat="44.82995" lon="5.49327">
        <ele>1693.98</ele>
        <time>2014-08-08T09:54:15Z</time>
      </trkpt>
      <trkpt lat="44.83008" lon="5.49349">
        <ele>1693.02</ele>
        <time>2014-08-08T09:54:34Z</time>
      </trkpt>
      <trkpt lat="44.83013" lon="5.49354">
        <ele>1692.54</ele>
        <time>2014-08-08T09:54:39Z</time>
      </trkpt>
      <trkpt lat="44.83025" lon="5.49374">
        <ele>1693.02</ele>
        <time>2014-08-08T09:54:57Z</time>
      </trkpt>
      <trkpt lat="44.83033" lon="5.49391">
        <ele>1694.46</ele>
        <time>2014-08-08T09:55:11Z</time>
      </trkpt>
      <trkpt lat="44.83044" lon="5.49419">
        <ele>1693.98</ele>
        <time>2014-08-08T09:55:30Z</time>
      </trkpt>
      <trkpt lat="44.83048" lon="5.49431">
        <ele>1693.98</ele>
        <time>2014-08-08T09:55:37Z</time>
      </trkpt>
      <trkpt lat="44.83052" lon="5.4945">
        <ele>1693.5</ele>
        <time>2014-08-08T09:55:50Z</time>
      </trkpt>
      <trkpt lat="44.83063" lon="5.49469">
        <ele>1694.94</ele>
        <time>2014-08-08T09:56:07Z</time>
      </trkpt>
      <trkpt lat="44.83074" lon="5.49489">
        <ele>1696.86</ele>
        <time>2014-08-08T09:56:24Z</time>
      </trkpt>
      <trkpt lat="44.83084" lon="5.49511">
        <ele>1696.38</ele>
        <time>2014-08-08T09:56:41Z</time>
      </trkpt>
      <trkpt lat="44.83096" lon="5.49528">
        <ele>1696.86</ele>
        <time>2014-08-08T09:56:57Z</time>
      </trkpt>
      <trkpt lat="44.83106" lon="5.49535">
        <ele>1696.86</ele>
        <time>2014-08-08T09:57:10Z</time>
      </trkpt>
      <trkpt lat="44.83117" lon="5.49542">
        <ele>1697.83</ele>
        <time>2014-08-08T09:57:24Z</time>
      </trkpt>
      <trkpt lat="44.83122" lon="5.49546">
        <ele>1698.31</ele>
        <time>2014-08-08T09:57:30Z</time>
      </trkpt>
      <trkpt lat="44.83136" lon="5.49563">
        <ele>1698.79</ele>
        <time>2014-08-08T09:57:48Z</time>
      </trkpt>
      <trkpt lat="44.83149" lon="5.49578">
        <ele>1699.75</ele>
        <time>2014-08-08T09:58:05Z</time>
      </trkpt>
      <trkpt lat="44.83161" lon="5.49593">
        <ele>1701.67</ele>
        <time>2014-08-08T09:58:23Z</time>
      </trkpt>
      <trkpt lat="44.83162" lon="5.49596">
        <ele>1702.15</ele>
        <time>2014-08-08T09:58:25Z</time>
      </trkpt>
      <trkpt lat="44.83164" lon="5.49625">
        <ele>1702.63</ele>
        <time>2014-08-08T09:58:43Z</time>
      </trkpt>
      <trkpt lat="44.83173" lon="5.49646">
        <ele>1705.04</ele>
        <time>2014-08-08T09:59:03Z</time>
      </trkpt>
      <trkpt lat="44.83183" lon="5.49658">
        <ele>1706.48</ele>
        <time>2014-08-08T09:59:17Z</time>
      </trkpt>
      <trkpt lat="44.83191" lon="5.49674">
        <ele>1708.4</ele>
        <time>2014-08-08T09:59:31Z</time>
      </trkpt>
      <trkpt lat="44.83194" lon="5.49685">
        <ele>1708.4</ele>
        <time>2014-08-08T09:59:38Z</time>
      </trkpt>
      <trkpt lat="44.83206" lon="5.49707">
        <ele>1711.76</ele>
        <time>2014-08-08T09:59:57Z</time>
      </trkpt>
      <trkpt lat="44.83214" lon="5.49725">
        <ele>1714.65</ele>
        <time>2014-08-08T10:00:12Z</time>
      </trkpt>
      <trkpt lat="44.83216" lon="5.49744">
        <ele>1718.01</ele>
        <time>2014-08-08T10:00:26Z</time>
      </trkpt>
      <trkpt lat="44.83222" lon="5.49758">
        <ele>1719.46</ele>
        <time>2014-08-08T10:00:40Z</time>
      </trkpt>
      <trkpt lat="44.83228" lon="5.4977">
        <ele>1720.42</ele>
        <time>2014-08-08T10:00:56Z</time>
      </trkpt>
      <trkpt lat="44.83235" lon="5.49784">
        <ele>1722.34</ele>
        <time>2014-08-08T10:01:11Z</time>
      </trkpt>
      <trkpt lat="44.83244" lon="5.49803">
        <ele>1723.78</ele>
        <time>2014-08-08T10:01:28Z</time>
      </trkpt>
      <trkpt lat="44.83248" lon="5.49815">
        <ele>1725.7</ele>
        <time>2014-08-08T10:01:43Z</time>
      </trkpt>
      <trkpt lat="44.83255" lon="5.49831">
        <ele>1728.59</ele>
        <time>2014-08-08T10:01:57Z</time>
      </trkpt>
      <trkpt lat="44.83261" lon="5.49844">
        <ele>1731.95</ele>
        <time>2014-08-08T10:02:11Z</time>
      </trkpt>
      <trkpt lat="44.83267" lon="5.49857">
        <ele>1733.88</ele>
        <time>2014-08-08T10:02:25Z</time>
      </trkpt>
      <trkpt lat="44.83273" lon="5.49873">
        <ele>1733.88</ele>
        <time>2014-08-08T10:02:42Z</time>
      </trkpt>
      <trkpt lat="44.83281" lon="5.4989">
        <ele>1734.36</ele>
        <time>2014-08-08T10:02:55Z</time>
      </trkpt>
      <trkpt lat="44.83282" lon="5.49895">
        <ele>1734.84</ele>
        <time>2014-08-08T10:02:58Z</time>
      </trkpt>
      <trkpt lat="44.83289" lon="5.4992">
        <ele>1735.8</ele>
        <time>2014-08-08T10:03:17Z</time>
      </trkpt>
      <trkpt lat="44.83294" lon="5.49933">
        <ele>1736.28</ele>
        <time>2014-08-08T10:03:31Z</time>
      </trkpt>
      <trkpt lat="44.83303" lon="5.49953">
        <ele>1737.72</ele>
        <time>2014-08-08T10:03:46Z</time>
      </trkpt>
      <trkpt lat="44.83317" lon="5.49968">
        <ele>1740.12</ele>
        <time>2014-08-08T10:04:04Z</time>
      </trkpt>
      <trkpt lat="44.83323" lon="5.49986">
        <ele>1741.57</ele>
        <time>2014-08-08T10:04:18Z</time>
      </trkpt>
      <trkpt lat="44.83332" lon="5.50001">
        <ele>1742.53</ele>
        <time>2014-08-08T10:04:35Z</time>
      </trkpt>
      <trkpt lat="44.83335" lon="5.50014">
        <ele>1742.53</ele>
        <time>2014-08-08T10:04:45Z</time>
      </trkpt>
      <trkpt lat="44.83335" lon="5.50022">
        <ele>1741.57</ele>
        <time>2014-08-08T10:05:00Z</time>
      </trkpt>
      <trkpt lat="44.83338" lon="5.50027">
        <ele>1743.97</ele>
        <time>2014-08-08T10:05:15Z</time>
      </trkpt>
      <trkpt lat="44.83339" lon="5.50028">
        <ele>1743.49</ele>
        <time>2014-08-08T10:05:39Z</time>
      </trkpt>
      <trkpt lat="44.83336" lon="5.50026">
        <ele>1743.49</ele>
        <time>2014-08-08T10:05:58Z</time>
      </trkpt>
      <trkpt lat="44.83338" lon="5.50024">
        <ele>1744.93</ele>
        <time>2014-08-08T10:06:23Z</time>
      </trkpt>
      <trkpt lat="44.8334" lon="5.50022">
        <ele>1744.45</ele>
        <time>2014-08-08T10:06:55Z</time>
      </trkpt>
      <trkpt lat="44.83341" lon="5.50024">
        <ele>1744.45</ele>
        <time>2014-08-08T10:07:18Z</time>
      </trkpt>
      <trkpt lat="44.83343" lon="5.50012">
        <ele>1743.97</ele>
        <time>2014-08-08T10:07:49Z</time>
      </trkpt>
      <trkpt lat="44.8334" lon="5.5002">
        <ele>1744.93</ele>
        <time>2014-08-08T10:08:18Z</time>
      </trkpt>
      <trkpt lat="44.83341" lon="5.50025">
        <ele>1743.97</ele>
        <time>2014-08-08T10:08:36Z</time>
      </trkpt>
      <trkpt lat="44.83339" lon="5.50029">
        <ele>1744.93</ele>
        <time>2014-08-08T10:08:50Z</time>
      </trkpt>
      <trkpt lat="44.83341" lon="5.50023">
        <ele>1744.45</ele>
        <time>2014-08-08T10:09:11Z</time>
      </trkpt>
      <trkpt lat="44.83341" lon="5.50025">
        <ele>1744.93</ele>
        <time>2014-08-08T10:09:46Z</time>
      </trkpt>
      <trkpt lat="44.83341" lon="5.50027">
        <ele>1745.41</ele>
        <time>2014-08-08T10:10:14Z</time>
      </trkpt>
      <trkpt lat="44.83341" lon="5.50031">
        <ele>1744.93</ele>
        <time>2014-08-08T10:10:41Z</time>
      </trkpt>
      <trkpt lat="44.8334" lon="5.5003">
        <ele>1744.93</ele>
        <time>2014-08-08T10:11:03Z</time>
      </trkpt>
      <trkpt lat="44.83339" lon="5.50035">
        <ele>1745.89</ele>
        <time>2014-08-08T10:11:30Z</time>
      </trkpt>
      <trkpt lat="44.83339" lon="5.50033">
        <ele>1745.89</ele>
        <time>2014-08-08T10:11:49Z</time>
      </trkpt>
      <trkpt lat="44.83342" lon="5.50042">
        <ele>1745.89</ele>
        <time>2014-08-08T10:12:11Z</time>
      </trkpt>
      <trkpt lat="44.83347" lon="5.5004">
        <ele>1747.33</ele>
        <time>2014-08-08T10:12:30Z</time>
      </trkpt>
      <trkpt lat="44.83348" lon="5.50042">
        <ele>1746.85</ele>
        <time>2014-08-08T10:12:53Z</time>
      </trkpt>
      <trkpt lat="44.83354" lon="5.50047">
        <ele>1749.26</ele>
        <time>2014-08-08T10:13:17Z</time>
      </trkpt>
      <trkpt lat="44.83364" lon="5.50061">
        <ele>1750.7</ele>
        <time>2014-08-08T10:13:32Z</time>
      </trkpt>
      <trkpt lat="44.83371" lon="5.50081">
        <ele>1750.22</ele>
        <time>2014-08-08T10:13:49Z</time>
      </trkpt>
      <trkpt lat="44.83378" lon="5.50092">
        <ele>1751.66</ele>
        <time>2014-08-08T10:13:58Z</time>
      </trkpt>
      <trkpt lat="44.83387" lon="5.50105">
        <ele>1753.1</ele>
        <time>2014-08-08T10:14:09Z</time>
      </trkpt>
      <trkpt lat="44.83397" lon="5.50129">
        <ele>1754.06</ele>
        <time>2014-08-08T10:14:28Z</time>
      </trkpt>
      <trkpt lat="44.83412" lon="5.50143">
        <ele>1754.54</ele>
        <time>2014-08-08T10:14:45Z</time>
      </trkpt>
      <trkpt lat="44.83413" lon="5.50144">
        <ele>1754.54</ele>
        <time>2014-08-08T10:14:46Z</time>
      </trkpt>
      <trkpt lat="44.83425" lon="5.50159">
        <ele>1757.43</ele>
        <time>2014-08-08T10:15:02Z</time>
      </trkpt>
      <trkpt lat="44.83436" lon="5.50173">
        <ele>1759.83</ele>
        <time>2014-08-08T10:15:18Z</time>
      </trkpt>
      <trkpt lat="44.8345" lon="5.5019">
        <ele>1761.75</ele>
        <time>2014-08-08T10:15:34Z</time>
      </trkpt>
      <trkpt lat="44.83458" lon="5.50203">
        <ele>1764.16</ele>
        <time>2014-08-08T10:15:44Z</time>
      </trkpt>
      <trkpt lat="44.83465" lon="5.50216">
        <ele>1768</ele>
        <time>2014-08-08T10:15:57Z</time>
      </trkpt>
      <trkpt lat="44.83471" lon="5.50234">
        <ele>1771.37</ele>
        <time>2014-08-08T10:16:11Z</time>
      </trkpt>
      <trkpt lat="44.83475" lon="5.50246">
        <ele>1772.33</ele>
        <time>2014-08-08T10:16:21Z</time>
      </trkpt>
      <trkpt lat="44.83488" lon="5.50263">
        <ele>1774.73</ele>
        <time>2014-08-08T10:16:36Z</time>
      </trkpt>
      <trkpt lat="44.83492" lon="5.50272">
        <ele>1775.69</ele>
        <time>2014-08-08T10:16:44Z</time>
      </trkpt>
      <trkpt lat="44.83493" lon="5.50274">
        <ele>1776.17</ele>
        <time>2014-08-08T10:17:02Z</time>
      </trkpt>
      <trkpt lat="44.83498" lon="5.5028">
        <ele>1777.13</ele>
        <time>2014-08-08T10:17:08Z</time>
      </trkpt>
      <trkpt lat="44.83509" lon="5.50292">
        <ele>1779.06</ele>
        <time>2014-08-08T10:17:20Z</time>
      </trkpt>
      <trkpt lat="44.83511" lon="5.50294">
        <ele>1779.54</ele>
        <time>2014-08-08T10:17:22Z</time>
      </trkpt>
      <trkpt lat="44.83523" lon="5.50312">
        <ele>1781.94</ele>
        <time>2014-08-08T10:17:38Z</time>
      </trkpt>
      <trkpt lat="44.83535" lon="5.50333">
        <ele>1783.38</ele>
        <time>2014-08-08T10:17:54Z</time>
      </trkpt>
      <trkpt lat="44.83548" lon="5.50353">
        <ele>1784.82</ele>
        <time>2014-08-08T10:18:11Z</time>
      </trkpt>
      <trkpt lat="44.83558" lon="5.50363">
        <ele>1786.27</ele>
        <time>2014-08-08T10:18:26Z</time>
      </trkpt>
      <trkpt lat="44.83568" lon="5.50355">
        <ele>1788.19</ele>
        <time>2014-08-08T10:18:40Z</time>
      </trkpt>
      <trkpt lat="44.83572" lon="5.50353">
        <ele>1788.19</ele>
        <time>2014-08-08T10:18:57Z</time>
      </trkpt>
      <trkpt lat="44.83574" lon="5.50354">
        <ele>1788.19</ele>
        <time>2014-08-08T10:19:15Z</time>
      </trkpt>
      <trkpt lat="44.83574" lon="5.50354">
        <ele>1789.15</ele>
        <time>2014-08-08T10:19:37Z</time>
      </trkpt>
      <trkpt lat="44.8357" lon="5.50353">
        <ele>1787.71</ele>
        <time>2014-08-08T10:20:03Z</time>
      </trkpt>
      <trkpt lat="44.83572" lon="5.50352">
        <ele>1789.15</ele>
        <time>2014-08-08T10:20:25Z</time>
      </trkpt>
      <trkpt lat="44.83572" lon="5.50353">
        <ele>1789.15</ele>
        <time>2014-08-08T10:20:26Z</time>
      </trkpt>
      <trkpt lat="44.83572" lon="5.50352">
        <ele>1788.67</ele>
        <time>2014-08-08T10:20:54Z</time>
      </trkpt>
      <trkpt lat="44.83572" lon="5.50354">
        <ele>1788.19</ele>
        <time>2014-08-08T10:21:25Z</time>
      </trkpt>
      <trkpt lat="44.83569" lon="5.50355">
        <ele>1788.67</ele>
        <time>2014-08-08T10:21:39Z</time>
      </trkpt>
      <trkpt lat="44.83571" lon="5.50353">
        <ele>1788.67</ele>
        <time>2014-08-08T10:21:51Z</time>
      </trkpt>
      <trkpt lat="44.83571" lon="5.50351">
        <ele>1788.67</ele>
        <time>2014-08-08T10:22:08Z</time>
      </trkpt>
      <trkpt lat="44.83576" lon="5.50345">
        <ele>1788.67</ele>
        <time>2014-08-08T10:22:20Z</time>
      </trkpt>
      <trkpt lat="44.83577" lon="5.50343">
        <ele>1788.19</ele>
        <time>2014-08-08T10:22:22Z</time>
      </trkpt>
      <trkpt lat="44.83579" lon="5.50336">
        <ele>1789.15</ele>
        <time>2014-08-08T10:22:33Z</time>
      </trkpt>
      <trkpt lat="44.83578" lon="5.50333">
        <ele>1789.15</ele>
        <time>2014-08-08T10:22:38Z</time>
      </trkpt>
      <trkpt lat="44.83583" lon="5.50325">
        <ele>1789.63</ele>
        <time>2014-08-08T10:22:53Z</time>
      </trkpt>
      <trkpt lat="44.83585" lon="5.50321">
        <ele>1787.71</ele>
        <time>2014-08-08T10:22:59Z</time>
      </trkpt>
      <trkpt lat="44.83583" lon="5.50325">
        <ele>1787.71</ele>
        <time>2014-08-08T10:23:16Z</time>
      </trkpt>
      <trkpt lat="44.83584" lon="5.50325">
        <ele>1787.23</ele>
        <time>2014-08-08T10:23:55Z</time>
      </trkpt>
      <trkpt lat="44.8358" lon="5.50326">
        <ele>1788.19</ele>
        <time>2014-08-08T10:24:29Z</time>
      </trkpt>
      <trkpt lat="44.83581" lon="5.50325">
        <ele>1789.15</ele>
        <time>2014-08-08T10:24:44Z</time>
      </trkpt>
      <trkpt lat="44.83585" lon="5.50327">
        <ele>1788.19</ele>
        <time>2014-08-08T10:25:01Z</time>
      </trkpt>
      <trkpt lat="44.83584" lon="5.50321">
        <ele>1786.75</ele>
        <time>2014-08-08T10:25:12Z</time>
      </trkpt>
      <trkpt lat="44.83589" lon="5.50315">
        <ele>1785.79</ele>
        <time>2014-08-08T10:25:17Z</time>
      </trkpt>
      <trkpt lat="44.83598" lon="5.50307">
        <ele>1788.19</ele>
        <time>2014-08-08T10:25:30Z</time>
      </trkpt>
      <trkpt lat="44.83598" lon="5.50299">
        <ele>1790.59</ele>
        <time>2014-08-08T10:25:41Z</time>
      </trkpt>
      <trkpt lat="44.836" lon="5.50295">
        <ele>1791.55</ele>
        <time>2014-08-08T10:25:54Z</time>
      </trkpt>
      <trkpt lat="44.83602" lon="5.50291">
        <ele>1792.52</ele>
        <time>2014-08-08T10:25:59Z</time>
      </trkpt>
      <trkpt lat="44.836" lon="5.50285">
        <ele>1794.92</ele>
        <time>2014-08-08T10:26:07Z</time>
      </trkpt>
      <trkpt lat="44.83604" lon="5.5028">
        <ele>1797.32</ele>
        <time>2014-08-08T10:26:19Z</time>
      </trkpt>
      <trkpt lat="44.83603" lon="5.5028">
        <ele>1799.73</ele>
        <time>2014-08-08T10:26:30Z</time>
      </trkpt>
      <trkpt lat="44.83605" lon="5.50281">
        <ele>1800.69</ele>
        <time>2014-08-08T10:26:44Z</time>
      </trkpt>
      <trkpt lat="44.83607" lon="5.50277">
        <ele>1801.17</ele>
        <time>2014-08-08T10:26:58Z</time>
      </trkpt>
      <trkpt lat="44.83607" lon="5.50277">
        <ele>1801.65</ele>
        <time>2014-08-08T10:27:12Z</time>
      </trkpt>
      <trkpt lat="44.83606" lon="5.50278">
        <ele>1802.13</ele>
        <time>2014-08-08T10:27:27Z</time>
      </trkpt>
      <trkpt lat="44.83607" lon="5.5028">
        <ele>1802.13</ele>
        <time>2014-08-08T10:27:42Z</time>
      </trkpt>
      <trkpt lat="44.83606" lon="5.50282">
        <ele>1801.65</ele>
        <time>2014-08-08T10:28:01Z</time>
      </trkpt>
      <trkpt lat="44.83604" lon="5.5028">
        <ele>1801.65</ele>
        <time>2014-08-08T10:28:21Z</time>
      </trkpt>
      <trkpt lat="44.83607" lon="5.5028">
        <ele>1802.61</ele>
        <time>2014-08-08T10:28:38Z</time>
      </trkpt>
      <trkpt lat="44.83607" lon="5.50281">
        <ele>1802.13</ele>
        <time>2014-08-08T10:29:06Z</time>
      </trkpt>
      <trkpt lat="44.83606" lon="5.50281">
        <ele>1803.09</ele>
        <time>2014-08-08T10:29:20Z</time>
      </trkpt>
      <trkpt lat="44.83607" lon="5.50279">
        <ele>1803.09</ele>
        <time>2014-08-08T10:29:40Z</time>
      </trkpt>
      <trkpt lat="44.8361" lon="5.50277">
        <ele>1802.61</ele>
        <time>2014-08-08T10:30:01Z</time>
      </trkpt>
      <trkpt lat="44.83608" lon="5.5028">
        <ele>1803.09</ele>
        <time>2014-08-08T10:30:30Z</time>
      </trkpt>
      <trkpt lat="44.83605" lon="5.50278">
        <ele>1802.61</ele>
        <time>2014-08-08T10:30:58Z</time>
      </trkpt>
      <trkpt lat="44.83605" lon="5.50278">
        <ele>1803.09</ele>
        <time>2014-08-08T10:31:14Z</time>
      </trkpt>
      <trkpt lat="44.83606" lon="5.50277">
        <ele>1803.09</ele>
        <time>2014-08-08T10:31:41Z</time>
      </trkpt>
      <trkpt lat="44.83606" lon="5.50279">
        <ele>1803.57</ele>
        <time>2014-08-08T10:32:06Z</time>
      </trkpt>
      <trkpt lat="44.8361" lon="5.50279">
        <ele>1803.57</ele>
        <time>2014-08-08T10:32:28Z</time>
      </trkpt>
      <trkpt lat="44.83603" lon="5.50277">
        <ele>1803.09</ele>
        <time>2014-08-08T10:32:49Z</time>
      </trkpt>
      <trkpt lat="44.83607" lon="5.50275">
        <ele>1803.57</ele>
        <time>2014-08-08T10:33:13Z</time>
      </trkpt>
      <trkpt lat="44.83606" lon="5.50269">
        <ele>1805.49</ele>
        <time>2014-08-08T10:33:24Z</time>
      </trkpt>
      <trkpt lat="44.83602" lon="5.50269">
        <ele>1805.97</ele>
        <time>2014-08-08T10:33:37Z</time>
      </trkpt>
      <trkpt lat="44.83605" lon="5.50263">
        <ele>1806.45</ele>
        <time>2014-08-08T10:34:02Z</time>
      </trkpt>
      <trkpt lat="44.83607" lon="5.50263">
        <ele>1806.94</ele>
        <time>2014-08-08T10:34:27Z</time>
      </trkpt>
      <trkpt lat="44.83605" lon="5.5027">
        <ele>1806.45</ele>
        <time>2014-08-08T10:34:41Z</time>
      </trkpt>
      <trkpt lat="44.83602" lon="5.50272">
        <ele>1806.45</ele>
        <time>2014-08-08T10:35:05Z</time>
      </trkpt>
      <trkpt lat="44.83603" lon="5.50274">
        <ele>1805.97</ele>
        <time>2014-08-08T10:35:26Z</time>
      </trkpt>
      <trkpt lat="44.83604" lon="5.50271">
        <ele>1807.42</ele>
        <time>2014-08-08T10:35:43Z</time>
      </trkpt>
      <trkpt lat="44.83602" lon="5.50271">
        <ele>1807.9</ele>
        <time>2014-08-08T10:35:55Z</time>
      </trkpt>
      <trkpt lat="44.83599" lon="5.50273">
        <ele>1806.45</ele>
        <time>2014-08-08T10:36:06Z</time>
      </trkpt>
      <trkpt lat="44.83601" lon="5.50275">
        <ele>1805.97</ele>
        <time>2014-08-08T10:36:21Z</time>
      </trkpt>
      <trkpt lat="44.83599" lon="5.50275">
        <ele>1805.49</ele>
        <time>2014-08-08T10:36:30Z</time>
      </trkpt>
      <trkpt lat="44.83594" lon="5.50274">
        <ele>1804.05</ele>
        <time>2014-08-08T10:36:41Z</time>
      </trkpt>
      <trkpt lat="44.83594" lon="5.50275">
        <ele>1803.09</ele>
        <time>2014-08-08T10:36:45Z</time>
      </trkpt>
      <trkpt lat="44.83594" lon="5.50277">
        <ele>1803.09</ele>
        <time>2014-08-08T10:36:48Z</time>
      </trkpt>
      <trkpt lat="44.83595" lon="5.50281">
        <ele>1801.17</ele>
        <time>2014-08-08T10:37:01Z</time>
      </trkpt>
      <trkpt lat="44.83591" lon="5.50282">
        <ele>1798.76</ele>
        <time>2014-08-08T10:37:11Z</time>
      </trkpt>
      <trkpt lat="44.83592" lon="5.50286">
        <ele>1795.4</ele>
        <time>2014-08-08T10:37:23Z</time>
      </trkpt>
      <trkpt lat="44.83592" lon="5.50288">
        <ele>1795.4</ele>
        <time>2014-08-08T10:37:24Z</time>
      </trkpt>
      <trkpt lat="44.83591" lon="5.5029">
        <ele>1794.44</ele>
        <time>2014-08-08T10:37:35Z</time>
      </trkpt>
      <trkpt lat="44.83588" lon="5.50281">
        <ele>1796.36</ele>
        <time>2014-08-08T10:37:47Z</time>
      </trkpt>
      <trkpt lat="44.83585" lon="5.50283">
        <ele>1795.88</ele>
        <time>2014-08-08T10:37:51Z</time>
      </trkpt>
      <trkpt lat="44.83584" lon="5.50282">
        <ele>1795.88</ele>
        <time>2014-08-08T10:37:53Z</time>
      </trkpt>
      <trkpt lat="44.83585" lon="5.50283">
        <ele>1794.92</ele>
        <time>2014-08-08T10:38:06Z</time>
      </trkpt>
      <trkpt lat="44.83581" lon="5.50287">
        <ele>1794.44</ele>
        <time>2014-08-08T10:38:15Z</time>
      </trkpt>
      <trkpt lat="44.83581" lon="5.50287">
        <ele>1793.48</ele>
        <time>2014-08-08T10:38:25Z</time>
      </trkpt>
      <trkpt lat="44.83582" lon="5.50286">
        <ele>1793.48</ele>
        <time>2014-08-08T10:38:40Z</time>
      </trkpt>
      <trkpt lat="44.83582" lon="5.50286">
        <ele>1793</ele>
        <time>2014-08-08T10:39:09Z</time>
      </trkpt>
      <trkpt lat="44.83585" lon="5.50286">
        <ele>1792.52</ele>
        <time>2014-08-08T10:39:39Z</time>
      </trkpt>
      <trkpt lat="44.83583" lon="5.50286">
        <ele>1793</ele>
        <time>2014-08-08T10:40:05Z</time>
      </trkpt>
      <trkpt lat="44.83586" lon="5.50284">
        <ele>1793</ele>
        <time>2014-08-08T10:40:32Z</time>
      </trkpt>
      <trkpt lat="44.83588" lon="5.50284">
        <ele>1793.48</ele>
        <time>2014-08-08T10:40:56Z</time>
      </trkpt>
      <trkpt lat="44.83584" lon="5.50287">
        <ele>1793</ele>
        <time>2014-08-08T10:41:24Z</time>
      </trkpt>
      <trkpt lat="44.83584" lon="5.50288">
        <ele>1793</ele>
        <time>2014-08-08T10:41:56Z</time>
      </trkpt>
      <trkpt lat="44.83584" lon="5.50286">
        <ele>1793</ele>
        <time>2014-08-08T10:42:27Z</time>
      </trkpt>
      <trkpt lat="44.83581" lon="5.5029">
        <ele>1792.03</ele>
        <time>2014-08-08T10:42:53Z</time>
      </trkpt>
      <trkpt lat="44.83584" lon="5.50286">
        <ele>1793</ele>
        <time>2014-08-08T10:43:27Z</time>
      </trkpt>
      <trkpt lat="44.83582" lon="5.50288">
        <ele>1793</ele>
        <time>2014-08-08T10:43:50Z</time>
      </trkpt>
      <trkpt lat="44.8358" lon="5.50287">
        <ele>1792.52</ele>
        <time>2014-08-08T10:44:10Z</time>
      </trkpt>
      <trkpt lat="44.83577" lon="5.50289">
        <ele>1792.03</ele>
        <time>2014-08-08T10:44:46Z</time>
      </trkpt>
      <trkpt lat="44.83578" lon="5.50288">
        <ele>1792.52</ele>
        <time>2014-08-08T10:45:18Z</time>
      </trkpt>
      <trkpt lat="44.83581" lon="5.50285">
        <ele>1792.52</ele>
        <time>2014-08-08T10:45:48Z</time>
      </trkpt>
      <trkpt lat="44.83582" lon="5.50289">
        <ele>1792.52</ele>
        <time>2014-08-08T10:46:28Z</time>
      </trkpt>
      <trkpt lat="44.83583" lon="5.50286">
        <ele>1793</ele>
        <time>2014-08-08T10:46:59Z</time>
      </trkpt>
      <trkpt lat="44.8358" lon="5.50285">
        <ele>1792.52</ele>
        <time>2014-08-08T10:47:35Z</time>
      </trkpt>
      <trkpt lat="44.83578" lon="5.50287">
        <ele>1792.52</ele>
        <time>2014-08-08T10:48:06Z</time>
      </trkpt>
      <trkpt lat="44.83577" lon="5.50287">
        <ele>1792.52</ele>
        <time>2014-08-08T10:48:39Z</time>
      </trkpt>
      <trkpt lat="44.83579" lon="5.50285">
        <ele>1792.52</ele>
        <time>2014-08-08T10:49:24Z</time>
      </trkpt>
      <trkpt lat="44.83581" lon="5.50285">
        <ele>1792.52</ele>
        <time>2014-08-08T10:50:07Z</time>
      </trkpt>
      <trkpt lat="44.83578" lon="5.50287">
        <ele>1793</ele>
        <time>2014-08-08T10:50:39Z</time>
      </trkpt>
      <trkpt lat="44.83582" lon="5.50284">
        <ele>1792.52</ele>
        <time>2014-08-08T10:51:19Z</time>
      </trkpt>
      <trkpt lat="44.83582" lon="5.50286">
        <ele>1793.48</ele>
        <time>2014-08-08T10:52:04Z</time>
      </trkpt>
      <trkpt lat="44.8358" lon="5.50285">
        <ele>1793</ele>
        <time>2014-08-08T10:52:37Z</time>
      </trkpt>
      <trkpt lat="44.83581" lon="5.50285">
        <ele>1793.48</ele>
        <time>2014-08-08T10:53:13Z</time>
      </trkpt>
      <trkpt lat="44.83582" lon="5.50286">
        <ele>1793.48</ele>
        <time>2014-08-08T10:54:00Z</time>
      </trkpt>
      <trkpt lat="44.83581" lon="5.50286">
        <ele>1793</ele>
        <time>2014-08-08T10:54:39Z</time>
      </trkpt>
      <trkpt lat="44.8358" lon="5.50284">
        <ele>1793</ele>
        <time>2014-08-08T10:55:12Z</time>
      </trkpt>
      <trkpt lat="44.83582" lon="5.50286">
        <ele>1793</ele>
        <time>2014-08-08T10:55:49Z</time>
      </trkpt>
      <trkpt lat="44.83581" lon="5.50285">
        <ele>1793.96</ele>
        <time>2014-08-08T10:56:28Z</time>
      </trkpt>
      <trkpt lat="44.83576" lon="5.50287">
        <ele>1793</ele>
        <time>2014-08-08T10:57:02Z</time>
      </trkpt>
      <trkpt lat="44.8358" lon="5.50286">
        <ele>1793</ele>
        <time>2014-08-08T10:57:43Z</time>
      </trkpt>
      <trkpt lat="44.83579" lon="5.50284">
        <ele>1793.96</ele>
        <time>2014-08-08T10:58:26Z</time>
      </trkpt>
      <trkpt lat="44.83583" lon="5.50284">
        <ele>1793.96</ele>
        <time>2014-08-08T10:59:05Z</time>
      </trkpt>
      <trkpt lat="44.83581" lon="5.50288">
        <ele>1793.96</ele>
        <time>2014-08-08T10:59:45Z</time>
      </trkpt>
      <trkpt lat="44.83582" lon="5.50287">
        <ele>1793.48</ele>
        <time>2014-08-08T11:00:31Z</time>
      </trkpt>
      <trkpt lat="44.8358" lon="5.50288">
        <ele>1793.48</ele>
        <time>2014-08-08T11:01:02Z</time>
      </trkpt>
      <trkpt lat="44.83581" lon="5.5029">
        <ele>1793.96</ele>
        <time>2014-08-08T11:01:32Z</time>
      </trkpt>
      <trkpt lat="44.83581" lon="5.50292">
        <ele>1793.48</ele>
        <time>2014-08-08T11:02:06Z</time>
      </trkpt>
      <trkpt lat="44.83582" lon="5.50291">
        <ele>1793.48</ele>
        <time>2014-08-08T11:02:36Z</time>
      </trkpt>
      <trkpt lat="44.83581" lon="5.50289">
        <ele>1793.96</ele>
        <time>2014-08-08T11:03:05Z</time>
      </trkpt>
      <trkpt lat="44.8358" lon="5.50288">
        <ele>1793.48</ele>
        <time>2014-08-08T11:03:34Z</time>
      </trkpt>
      <trkpt lat="44.8358" lon="5.50288">
        <ele>1793</ele>
        <time>2014-08-08T11:04:01Z</time>
      </trkpt>
      <trkpt lat="44.83581" lon="5.50287">
        <ele>1793.96</ele>
        <time>2014-08-08T11:04:29Z</time>
      </trkpt>
      <trkpt lat="44.83582" lon="5.50288">
        <ele>1793.48</ele>
        <time>2014-08-08T11:04:54Z</time>
      </trkpt>
      <trkpt lat="44.83582" lon="5.50287">
        <ele>1793</ele>
        <time>2014-08-08T11:05:11Z</time>
      </trkpt>
      <trkpt lat="44.83584" lon="5.50288">
        <ele>1793.96</ele>
        <time>2014-08-08T11:05:44Z</time>
      </trkpt>
      <trkpt lat="44.83585" lon="5.50288">
        <ele>1793.48</ele>
        <time>2014-08-08T11:06:08Z</time>
      </trkpt>
      <trkpt lat="44.83583" lon="5.50287">
        <ele>1793.48</ele>
        <time>2014-08-08T11:06:26Z</time>
      </trkpt>
      <trkpt lat="44.83581" lon="5.50287">
        <ele>1793.96</ele>
        <time>2014-08-08T11:06:49Z</time>
      </trkpt>
      <trkpt lat="44.83582" lon="5.50287">
        <ele>1793</ele>
        <time>2014-08-08T11:07:09Z</time>
      </trkpt>
      <trkpt lat="44.83582" lon="5.50287">
        <ele>1793.48</ele>
        <time>2014-08-08T11:07:27Z</time>
      </trkpt>
      <trkpt lat="44.83582" lon="5.50286">
        <ele>1793</ele>
        <time>2014-08-08T11:07:56Z</time>
      </trkpt>
      <trkpt lat="44.83583" lon="5.50286">
        <ele>1793.96</ele>
        <time>2014-08-08T11:08:19Z</time>
      </trkpt>
      <trkpt lat="44.83581" lon="5.50287">
        <ele>1792.52</ele>
        <time>2014-08-08T11:08:44Z</time>
      </trkpt>
      <trkpt lat="44.83581" lon="5.50287">
        <ele>1793.48</ele>
        <time>2014-08-08T11:09:02Z</time>
      </trkpt>
      <trkpt lat="44.83582" lon="5.50286">
        <ele>1793</ele>
        <time>2014-08-08T11:09:25Z</time>
      </trkpt>
      <trkpt lat="44.83584" lon="5.50288">
        <ele>1793.48</ele>
        <time>2014-08-08T11:09:44Z</time>
      </trkpt>
      <trkpt lat="44.83584" lon="5.50289">
        <ele>1793</ele>
        <time>2014-08-08T11:10:04Z</time>
      </trkpt>
      <trkpt lat="44.83584" lon="5.50289">
        <ele>1793.48</ele>
        <time>2014-08-08T11:10:23Z</time>
      </trkpt>
      <trkpt lat="44.83585" lon="5.50288">
        <ele>1793.48</ele>
        <time>2014-08-08T11:10:53Z</time>
      </trkpt>
      <trkpt lat="44.83584" lon="5.50288">
        <ele>1793.48</ele>
        <time>2014-08-08T11:11:18Z</time>
      </trkpt>
      <trkpt lat="44.83584" lon="5.50289">
        <ele>1793.48</ele>
        <time>2014-08-08T11:11:43Z</time>
      </trkpt>
      <trkpt lat="44.83582" lon="5.50288">
        <ele>1793.48</ele>
        <time>2014-08-08T11:12:00Z</time>
      </trkpt>
      <trkpt lat="44.8358" lon="5.50288">
        <ele>1793</ele>
        <time>2014-08-08T11:12:24Z</time>
      </trkpt>
      <trkpt lat="44.8358" lon="5.50287">
        <ele>1793.96</ele>
        <time>2014-08-08T11:12:56Z</time>
      </trkpt>
      <trkpt lat="44.8358" lon="5.50288">
        <ele>1793.96</ele>
        <time>2014-08-08T11:13:22Z</time>
      </trkpt>
      <trkpt lat="44.8358" lon="5.50289">
        <ele>1793.48</ele>
        <time>2014-08-08T11:13:52Z</time>
      </trkpt>
      <trkpt lat="44.83582" lon="5.50289">
        <ele>1793.48</ele>
        <time>2014-08-08T11:14:16Z</time>
      </trkpt>
      <trkpt lat="44.83583" lon="5.50289">
        <ele>1793.48</ele>
        <time>2014-08-08T11:14:37Z</time>
      </trkpt>
      <trkpt lat="44.83582" lon="5.50289">
        <ele>1793.48</ele>
        <time>2014-08-08T11:14:59Z</time>
      </trkpt>
      <trkpt lat="44.83583" lon="5.50289">
        <ele>1793.48</ele>
        <time>2014-08-08T11:15:28Z</time>
      </trkpt>
      <trkpt lat="44.83585" lon="5.50289">
        <ele>1793.48</ele>
        <time>2014-08-08T11:15:54Z</time>
      </trkpt>
      <trkpt lat="44.83584" lon="5.50288">
        <ele>1793</ele>
        <time>2014-08-08T11:16:08Z</time>
      </trkpt>
      <trkpt lat="44.83584" lon="5.50288">
        <ele>1793</ele>
        <time>2014-08-08T11:16:31Z</time>
      </trkpt>
      <trkpt lat="44.83581" lon="5.50288">
        <ele>1793.48</ele>
        <time>2014-08-08T11:16:54Z</time>
      </trkpt>
      <trkpt lat="44.8358" lon="5.50289">
        <ele>1793.48</ele>
        <time>2014-08-08T11:17:12Z</time>
      </trkpt>
      <trkpt lat="44.83581" lon="5.50288">
        <ele>1793</ele>
        <time>2014-08-08T11:17:34Z</time>
      </trkpt>
      <trkpt lat="44.83584" lon="5.50288">
        <ele>1793.48</ele>
        <time>2014-08-08T11:17:51Z</time>
      </trkpt>
      <trkpt lat="44.83582" lon="5.50288">
        <ele>1793</ele>
        <time>2014-08-08T11:18:14Z</time>
      </trkpt>
      <trkpt lat="44.83579" lon="5.50288">
        <ele>1793.96</ele>
        <time>2014-08-08T11:18:48Z</time>
      </trkpt>
      <trkpt lat="44.83582" lon="5.50287">
        <ele>1793.96</ele>
        <time>2014-08-08T11:19:20Z</time>
      </trkpt>
      <trkpt lat="44.83581" lon="5.50288">
        <ele>1793.96</ele>
        <time>2014-08-08T11:19:54Z</time>
      </trkpt>
      <trkpt lat="44.8358" lon="5.50289">
        <ele>1793.48</ele>
        <time>2014-08-08T11:20:18Z</time>
      </trkpt>
      <trkpt lat="44.8358" lon="5.50288">
        <ele>1793.96</ele>
        <time>2014-08-08T11:20:58Z</time>
      </trkpt>
      <trkpt lat="44.83581" lon="5.50289">
        <ele>1793.96</ele>
        <time>2014-08-08T11:21:41Z</time>
      </trkpt>
      <trkpt lat="44.83583" lon="5.50289">
        <ele>1794.44</ele>
        <time>2014-08-08T11:22:22Z</time>
      </trkpt>
      <trkpt lat="44.83582" lon="5.50287">
        <ele>1793.96</ele>
        <time>2014-08-08T11:23:01Z</time>
      </trkpt>
      <trkpt lat="44.83581" lon="5.50288">
        <ele>1793.48</ele>
        <time>2014-08-08T11:23:37Z</time>
      </trkpt>
      <trkpt lat="44.83581" lon="5.50289">
        <ele>1793.48</ele>
        <time>2014-08-08T11:24:04Z</time>
      </trkpt>
      <trkpt lat="44.83581" lon="5.50288">
        <ele>1794.44</ele>
        <time>2014-08-08T11:24:36Z</time>
      </trkpt>
      <trkpt lat="44.83579" lon="5.50288">
        <ele>1793.96</ele>
        <time>2014-08-08T11:25:11Z</time>
      </trkpt>
      <trkpt lat="44.83579" lon="5.50288">
        <ele>1793.48</ele>
        <time>2014-08-08T11:25:54Z</time>
      </trkpt>
      <trkpt lat="44.83579" lon="5.5029">
        <ele>1793.96</ele>
        <time>2014-08-08T11:26:34Z</time>
      </trkpt>
      <trkpt lat="44.8358" lon="5.50291">
        <ele>1793.96</ele>
        <time>2014-08-08T11:27:10Z</time>
      </trkpt>
      <trkpt lat="44.8358" lon="5.50289">
        <ele>1793.48</ele>
        <time>2014-08-08T11:27:42Z</time>
      </trkpt>
      <trkpt lat="44.83581" lon="5.5029">
        <ele>1793.96</ele>
        <time>2014-08-08T11:28:25Z</time>
      </trkpt>
      <trkpt lat="44.83582" lon="5.50289">
        <ele>1793.96</ele>
        <time>2014-08-08T11:29:03Z</time>
      </trkpt>
      <trkpt lat="44.83581" lon="5.50288">
        <ele>1794.44</ele>
        <time>2014-08-08T11:29:28Z</time>
      </trkpt>
      <trkpt lat="44.83578" lon="5.50288">
        <ele>1794.44</ele>
        <time>2014-08-08T11:29:58Z</time>
      </trkpt>
      <trkpt lat="44.83582" lon="5.50289">
        <ele>1794.44</ele>
        <time>2014-08-08T11:30:40Z</time>
      </trkpt>
      <trkpt lat="44.83581" lon="5.50289">
        <ele>1793</ele>
        <time>2014-08-08T11:31:05Z</time>
      </trkpt>
      <trkpt lat="44.83581" lon="5.50288">
        <ele>1793.48</ele>
        <time>2014-08-08T11:31:35Z</time>
      </trkpt>
      <trkpt lat="44.83581" lon="5.50288">
        <ele>1793.48</ele>
        <time>2014-08-08T11:32:06Z</time>
      </trkpt>
      <trkpt lat="44.83578" lon="5.50287">
        <ele>1793.48</ele>
        <time>2014-08-08T11:32:36Z</time>
      </trkpt>
      <trkpt lat="44.83581" lon="5.50288">
        <ele>1794.44</ele>
        <time>2014-08-08T11:32:53Z</time>
      </trkpt>
      <trkpt lat="44.83583" lon="5.50288">
        <ele>1794.92</ele>
        <time>2014-08-08T11:33:03Z</time>
      </trkpt>
      <trkpt lat="44.83583" lon="5.50285">
        <ele>1794.44</ele>
        <time>2014-08-08T11:33:25Z</time>
      </trkpt>
      <trkpt lat="44.83583" lon="5.50285">
        <ele>1794.44</ele>
        <time>2014-08-08T11:33:40Z</time>
      </trkpt>
      <trkpt lat="44.83583" lon="5.50286">
        <ele>1794.44</ele>
        <time>2014-08-08T11:34:01Z</time>
      </trkpt>
      <trkpt lat="44.83583" lon="5.50284">
        <ele>1794.92</ele>
        <time>2014-08-08T11:34:20Z</time>
      </trkpt>
      <trkpt lat="44.83586" lon="5.50293">
        <ele>1793.96</ele>
        <time>2014-08-08T11:34:44Z</time>
      </trkpt>
      <trkpt lat="44.83583" lon="5.50284">
        <ele>1793.96</ele>
        <time>2014-08-08T11:35:01Z</time>
      </trkpt>
      <trkpt lat="44.83586" lon="5.50291">
        <ele>1793</ele>
        <time>2014-08-08T11:35:22Z</time>
      </trkpt>
      <trkpt lat="44.83586" lon="5.503">
        <ele>1793</ele>
        <time>2014-08-08T11:35:40Z</time>
      </trkpt>
      <trkpt lat="44.83589" lon="5.50302">
        <ele>1793</ele>
        <time>2014-08-08T11:35:59Z</time>
      </trkpt>
      <trkpt lat="44.83587" lon="5.50299">
        <ele>1792.03</ele>
        <time>2014-08-08T11:36:18Z</time>
      </trkpt>
      <trkpt lat="44.83589" lon="5.503">
        <ele>1793</ele>
        <time>2014-08-08T11:36:34Z</time>
      </trkpt>
      <trkpt lat="44.83602" lon="5.50312">
        <ele>1792.52</ele>
        <time>2014-08-08T11:36:54Z</time>
      </trkpt>
      <trkpt lat="44.83606" lon="5.50312">
        <ele>1793</ele>
        <time>2014-08-08T11:36:59Z</time>
      </trkpt>
      <trkpt lat="44.8362" lon="5.50327">
        <ele>1794.44</ele>
        <time>2014-08-08T11:37:16Z</time>
      </trkpt>
      <trkpt lat="44.83626" lon="5.50332">
        <ele>1794.44</ele>
        <time>2014-08-08T11:37:35Z</time>
      </trkpt>
      <trkpt lat="44.83624" lon="5.50332">
        <ele>1795.4</ele>
        <time>2014-08-08T11:38:04Z</time>
      </trkpt>
      <trkpt lat="44.83627" lon="5.5033">
        <ele>1794.92</ele>
        <time>2014-08-08T11:38:36Z</time>
      </trkpt>
      <trkpt lat="44.83625" lon="5.50332">
        <ele>1794.44</ele>
        <time>2014-08-08T11:39:06Z</time>
      </trkpt>
      <trkpt lat="44.83626" lon="5.50328">
        <ele>1794.92</ele>
        <time>2014-08-08T11:39:28Z</time>
      </trkpt>
      <trkpt lat="44.83629" lon="5.50333">
        <ele>1794.44</ele>
        <time>2014-08-08T11:39:51Z</time>
      </trkpt>
      <trkpt lat="44.83632" lon="5.50335">
        <ele>1794.44</ele>
        <time>2014-08-08T11:40:13Z</time>
      </trkpt>
      <trkpt lat="44.83646" lon="5.5034">
        <ele>1794.44</ele>
        <time>2014-08-08T11:40:31Z</time>
      </trkpt>
      <trkpt lat="44.83658" lon="5.50341">
        <ele>1793.96</ele>
        <time>2014-08-08T11:40:48Z</time>
      </trkpt>
      <trkpt lat="44.83667" lon="5.50338">
        <ele>1796.84</ele>
        <time>2014-08-08T11:41:06Z</time>
      </trkpt>
      <trkpt lat="44.83671" lon="5.50333">
        <ele>1800.69</ele>
        <time>2014-08-08T11:41:25Z</time>
      </trkpt>
      <trkpt lat="44.83677" lon="5.50333">
        <ele>1803.09</ele>
        <time>2014-08-08T11:41:39Z</time>
      </trkpt>
      <trkpt lat="44.83684" lon="5.50333">
        <ele>1804.53</ele>
        <time>2014-08-08T11:41:59Z</time>
      </trkpt>
      <trkpt lat="44.83687" lon="5.50336">
        <ele>1805.49</ele>
        <time>2014-08-08T11:42:20Z</time>
      </trkpt>
      <trkpt lat="44.83691" lon="5.50339">
        <ele>1806.45</ele>
        <time>2014-08-08T11:42:41Z</time>
      </trkpt>
      <trkpt lat="44.83692" lon="5.50345">
        <ele>1807.42</ele>
        <time>2014-08-08T11:42:55Z</time>
      </trkpt>
      <trkpt lat="44.83703" lon="5.50343">
        <ele>1808.86</ele>
        <time>2014-08-08T11:43:18Z</time>
      </trkpt>
      <trkpt lat="44.83707" lon="5.50337">
        <ele>1809.82</ele>
        <time>2014-08-08T11:43:38Z</time>
      </trkpt>
      <trkpt lat="44.83701" lon="5.50326">
        <ele>1808.86</ele>
        <time>2014-08-08T11:43:58Z</time>
      </trkpt>
      <trkpt lat="44.83707" lon="5.50314">
        <ele>1807.9</ele>
        <time>2014-08-08T11:44:20Z</time>
      </trkpt>
      <trkpt lat="44.83718" lon="5.50312">
        <ele>1807.9</ele>
        <time>2014-08-08T11:44:47Z</time>
      </trkpt>
      <trkpt lat="44.83728" lon="5.50308">
        <ele>1807.42</ele>
        <time>2014-08-08T11:45:05Z</time>
      </trkpt>
      <trkpt lat="44.83724" lon="5.50316">
        <ele>1806.94</ele>
        <time>2014-08-08T11:45:22Z</time>
      </trkpt>
      <trkpt lat="44.83727" lon="5.50337">
        <ele>1806.45</ele>
        <time>2014-08-08T11:45:42Z</time>
      </trkpt>
      <trkpt lat="44.83741" lon="5.50351">
        <ele>1805.49</ele>
        <time>2014-08-08T11:46:00Z</time>
      </trkpt>
      <trkpt lat="44.83743" lon="5.50364">
        <ele>1805.01</ele>
        <time>2014-08-08T11:46:19Z</time>
      </trkpt>
      <trkpt lat="44.83748" lon="5.50368">
        <ele>1805.49</ele>
        <time>2014-08-08T11:46:37Z</time>
      </trkpt>
      <trkpt lat="44.83739" lon="5.50358">
        <ele>1805.01</ele>
        <time>2014-08-08T11:46:58Z</time>
      </trkpt>
      <trkpt lat="44.83741" lon="5.50338">
        <ele>1804.53</ele>
        <time>2014-08-08T11:47:17Z</time>
      </trkpt>
      <trkpt lat="44.83751" lon="5.50337">
        <ele>1803.57</ele>
        <time>2014-08-08T11:47:34Z</time>
      </trkpt>
      <trkpt lat="44.83756" lon="5.50351">
        <ele>1801.65</ele>
        <time>2014-08-08T11:47:54Z</time>
      </trkpt>
      <trkpt lat="44.83755" lon="5.50349">
        <ele>1802.13</ele>
        <time>2014-08-08T11:48:12Z</time>
      </trkpt>
      <trkpt lat="44.83762" lon="5.50347">
        <ele>1802.61</ele>
        <time>2014-08-08T11:48:33Z</time>
      </trkpt>
      <trkpt lat="44.83769" lon="5.50331">
        <ele>1801.65</ele>
        <time>2014-08-08T11:48:55Z</time>
      </trkpt>
      <trkpt lat="44.83759" lon="5.50349">
        <ele>1802.61</ele>
        <time>2014-08-08T11:49:22Z</time>
      </trkpt>
      <trkpt lat="44.83765" lon="5.50345">
        <ele>1801.17</ele>
        <time>2014-08-08T11:49:47Z</time>
      </trkpt>
      <trkpt lat="44.83763" lon="5.50349">
        <ele>1801.65</ele>
        <time>2014-08-08T11:50:15Z</time>
      </trkpt>
      <trkpt lat="44.8376" lon="5.5035">
        <ele>1801.65</ele>
        <time>2014-08-08T11:50:41Z</time>
      </trkpt>
      <trkpt lat="44.83753" lon="5.50349">
        <ele>1801.65</ele>
        <time>2014-08-08T11:51:13Z</time>
      </trkpt>
      <trkpt lat="44.83762" lon="5.50352">
        <ele>1800.69</ele>
        <time>2014-08-08T11:51:42Z</time>
      </trkpt>
      <trkpt lat="44.83763" lon="5.50366">
        <ele>1798.76</ele>
        <time>2014-08-08T11:52:05Z</time>
      </trkpt>
      <trkpt lat="44.83776" lon="5.50357">
        <ele>1798.28</ele>
        <time>2014-08-08T11:52:27Z</time>
      </trkpt>
      <trkpt lat="44.83781" lon="5.50354">
        <ele>1795.88</ele>
        <time>2014-08-08T11:52:45Z</time>
      </trkpt>
      <trkpt lat="44.83784" lon="5.50348">
        <ele>1793.96</ele>
        <time>2014-08-08T11:53:03Z</time>
      </trkpt>
      <trkpt lat="44.83794" lon="5.50331">
        <ele>1790.59</ele>
        <time>2014-08-08T11:53:22Z</time>
      </trkpt>
      <trkpt lat="44.83794" lon="5.50321">
        <ele>1787.71</ele>
        <time>2014-08-08T11:53:42Z</time>
      </trkpt>
      <trkpt lat="44.83793" lon="5.50312">
        <ele>1785.31</ele>
        <time>2014-08-08T11:54:02Z</time>
      </trkpt>
      <trkpt lat="44.83786" lon="5.50299">
        <ele>1782.9</ele>
        <time>2014-08-08T11:54:21Z</time>
      </trkpt>
      <trkpt lat="44.83783" lon="5.50284">
        <ele>1782.42</ele>
        <time>2014-08-08T11:54:39Z</time>
      </trkpt>
      <trkpt lat="44.83787" lon="5.50279">
        <ele>1780.98</ele>
        <time>2014-08-08T11:54:50Z</time>
      </trkpt>
      <trkpt lat="44.83793" lon="5.50281">
        <ele>1780.02</ele>
        <time>2014-08-08T11:55:06Z</time>
      </trkpt>
      <trkpt lat="44.83809" lon="5.50277">
        <ele>1780.5</ele>
        <time>2014-08-08T11:55:27Z</time>
      </trkpt>
      <trkpt lat="44.83821" lon="5.50281">
        <ele>1780.02</ele>
        <time>2014-08-08T11:55:45Z</time>
      </trkpt>
      <trkpt lat="44.83827" lon="5.50284">
        <ele>1778.1</ele>
        <time>2014-08-08T11:56:05Z</time>
      </trkpt>
      <trkpt lat="44.83834" lon="5.50288">
        <ele>1777.61</ele>
        <time>2014-08-08T11:56:19Z</time>
      </trkpt>
      <trkpt lat="44.83854" lon="5.50299">
        <ele>1778.1</ele>
        <time>2014-08-08T11:56:38Z</time>
      </trkpt>
      <trkpt lat="44.83862" lon="5.50306">
        <ele>1779.54</ele>
        <time>2014-08-08T11:56:46Z</time>
      </trkpt>
      <trkpt lat="44.83864" lon="5.50309">
        <ele>1780.98</ele>
        <time>2014-08-08T11:56:49Z</time>
      </trkpt>
      <trkpt lat="44.83876" lon="5.50326">
        <ele>1782.42</ele>
        <time>2014-08-08T11:57:04Z</time>
      </trkpt>
      <trkpt lat="44.83885" lon="5.50338">
        <ele>1782.9</ele>
        <time>2014-08-08T11:57:19Z</time>
      </trkpt>
      <trkpt lat="44.83889" lon="5.50345">
        <ele>1781.94</ele>
        <time>2014-08-08T11:57:39Z</time>
      </trkpt>
      <trkpt lat="44.83889" lon="5.5035">
        <ele>1781.46</ele>
        <time>2014-08-08T11:57:52Z</time>
      </trkpt>
      <trkpt lat="44.83891" lon="5.5034">
        <ele>1780.98</ele>
        <time>2014-08-08T11:58:17Z</time>
      </trkpt>
      <trkpt lat="44.83896" lon="5.50345">
        <ele>1780.98</ele>
        <time>2014-08-08T11:58:48Z</time>
      </trkpt>
      <trkpt lat="44.83896" lon="5.50346">
        <ele>1781.46</ele>
        <time>2014-08-08T11:59:13Z</time>
      </trkpt>
      <trkpt lat="44.83896" lon="5.50345">
        <ele>1780.98</ele>
        <time>2014-08-08T11:59:36Z</time>
      </trkpt>
      <trkpt lat="44.83899" lon="5.50351">
        <ele>1781.46</ele>
        <time>2014-08-08T12:00:04Z</time>
      </trkpt>
      <trkpt lat="44.83894" lon="5.50352">
        <ele>1780.98</ele>
        <time>2014-08-08T12:00:23Z</time>
      </trkpt>
      <trkpt lat="44.83898" lon="5.50361">
        <ele>1781.46</ele>
        <time>2014-08-08T12:00:48Z</time>
      </trkpt>
      <trkpt lat="44.83898" lon="5.50362">
        <ele>1782.42</ele>
        <time>2014-08-08T12:00:50Z</time>
      </trkpt>
      <trkpt lat="44.83895" lon="5.50357">
        <ele>1781.46</ele>
        <time>2014-08-08T12:01:10Z</time>
      </trkpt>
      <trkpt lat="44.83898" lon="5.50356">
        <ele>1781.46</ele>
        <time>2014-08-08T12:01:31Z</time>
      </trkpt>
      <trkpt lat="44.83904" lon="5.50359">
        <ele>1778.1</ele>
        <time>2014-08-08T12:01:48Z</time>
      </trkpt>
      <trkpt lat="44.83911" lon="5.50366">
        <ele>1776.65</ele>
        <time>2014-08-08T12:02:08Z</time>
      </trkpt>
      <trkpt lat="44.8392" lon="5.50365">
        <ele>1774.73</ele>
        <time>2014-08-08T12:02:30Z</time>
      </trkpt>
      <trkpt lat="44.83917" lon="5.50365">
        <ele>1773.77</ele>
        <time>2014-08-08T12:02:51Z</time>
      </trkpt>
      <trkpt lat="44.83918" lon="5.50373">
        <ele>1774.25</ele>
        <time>2014-08-08T12:03:05Z</time>
      </trkpt>
      <trkpt lat="44.83927" lon="5.50377">
        <ele>1774.25</ele>
        <time>2014-08-08T12:03:28Z</time>
      </trkpt>
      <trkpt lat="44.8394" lon="5.50387">
        <ele>1771.37</ele>
        <time>2014-08-08T12:03:49Z</time>
      </trkpt>
      <trkpt lat="44.83953" lon="5.50383">
        <ele>1769.44</ele>
        <time>2014-08-08T12:04:02Z</time>
      </trkpt>
      <trkpt lat="44.83958" lon="5.50388">
        <ele>1769.44</ele>
        <time>2014-08-08T12:04:19Z</time>
      </trkpt>
      <trkpt lat="44.8396" lon="5.50392">
        <ele>1767.52</ele>
        <time>2014-08-08T12:04:41Z</time>
      </trkpt>
      <trkpt lat="44.83963" lon="5.50389">
        <ele>1764.64</ele>
        <time>2014-08-08T12:04:51Z</time>
      </trkpt>
      <trkpt lat="44.83969" lon="5.50385">
        <ele>1761.27</ele>
        <time>2014-08-08T12:05:06Z</time>
      </trkpt>
      <trkpt lat="44.83988" lon="5.50389">
        <ele>1759.35</ele>
        <time>2014-08-08T12:05:29Z</time>
      </trkpt>
      <trkpt lat="44.83997" lon="5.50387">
        <ele>1755.99</ele>
        <time>2014-08-08T12:05:43Z</time>
      </trkpt>
      <trkpt lat="44.84003" lon="5.50391">
        <ele>1753.1</ele>
        <time>2014-08-08T12:05:58Z</time>
      </trkpt>
      <trkpt lat="44.84007" lon="5.5039">
        <ele>1750.22</ele>
        <time>2014-08-08T12:06:13Z</time>
      </trkpt>
      <trkpt lat="44.84016" lon="5.50395">
        <ele>1746.85</ele>
        <time>2014-08-08T12:06:29Z</time>
      </trkpt>
      <trkpt lat="44.84062" lon="5.50379">
        <ele>1743.49</ele>
        <time>2014-08-08T12:06:46Z</time>
      </trkpt>
      <trkpt lat="44.84072" lon="5.50381">
        <ele>1742.05</ele>
        <time>2014-08-08T12:07:02Z</time>
      </trkpt>
      <trkpt lat="44.8409" lon="5.50383">
        <ele>1740.6</ele>
        <time>2014-08-08T12:07:20Z</time>
      </trkpt>
      <trkpt lat="44.84106" lon="5.50384">
        <ele>1740.6</ele>
        <time>2014-08-08T12:07:38Z</time>
      </trkpt>
      <trkpt lat="44.84114" lon="5.50378">
        <ele>1740.6</ele>
        <time>2014-08-08T12:07:48Z</time>
      </trkpt>
      <trkpt lat="44.84126" lon="5.50386">
        <ele>1739.64</ele>
        <time>2014-08-08T12:08:00Z</time>
      </trkpt>
      <trkpt lat="44.84144" lon="5.50391">
        <ele>1739.16</ele>
        <time>2014-08-08T12:08:19Z</time>
      </trkpt>
      <trkpt lat="44.84163" lon="5.50392">
        <ele>1737.72</ele>
        <time>2014-08-08T12:08:41Z</time>
      </trkpt>
      <trkpt lat="44.84171" lon="5.50388">
        <ele>1735.32</ele>
        <time>2014-08-08T12:08:56Z</time>
      </trkpt>
      <trkpt lat="44.84182" lon="5.50378">
        <ele>1733.39</ele>
        <time>2014-08-08T12:09:14Z</time>
      </trkpt>
      <trkpt lat="44.84189" lon="5.50376">
        <ele>1732.43</ele>
        <time>2014-08-08T12:09:31Z</time>
      </trkpt>
      <trkpt lat="44.84199" lon="5.50382">
        <ele>1731.47</ele>
        <time>2014-08-08T12:09:45Z</time>
      </trkpt>
      <trkpt lat="44.84208" lon="5.50384">
        <ele>1729.55</ele>
        <time>2014-08-08T12:10:00Z</time>
      </trkpt>
      <trkpt lat="44.84222" lon="5.5039">
        <ele>1728.11</ele>
        <time>2014-08-08T12:10:16Z</time>
      </trkpt>
      <trkpt lat="44.84226" lon="5.50389">
        <ele>1728.11</ele>
        <time>2014-08-08T12:10:22Z</time>
      </trkpt>
      <trkpt lat="44.84242" lon="5.50383">
        <ele>1725.22</ele>
        <time>2014-08-08T12:10:40Z</time>
      </trkpt>
      <trkpt lat="44.84248" lon="5.50383">
        <ele>1722.34</ele>
        <time>2014-08-08T12:10:54Z</time>
      </trkpt>
      <trkpt lat="44.84258" lon="5.50375">
        <ele>1719.46</ele>
        <time>2014-08-08T12:11:12Z</time>
      </trkpt>
      <trkpt lat="44.84267" lon="5.5037">
        <ele>1717.53</ele>
        <time>2014-08-08T12:11:27Z</time>
      </trkpt>
      <trkpt lat="44.84278" lon="5.5037">
        <ele>1715.61</ele>
        <time>2014-08-08T12:11:45Z</time>
      </trkpt>
      <trkpt lat="44.8429" lon="5.50368">
        <ele>1713.21</ele>
        <time>2014-08-08T12:12:01Z</time>
      </trkpt>
      <trkpt lat="44.84291" lon="5.50346">
        <ele>1710.32</ele>
        <time>2014-08-08T12:12:21Z</time>
      </trkpt>
      <trkpt lat="44.84294" lon="5.5033">
        <ele>1706.96</ele>
        <time>2014-08-08T12:12:38Z</time>
      </trkpt>
      <trkpt lat="44.84303" lon="5.50334">
        <ele>1706</ele>
        <time>2014-08-08T12:12:57Z</time>
      </trkpt>
      <trkpt lat="44.84298" lon="5.5033">
        <ele>1706.48</ele>
        <time>2014-08-08T12:13:17Z</time>
      </trkpt>
      <trkpt lat="44.84301" lon="5.50321">
        <ele>1703.59</ele>
        <time>2014-08-08T12:13:34Z</time>
      </trkpt>
      <trkpt lat="44.84303" lon="5.50321">
        <ele>1706.96</ele>
        <time>2014-08-08T12:13:45Z</time>
      </trkpt>
      <trkpt lat="44.84304" lon="5.50334">
        <ele>1705.52</ele>
        <time>2014-08-08T12:14:03Z</time>
      </trkpt>
      <trkpt lat="44.84304" lon="5.50336">
        <ele>1706</ele>
        <time>2014-08-08T12:14:17Z</time>
      </trkpt>
      <trkpt lat="44.84298" lon="5.50334">
        <ele>1705.52</ele>
        <time>2014-08-08T12:14:41Z</time>
      </trkpt>
      <trkpt lat="44.843" lon="5.50338">
        <ele>1706.48</ele>
        <time>2014-08-08T12:15:07Z</time>
      </trkpt>
      <trkpt lat="44.84298" lon="5.50337">
        <ele>1706</ele>
        <time>2014-08-08T12:15:38Z</time>
      </trkpt>
      <trkpt lat="44.843" lon="5.50338">
        <ele>1706.48</ele>
        <time>2014-08-08T12:16:02Z</time>
      </trkpt>
      <trkpt lat="44.84298" lon="5.50339">
        <ele>1706</ele>
        <time>2014-08-08T12:16:29Z</time>
      </trkpt>
      <trkpt lat="44.84301" lon="5.50336">
        <ele>1705.52</ele>
        <time>2014-08-08T12:16:59Z</time>
      </trkpt>
      <trkpt lat="44.843" lon="5.50335">
        <ele>1705.52</ele>
        <time>2014-08-08T12:17:26Z</time>
      </trkpt>
      <trkpt lat="44.843" lon="5.50335">
        <ele>1706</ele>
        <time>2014-08-08T12:17:58Z</time>
      </trkpt>
      <trkpt lat="44.84305" lon="5.50317">
        <ele>1704.07</ele>
        <time>2014-08-08T12:18:17Z</time>
      </trkpt>
      <trkpt lat="44.84309" lon="5.50305">
        <ele>1702.15</ele>
        <time>2014-08-08T12:18:33Z</time>
      </trkpt>
      <trkpt lat="44.84315" lon="5.50296">
        <ele>1699.75</ele>
        <time>2014-08-08T12:18:51Z</time>
      </trkpt>
      <trkpt lat="44.84324" lon="5.50295">
        <ele>1696.38</ele>
        <time>2014-08-08T12:19:05Z</time>
      </trkpt>
      <trkpt lat="44.84332" lon="5.5029">
        <ele>1694.94</ele>
        <time>2014-08-08T12:19:22Z</time>
      </trkpt>
      <trkpt lat="44.8434" lon="5.50287">
        <ele>1692.54</ele>
        <time>2014-08-08T12:19:31Z</time>
      </trkpt>
      <trkpt lat="44.84351" lon="5.50279">
        <ele>1689.17</ele>
        <time>2014-08-08T12:19:46Z</time>
      </trkpt>
      <trkpt lat="44.84368" lon="5.5027">
        <ele>1687.73</ele>
        <time>2014-08-08T12:20:06Z</time>
      </trkpt>
      <trkpt lat="44.84375" lon="5.50258">
        <ele>1684.37</ele>
        <time>2014-08-08T12:20:19Z</time>
      </trkpt>
      <trkpt lat="44.84375" lon="5.50257">
        <ele>1687.73</ele>
        <time>2014-08-08T12:20:21Z</time>
      </trkpt>
      <trkpt lat="44.84376" lon="5.50256">
        <ele>1683.89</ele>
        <time>2014-08-08T12:20:26Z</time>
      </trkpt>
      <trkpt lat="44.84378" lon="5.50246">
        <ele>1683.89</ele>
        <time>2014-08-08T12:20:40Z</time>
      </trkpt>
      <trkpt lat="44.84385" lon="5.50231">
        <ele>1682.44</ele>
        <time>2014-08-08T12:20:50Z</time>
      </trkpt>
      <trkpt lat="44.84402" lon="5.50217">
        <ele>1679.56</ele>
        <time>2014-08-08T12:21:09Z</time>
      </trkpt>
      <trkpt lat="44.84405" lon="5.50209">
        <ele>1678.12</ele>
        <time>2014-08-08T12:21:25Z</time>
      </trkpt>
      <trkpt lat="44.84411" lon="5.50196">
        <ele>1676.2</ele>
        <time>2014-08-08T12:21:37Z</time>
      </trkpt>
      <trkpt lat="44.84425" lon="5.50187">
        <ele>1675.23</ele>
        <time>2014-08-08T12:21:54Z</time>
      </trkpt>
      <trkpt lat="44.84432" lon="5.50179">
        <ele>1674.27</ele>
        <time>2014-08-08T12:22:11Z</time>
      </trkpt>
      <trkpt lat="44.84439" lon="5.50166">
        <ele>1672.83</ele>
        <time>2014-08-08T12:22:26Z</time>
      </trkpt>
      <trkpt lat="44.84454" lon="5.50147">
        <ele>1670.43</ele>
        <time>2014-08-08T12:22:47Z</time>
      </trkpt>
      <trkpt lat="44.8447" lon="5.5014">
        <ele>1667.54</ele>
        <time>2014-08-08T12:23:10Z</time>
      </trkpt>
      <trkpt lat="44.84481" lon="5.50125">
        <ele>1665.62</ele>
        <time>2014-08-08T12:23:28Z</time>
      </trkpt>
      <trkpt lat="44.8449" lon="5.50106">
        <ele>1663.22</ele>
        <time>2014-08-08T12:23:43Z</time>
      </trkpt>
      <trkpt lat="44.84501" lon="5.50101">
        <ele>1661.3</ele>
        <time>2014-08-08T12:24:01Z</time>
      </trkpt>
      <trkpt lat="44.84517" lon="5.50099">
        <ele>1658.89</ele>
        <time>2014-08-08T12:24:20Z</time>
      </trkpt>
      <trkpt lat="44.8452" lon="5.50097">
        <ele>1657.93</ele>
        <time>2014-08-08T12:24:24Z</time>
      </trkpt>
      <trkpt lat="44.84524" lon="5.50094">
        <ele>1657.93</ele>
        <time>2014-08-08T12:24:30Z</time>
      </trkpt>
      <trkpt lat="44.84533" lon="5.50081">
        <ele>1654.57</ele>
        <time>2014-08-08T12:24:47Z</time>
      </trkpt>
      <trkpt lat="44.84546" lon="5.50073">
        <ele>1651.68</ele>
        <time>2014-08-08T12:25:06Z</time>
      </trkpt>
      <trkpt lat="44.84558" lon="5.50054">
        <ele>1648.8</ele>
        <time>2014-08-08T12:25:26Z</time>
      </trkpt>
      <trkpt lat="44.84574" lon="5.50039">
        <ele>1645.91</ele>
        <time>2014-08-08T12:25:47Z</time>
      </trkpt>
      <trkpt lat="44.84584" lon="5.50033">
        <ele>1643.03</ele>
        <time>2014-08-08T12:26:05Z</time>
      </trkpt>
      <trkpt lat="44.84583" lon="5.50035">
        <ele>1642.55</ele>
        <time>2014-08-08T12:26:26Z</time>
      </trkpt>
      <trkpt lat="44.84587" lon="5.50025">
        <ele>1642.55</ele>
        <time>2014-08-08T12:26:50Z</time>
      </trkpt>
      <trkpt lat="44.84586" lon="5.50022">
        <ele>1643.03</ele>
        <time>2014-08-08T12:27:12Z</time>
      </trkpt>
      <trkpt lat="44.84586" lon="5.50019">
        <ele>1642.55</ele>
        <time>2014-08-08T12:27:37Z</time>
      </trkpt>
      <trkpt lat="44.84584" lon="5.50018">
        <ele>1641.11</ele>
        <time>2014-08-08T12:27:59Z</time>
      </trkpt>
      <trkpt lat="44.84591" lon="5.49996">
        <ele>1639.67</ele>
        <time>2014-08-08T12:28:14Z</time>
      </trkpt>
      <trkpt lat="44.84604" lon="5.49976">
        <ele>1637.26</ele>
        <time>2014-08-08T12:28:34Z</time>
      </trkpt>
      <trkpt lat="44.84611" lon="5.49974">
        <ele>1636.78</ele>
        <time>2014-08-08T12:28:40Z</time>
      </trkpt>
      <trkpt lat="44.84619" lon="5.49968">
        <ele>1635.82</ele>
        <time>2014-08-08T12:28:50Z</time>
      </trkpt>
      <trkpt lat="44.84635" lon="5.49957">
        <ele>1634.86</ele>
        <time>2014-08-08T12:29:08Z</time>
      </trkpt>
      <trkpt lat="44.84651" lon="5.49952">
        <ele>1632.94</ele>
        <time>2014-08-08T12:29:27Z</time>
      </trkpt>
      <trkpt lat="44.8466" lon="5.49941">
        <ele>1632.46</ele>
        <time>2014-08-08T12:29:42Z</time>
      </trkpt>
      <trkpt lat="44.84669" lon="5.49926">
        <ele>1631.01</ele>
        <time>2014-08-08T12:29:59Z</time>
      </trkpt>
      <trkpt lat="44.84681" lon="5.49911">
        <ele>1630.05</ele>
        <time>2014-08-08T12:30:16Z</time>
      </trkpt>
      <trkpt lat="44.84697" lon="5.499">
        <ele>1628.61</ele>
        <time>2014-08-08T12:30:36Z</time>
      </trkpt>
      <trkpt lat="44.84708" lon="5.49885">
        <ele>1627.17</ele>
        <time>2014-08-08T12:30:52Z</time>
      </trkpt>
      <trkpt lat="44.8472" lon="5.49873">
        <ele>1625.73</ele>
        <time>2014-08-08T12:31:09Z</time>
      </trkpt>
      <trkpt lat="44.84728" lon="5.49848">
        <ele>1623.32</ele>
        <time>2014-08-08T12:31:28Z</time>
      </trkpt>
      <trkpt lat="44.84731" lon="5.49837">
        <ele>1622.84</ele>
        <time>2014-08-08T12:31:36Z</time>
      </trkpt>
      <trkpt lat="44.84734" lon="5.49824">
        <ele>1621.4</ele>
        <time>2014-08-08T12:31:45Z</time>
      </trkpt>
      <trkpt lat="44.84747" lon="5.49807">
        <ele>1619.48</ele>
        <time>2014-08-08T12:32:02Z</time>
      </trkpt>
      <trkpt lat="44.84762" lon="5.49798">
        <ele>1618.52</ele>
        <time>2014-08-08T12:32:21Z</time>
      </trkpt>
      <trkpt lat="44.84769" lon="5.49782">
        <ele>1617.56</ele>
        <time>2014-08-08T12:32:38Z</time>
      </trkpt>
      <trkpt lat="44.84779" lon="5.49763">
        <ele>1615.63</ele>
        <time>2014-08-08T12:32:56Z</time>
      </trkpt>
      <trkpt lat="44.8479" lon="5.49743">
        <ele>1614.19</ele>
        <time>2014-08-08T12:33:15Z</time>
      </trkpt>
      <trkpt lat="44.84803" lon="5.49731">
        <ele>1612.75</ele>
        <time>2014-08-08T12:33:30Z</time>
      </trkpt>
      <trkpt lat="44.84803" lon="5.49727">
        <ele>1612.75</ele>
        <time>2014-08-08T12:33:33Z</time>
      </trkpt>
      <trkpt lat="44.84819" lon="5.4971">
        <ele>1611.79</ele>
        <time>2014-08-08T12:33:50Z</time>
      </trkpt>
      <trkpt lat="44.84834" lon="5.49713">
        <ele>1610.35</ele>
        <time>2014-08-08T12:34:06Z</time>
      </trkpt>
      <trkpt lat="44.84842" lon="5.49715">
        <ele>1609.86</ele>
        <time>2014-08-08T12:34:22Z</time>
      </trkpt>
      <trkpt lat="44.84842" lon="5.49718">
        <ele>1609.86</ele>
        <time>2014-08-08T12:34:39Z</time>
      </trkpt>
      <trkpt lat="44.84838" lon="5.4972">
        <ele>1609.86</ele>
        <time>2014-08-08T12:34:59Z</time>
      </trkpt>
      <trkpt lat="44.84838" lon="5.49722">
        <ele>1609.38</ele>
        <time>2014-08-08T12:35:31Z</time>
      </trkpt>
      <trkpt lat="44.8484" lon="5.49726">
        <ele>1609.38</ele>
        <time>2014-08-08T12:35:52Z</time>
      </trkpt>
      <trkpt lat="44.84842" lon="5.49728">
        <ele>1608.9</ele>
        <time>2014-08-08T12:36:20Z</time>
      </trkpt>
      <trkpt lat="44.84836" lon="5.49726">
        <ele>1609.38</ele>
        <time>2014-08-08T12:36:36Z</time>
      </trkpt>
      <trkpt lat="44.84836" lon="5.49722">
        <ele>1608.9</ele>
        <time>2014-08-08T12:37:04Z</time>
      </trkpt>
      <trkpt lat="44.84838" lon="5.49718">
        <ele>1608.42</ele>
        <time>2014-08-08T12:37:20Z</time>
      </trkpt>
      <trkpt lat="44.84841" lon="5.49714">
        <ele>1607.46</ele>
        <time>2014-08-08T12:37:40Z</time>
      </trkpt>
      <trkpt lat="44.84841" lon="5.49706">
        <ele>1607.46</ele>
        <time>2014-08-08T12:37:59Z</time>
      </trkpt>
      <trkpt lat="44.84844" lon="5.49714">
        <ele>1607.46</ele>
        <time>2014-08-08T12:38:27Z</time>
      </trkpt>
      <trkpt lat="44.84847" lon="5.49689">
        <ele>1606.02</ele>
        <time>2014-08-08T12:38:52Z</time>
      </trkpt>
      <trkpt lat="44.84852" lon="5.49675">
        <ele>1605.06</ele>
        <time>2014-08-08T12:39:04Z</time>
      </trkpt>
      <trkpt lat="44.84864" lon="5.49654">
        <ele>1603.14</ele>
        <time>2014-08-08T12:39:19Z</time>
      </trkpt>
      <trkpt lat="44.84875" lon="5.49631">
        <ele>1602.17</ele>
        <time>2014-08-08T12:39:36Z</time>
      </trkpt>
      <trkpt lat="44.84877" lon="5.49624">
        <ele>1601.69</ele>
        <time>2014-08-08T12:39:42Z</time>
      </trkpt>
      <trkpt lat="44.8489" lon="5.49607">
        <ele>1600.73</ele>
        <time>2014-08-08T12:39:58Z</time>
      </trkpt>
      <trkpt lat="44.849" lon="5.49591">
        <ele>1599.29</ele>
        <time>2014-08-08T12:40:13Z</time>
      </trkpt>
      <trkpt lat="44.84914" lon="5.49571">
        <ele>1598.81</ele>
        <time>2014-08-08T12:40:31Z</time>
      </trkpt>
      <trkpt lat="44.84927" lon="5.49551">
        <ele>1597.37</ele>
        <time>2014-08-08T12:40:47Z</time>
      </trkpt>
      <trkpt lat="44.8493" lon="5.49543">
        <ele>1596.89</ele>
        <time>2014-08-08T12:40:53Z</time>
      </trkpt>
      <trkpt lat="44.84942" lon="5.49522">
        <ele>1596.41</ele>
        <time>2014-08-08T12:41:12Z</time>
      </trkpt>
      <trkpt lat="44.84954" lon="5.495">
        <ele>1596.41</ele>
        <time>2014-08-08T12:41:30Z</time>
      </trkpt>
      <trkpt lat="44.84956" lon="5.49478">
        <ele>1596.89</ele>
        <time>2014-08-08T12:41:47Z</time>
      </trkpt>
      <trkpt lat="44.84958" lon="5.49458">
        <ele>1595.93</ele>
        <time>2014-08-08T12:42:02Z</time>
      </trkpt>
      <trkpt lat="44.84965" lon="5.49441">
        <ele>1594.48</ele>
        <time>2014-08-08T12:42:17Z</time>
      </trkpt>
      <trkpt lat="44.84969" lon="5.49432">
        <ele>1593.52</ele>
        <time>2014-08-08T12:42:23Z</time>
      </trkpt>
      <trkpt lat="44.8498" lon="5.49411">
        <ele>1592.08</ele>
        <time>2014-08-08T12:42:39Z</time>
      </trkpt>
      <trkpt lat="44.84988" lon="5.49392">
        <ele>1590.16</ele>
        <time>2014-08-08T12:42:55Z</time>
      </trkpt>
      <trkpt lat="44.84989" lon="5.4939">
        <ele>1591.12</ele>
        <time>2014-08-08T12:42:57Z</time>
      </trkpt>
      <trkpt lat="44.84994" lon="5.49368">
        <ele>1592.08</ele>
        <time>2014-08-08T12:43:12Z</time>
      </trkpt>
      <trkpt lat="44.84994" lon="5.49344">
        <ele>1591.6</ele>
        <time>2014-08-08T12:43:27Z</time>
      </trkpt>
      <trkpt lat="44.84999" lon="5.49327">
        <ele>1590.64</ele>
        <time>2014-08-08T12:43:41Z</time>
      </trkpt>
      <trkpt lat="44.85006" lon="5.4931">
        <ele>1590.64</ele>
        <time>2014-08-08T12:43:56Z</time>
      </trkpt>
      <trkpt lat="44.85012" lon="5.49286">
        <ele>1590.16</ele>
        <time>2014-08-08T12:44:12Z</time>
      </trkpt>
      <trkpt lat="44.85018" lon="5.49261">
        <ele>1590.64</ele>
        <time>2014-08-08T12:44:28Z</time>
      </trkpt>
      <trkpt lat="44.85028" lon="5.49239">
        <ele>1590.64</ele>
        <time>2014-08-08T12:44:48Z</time>
      </trkpt>
      <trkpt lat="44.85031" lon="5.4922">
        <ele>1592.08</ele>
        <time>2014-08-08T12:45:05Z</time>
      </trkpt>
      <trkpt lat="44.85038" lon="5.49209">
        <ele>1592.56</ele>
        <time>2014-08-08T12:45:20Z</time>
      </trkpt>
      <trkpt lat="44.85036" lon="5.49189">
        <ele>1592.08</ele>
        <time>2014-08-08T12:45:36Z</time>
      </trkpt>
      <trkpt lat="44.85037" lon="5.49169">
        <ele>1591.6</ele>
        <time>2014-08-08T12:45:50Z</time>
      </trkpt>
      <trkpt lat="44.85038" lon="5.49147">
        <ele>1590.64</ele>
        <time>2014-08-08T12:46:06Z</time>
      </trkpt>
      <trkpt lat="44.8504" lon="5.49133">
        <ele>1591.6</ele>
        <time>2014-08-08T12:46:21Z</time>
      </trkpt>
      <trkpt lat="44.85038" lon="5.49107">
        <ele>1591.6</ele>
        <time>2014-08-08T12:46:38Z</time>
      </trkpt>
      <trkpt lat="44.85038" lon="5.49106">
        <ele>1591.12</ele>
        <time>2014-08-08T12:46:39Z</time>
      </trkpt>
      <trkpt lat="44.85038" lon="5.49089">
        <ele>1589.68</ele>
        <time>2014-08-08T12:46:54Z</time>
      </trkpt>
      <trkpt lat="44.8504" lon="5.49066">
        <ele>1588.72</ele>
        <time>2014-08-08T12:47:10Z</time>
      </trkpt>
      <trkpt lat="44.85049" lon="5.4904">
        <ele>1587.75</ele>
        <time>2014-08-08T12:47:30Z</time>
      </trkpt>
      <trkpt lat="44.85056" lon="5.4903">
        <ele>1587.75</ele>
        <time>2014-08-08T12:47:42Z</time>
      </trkpt>
      <trkpt lat="44.85063" lon="5.49008">
        <ele>1587.27</ele>
        <time>2014-08-08T12:47:58Z</time>
      </trkpt>
      <trkpt lat="44.8507" lon="5.48988">
        <ele>1586.79</ele>
        <time>2014-08-08T12:48:15Z</time>
      </trkpt>
      <trkpt lat="44.8507" lon="5.48974">
        <ele>1585.35</ele>
        <time>2014-08-08T12:48:24Z</time>
      </trkpt>
      <trkpt lat="44.85069" lon="5.48946">
        <ele>1584.87</ele>
        <time>2014-08-08T12:48:42Z</time>
      </trkpt>
      <trkpt lat="44.85068" lon="5.48922">
        <ele>1583.91</ele>
        <time>2014-08-08T12:48:56Z</time>
      </trkpt>
      <trkpt lat="44.85065" lon="5.48891">
        <ele>1583.43</ele>
        <time>2014-08-08T12:49:15Z</time>
      </trkpt>
      <trkpt lat="44.85064" lon="5.48881">
        <ele>1582.47</ele>
        <time>2014-08-08T12:49:24Z</time>
      </trkpt>
      <trkpt lat="44.85064" lon="5.48878">
        <ele>1581.51</ele>
        <time>2014-08-08T12:49:26Z</time>
      </trkpt>
      <trkpt lat="44.85065" lon="5.48871">
        <ele>1580.06</ele>
        <time>2014-08-08T12:49:31Z</time>
      </trkpt>
      <trkpt lat="44.8506" lon="5.48848">
        <ele>1579.58</ele>
        <time>2014-08-08T12:49:47Z</time>
      </trkpt>
      <trkpt lat="44.85061" lon="5.48837">
        <ele>1578.62</ele>
        <time>2014-08-08T12:49:58Z</time>
      </trkpt>
      <trkpt lat="44.85057" lon="5.48835">
        <ele>1580.06</ele>
        <time>2014-08-08T12:50:11Z</time>
      </trkpt>
      <trkpt lat="44.85055" lon="5.48837">
        <ele>1579.1</ele>
        <time>2014-08-08T12:50:27Z</time>
      </trkpt>
      <trkpt lat="44.85055" lon="5.48836">
        <ele>1579.1</ele>
        <time>2014-08-08T12:50:47Z</time>
      </trkpt>
      <trkpt lat="44.85053" lon="5.48838">
        <ele>1579.1</ele>
        <time>2014-08-08T12:51:05Z</time>
      </trkpt>
      <trkpt lat="44.85054" lon="5.48838">
        <ele>1578.62</ele>
        <time>2014-08-08T12:51:18Z</time>
      </trkpt>
      <trkpt lat="44.85055" lon="5.48836">
        <ele>1577.66</ele>
        <time>2014-08-08T12:51:20Z</time>
      </trkpt>
      <trkpt lat="44.85055" lon="5.48835">
        <ele>1579.58</ele>
        <time>2014-08-08T12:51:22Z</time>
      </trkpt>
      <trkpt lat="44.85061" lon="5.48834">
        <ele>1578.62</ele>
        <time>2014-08-08T12:51:38Z</time>
      </trkpt>
      <trkpt lat="44.85061" lon="5.48835">
        <ele>1578.62</ele>
        <time>2014-08-08T12:52:01Z</time>
      </trkpt>
      <trkpt lat="44.85058" lon="5.48831">
        <ele>1578.14</ele>
        <time>2014-08-08T12:52:21Z</time>
      </trkpt>
      <trkpt lat="44.85056" lon="5.48834">
        <ele>1578.14</ele>
        <time>2014-08-08T12:52:38Z</time>
      </trkpt>
      <trkpt lat="44.85058" lon="5.48831">
        <ele>1578.62</ele>
        <time>2014-08-08T12:53:03Z</time>
      </trkpt>
      <trkpt lat="44.85058" lon="5.48834">
        <ele>1578.14</ele>
        <time>2014-08-08T12:53:27Z</time>
      </trkpt>
      <trkpt lat="44.85058" lon="5.48835">
        <ele>1577.66</ele>
        <time>2014-08-08T12:53:55Z</time>
      </trkpt>
      <trkpt lat="44.85057" lon="5.48833">
        <ele>1578.14</ele>
        <time>2014-08-08T12:54:16Z</time>
      </trkpt>
      <trkpt lat="44.85055" lon="5.48832">
        <ele>1578.14</ele>
        <time>2014-08-08T12:54:31Z</time>
      </trkpt>
      <trkpt lat="44.85058" lon="5.48836">
        <ele>1578.14</ele>
        <time>2014-08-08T12:54:48Z</time>
      </trkpt>
      <trkpt lat="44.85058" lon="5.48839">
        <ele>1578.14</ele>
        <time>2014-08-08T12:55:05Z</time>
      </trkpt>
      <trkpt lat="44.85059" lon="5.48837">
        <ele>1577.18</ele>
        <time>2014-08-08T12:55:36Z</time>
      </trkpt>
      <trkpt lat="44.8506" lon="5.48835">
        <ele>1577.66</ele>
        <time>2014-08-08T12:56:10Z</time>
      </trkpt>
      <trkpt lat="44.8506" lon="5.48839">
        <ele>1577.18</ele>
        <time>2014-08-08T12:56:38Z</time>
      </trkpt>
      <trkpt lat="44.85058" lon="5.48838">
        <ele>1569.97</ele>
        <time>2014-08-08T12:56:49Z</time>
      </trkpt>
      <trkpt lat="44.85058" lon="5.48839">
        <ele>1577.18</ele>
        <time>2014-08-08T12:56:50Z</time>
      </trkpt>
      <trkpt lat="44.85059" lon="5.4884">
        <ele>1584.87</ele>
        <time>2014-08-08T12:56:51Z</time>
      </trkpt>
      <trkpt lat="44.8506" lon="5.4884">
        <ele>1577.66</ele>
        <time>2014-08-08T12:56:52Z</time>
      </trkpt>
      <trkpt lat="44.85062" lon="5.48839">
        <ele>1578.14</ele>
        <time>2014-08-08T12:57:23Z</time>
      </trkpt>
      <trkpt lat="44.8506" lon="5.48838">
        <ele>1577.66</ele>
        <time>2014-08-08T12:57:59Z</time>
      </trkpt>
      <trkpt lat="44.85059" lon="5.48838">
        <ele>1577.18</ele>
        <time>2014-08-08T12:58:27Z</time>
      </trkpt>
      <trkpt lat="44.85058" lon="5.48839">
        <ele>1576.22</ele>
        <time>2014-08-08T12:59:00Z</time>
      </trkpt>
      <trkpt lat="44.85056" lon="5.48834">
        <ele>1576.7</ele>
        <time>2014-08-08T12:59:23Z</time>
      </trkpt>
      <trkpt lat="44.85052" lon="5.48816">
        <ele>1575.74</ele>
        <time>2014-08-08T12:59:41Z</time>
      </trkpt>
      <trkpt lat="44.85054" lon="5.48818">
        <ele>1576.22</ele>
        <time>2014-08-08T12:59:55Z</time>
      </trkpt>
      <trkpt lat="44.8505" lon="5.48809">
        <ele>1575.74</ele>
        <time>2014-08-08T13:00:04Z</time>
      </trkpt>
      <trkpt lat="44.85046" lon="5.48792">
        <ele>1574.78</ele>
        <time>2014-08-08T13:00:19Z</time>
      </trkpt>
      <trkpt lat="44.85047" lon="5.4879">
        <ele>1574.78</ele>
        <time>2014-08-08T13:00:20Z</time>
      </trkpt>
      <trkpt lat="44.85045" lon="5.48786">
        <ele>1574.78</ele>
        <time>2014-08-08T13:00:25Z</time>
      </trkpt>
      <trkpt lat="44.85041" lon="5.48785">
        <ele>1574.78</ele>
        <time>2014-08-08T13:00:29Z</time>
      </trkpt>
      <trkpt lat="44.8503" lon="5.48773">
        <ele>1575.26</ele>
        <time>2014-08-08T13:00:44Z</time>
      </trkpt>
      <trkpt lat="44.85028" lon="5.48771">
        <ele>1575.74</ele>
        <time>2014-08-08T13:00:46Z</time>
      </trkpt>
      <trkpt lat="44.85013" lon="5.48757">
        <ele>1573.33</ele>
        <time>2014-08-08T13:01:05Z</time>
      </trkpt>
      <trkpt lat="44.85012" lon="5.48755">
        <ele>1573.33</ele>
        <time>2014-08-08T13:01:07Z</time>
      </trkpt>
      <trkpt lat="44.85008" lon="5.48752">
        <ele>1573.33</ele>
        <time>2014-08-08T13:01:11Z</time>
      </trkpt>
      <trkpt lat="44.84999" lon="5.48752">
        <ele>1573.33</ele>
        <time>2014-08-08T13:01:19Z</time>
      </trkpt>
      <trkpt lat="44.84987" lon="5.48732">
        <ele>1572.85</ele>
        <time>2014-08-08T13:01:35Z</time>
      </trkpt>
      <trkpt lat="44.84971" lon="5.48725">
        <ele>1574.3</ele>
        <time>2014-08-08T13:01:49Z</time>
      </trkpt>
      <trkpt lat="44.84952" lon="5.48713">
        <ele>1574.3</ele>
        <time>2014-08-08T13:02:06Z</time>
      </trkpt>
      <trkpt lat="44.84934" lon="5.48704">
        <ele>1575.74</ele>
        <time>2014-08-08T13:02:24Z</time>
      </trkpt>
      <trkpt lat="44.84913" lon="5.48687">
        <ele>1576.7</ele>
        <time>2014-08-08T13:02:44Z</time>
      </trkpt>
      <trkpt lat="44.84897" lon="5.48676">
        <ele>1576.7</ele>
        <time>2014-08-08T13:03:00Z</time>
      </trkpt>
      <trkpt lat="44.84879" lon="5.48665">
        <ele>1578.62</ele>
        <time>2014-08-08T13:03:18Z</time>
      </trkpt>
      <trkpt lat="44.84864" lon="5.48651">
        <ele>1578.62</ele>
        <time>2014-08-08T13:03:33Z</time>
      </trkpt>
      <trkpt lat="44.84851" lon="5.4864">
        <ele>1578.14</ele>
        <time>2014-08-08T13:03:51Z</time>
      </trkpt>
      <trkpt lat="44.84846" lon="5.48635">
        <ele>1575.26</ele>
        <time>2014-08-08T13:03:57Z</time>
      </trkpt>
      <trkpt lat="44.84843" lon="5.48634">
        <ele>1578.62</ele>
        <time>2014-08-08T13:04:01Z</time>
      </trkpt>
      <trkpt lat="44.8484" lon="5.48632">
        <ele>1574.3</ele>
        <time>2014-08-08T13:04:04Z</time>
      </trkpt>
      <trkpt lat="44.8484" lon="5.48632">
        <ele>1578.62</ele>
        <time>2014-08-08T13:04:05Z</time>
      </trkpt>
      <trkpt lat="44.84826" lon="5.48616">
        <ele>1579.58</ele>
        <time>2014-08-08T13:04:22Z</time>
      </trkpt>
      <trkpt lat="44.84804" lon="5.48598">
        <ele>1579.58</ele>
        <time>2014-08-08T13:04:42Z</time>
      </trkpt>
      <trkpt lat="44.84786" lon="5.48582">
        <ele>1580.54</ele>
        <time>2014-08-08T13:04:59Z</time>
      </trkpt>
      <trkpt lat="44.8477" lon="5.48567">
        <ele>1581.51</ele>
        <time>2014-08-08T13:05:16Z</time>
      </trkpt>
      <trkpt lat="44.84751" lon="5.48557">
        <ele>1581.99</ele>
        <time>2014-08-08T13:05:33Z</time>
      </trkpt>
      <trkpt lat="44.84734" lon="5.48546">
        <ele>1581.99</ele>
        <time>2014-08-08T13:05:50Z</time>
      </trkpt>
      <trkpt lat="44.84715" lon="5.48537">
        <ele>1582.95</ele>
        <time>2014-08-08T13:06:07Z</time>
      </trkpt>
      <trkpt lat="44.847" lon="5.48529">
        <ele>1583.91</ele>
        <time>2014-08-08T13:06:23Z</time>
      </trkpt>
      <trkpt lat="44.84679" lon="5.48522">
        <ele>1584.39</ele>
        <time>2014-08-08T13:06:42Z</time>
      </trkpt>
      <trkpt lat="44.84665" lon="5.48514">
        <ele>1584.87</ele>
        <time>2014-08-08T13:06:57Z</time>
      </trkpt>
      <trkpt lat="44.84659" lon="5.48515">
        <ele>1584.87</ele>
        <time>2014-08-08T13:07:12Z</time>
      </trkpt>
      <trkpt lat="44.84646" lon="5.48519">
        <ele>1584.87</ele>
        <time>2014-08-08T13:07:27Z</time>
      </trkpt>
      <trkpt lat="44.84628" lon="5.48524">
        <ele>1583.91</ele>
        <time>2014-08-08T13:07:44Z</time>
      </trkpt>
      <trkpt lat="44.84613" lon="5.48523">
        <ele>1584.87</ele>
        <time>2014-08-08T13:08:00Z</time>
      </trkpt>
      <trkpt lat="44.84605" lon="5.4853">
        <ele>1585.83</ele>
        <time>2014-08-08T13:08:08Z</time>
      </trkpt>
      <trkpt lat="44.84586" lon="5.4853">
        <ele>1584.87</ele>
        <time>2014-08-08T13:08:27Z</time>
      </trkpt>
      <trkpt lat="44.84582" lon="5.48529">
        <ele>1584.39</ele>
        <time>2014-08-08T13:08:31Z</time>
      </trkpt>
      <trkpt lat="44.84568" lon="5.48521">
        <ele>1584.39</ele>
        <time>2014-08-08T13:08:48Z</time>
      </trkpt>
      <trkpt lat="44.84552" lon="5.48521">
        <ele>1581.99</ele>
        <time>2014-08-08T13:09:04Z</time>
      </trkpt>
      <trkpt lat="44.84535" lon="5.48525">
        <ele>1580.54</ele>
        <time>2014-08-08T13:09:21Z</time>
      </trkpt>
      <trkpt lat="44.8453" lon="5.48527">
        <ele>1580.06</ele>
        <time>2014-08-08T13:09:25Z</time>
      </trkpt>
      <trkpt lat="44.84514" lon="5.48528">
        <ele>1580.06</ele>
        <time>2014-08-08T13:09:38Z</time>
      </trkpt>
      <trkpt lat="44.84497" lon="5.4851">
        <ele>1580.54</ele>
        <time>2014-08-08T13:09:56Z</time>
      </trkpt>
      <trkpt lat="44.84481" lon="5.48501">
        <ele>1578.14</ele>
        <time>2014-08-08T13:10:13Z</time>
      </trkpt>
      <trkpt lat="44.84466" lon="5.48494">
        <ele>1579.58</ele>
        <time>2014-08-08T13:10:26Z</time>
      </trkpt>
      <trkpt lat="44.84453" lon="5.48486">
        <ele>1580.54</ele>
        <time>2014-08-08T13:10:41Z</time>
      </trkpt>
      <trkpt lat="44.84435" lon="5.48474">
        <ele>1580.06</ele>
        <time>2014-08-08T13:10:59Z</time>
      </trkpt>
      <trkpt lat="44.84416" lon="5.48463">
        <ele>1581.03</ele>
        <time>2014-08-08T13:11:18Z</time>
      </trkpt>
      <trkpt lat="44.84399" lon="5.48457">
        <ele>1582.47</ele>
        <time>2014-08-08T13:11:36Z</time>
      </trkpt>
      <trkpt lat="44.84381" lon="5.48446">
        <ele>1583.91</ele>
        <time>2014-08-08T13:11:53Z</time>
      </trkpt>
      <trkpt lat="44.84362" lon="5.48432">
        <ele>1585.35</ele>
        <time>2014-08-08T13:12:10Z</time>
      </trkpt>
      <trkpt lat="44.84348" lon="5.48421">
        <ele>1585.83</ele>
        <time>2014-08-08T13:12:28Z</time>
      </trkpt>
      <trkpt lat="44.84346" lon="5.48421">
        <ele>1586.79</ele>
        <time>2014-08-08T13:12:47Z</time>
      </trkpt>
      <trkpt lat="44.84346" lon="5.4842">
        <ele>1585.83</ele>
        <time>2014-08-08T13:13:11Z</time>
      </trkpt>
      <trkpt lat="44.84341" lon="5.48425">
        <ele>1586.31</ele>
        <time>2014-08-08T13:13:32Z</time>
      </trkpt>
      <trkpt lat="44.84343" lon="5.48421">
        <ele>1585.83</ele>
        <time>2014-08-08T13:13:57Z</time>
      </trkpt>
      <trkpt lat="44.8434" lon="5.48421">
        <ele>1585.83</ele>
        <time>2014-08-08T13:14:21Z</time>
      </trkpt>
      <trkpt lat="44.84329" lon="5.48416">
        <ele>1586.31</ele>
        <time>2014-08-08T13:14:41Z</time>
      </trkpt>
      <trkpt lat="44.84314" lon="5.48419">
        <ele>1587.27</ele>
        <time>2014-08-08T13:14:57Z</time>
      </trkpt>
      <trkpt lat="44.84308" lon="5.48416">
        <ele>1588.24</ele>
        <time>2014-08-08T13:15:02Z</time>
      </trkpt>
      <trkpt lat="44.84294" lon="5.4841">
        <ele>1588.72</ele>
        <time>2014-08-08T13:15:19Z</time>
      </trkpt>
      <trkpt lat="44.84284" lon="5.48403">
        <ele>1588.72</ele>
        <time>2014-08-08T13:15:32Z</time>
      </trkpt>
      <trkpt lat="44.84268" lon="5.48391">
        <ele>1590.64</ele>
        <time>2014-08-08T13:15:50Z</time>
      </trkpt>
      <trkpt lat="44.84255" lon="5.48385">
        <ele>1591.6</ele>
        <time>2014-08-08T13:16:06Z</time>
      </trkpt>
      <trkpt lat="44.8424" lon="5.48372">
        <ele>1591.12</ele>
        <time>2014-08-08T13:16:24Z</time>
      </trkpt>
      <trkpt lat="44.84221" lon="5.48361">
        <ele>1594</ele>
        <time>2014-08-08T13:16:42Z</time>
      </trkpt>
      <trkpt lat="44.84206" lon="5.48363">
        <ele>1595.45</ele>
        <time>2014-08-08T13:16:59Z</time>
      </trkpt>
      <trkpt lat="44.84194" lon="5.48361">
        <ele>1595.93</ele>
        <time>2014-08-08T13:17:16Z</time>
      </trkpt>
      <trkpt lat="44.84185" lon="5.48359">
        <ele>1597.37</ele>
        <time>2014-08-08T13:17:31Z</time>
      </trkpt>
      <trkpt lat="44.84167" lon="5.48361">
        <ele>1598.33</ele>
        <time>2014-08-08T13:17:51Z</time>
      </trkpt>
      <trkpt lat="44.84154" lon="5.48361">
        <ele>1601.21</ele>
        <time>2014-08-08T13:18:04Z</time>
      </trkpt>
      <trkpt lat="44.84136" lon="5.48357">
        <ele>1603.14</ele>
        <time>2014-08-08T13:18:22Z</time>
      </trkpt>
      <trkpt lat="44.84133" lon="5.48358">
        <ele>1604.1</ele>
        <time>2014-08-08T13:18:26Z</time>
      </trkpt>
      <trkpt lat="44.84117" lon="5.48355">
        <ele>1605.54</ele>
        <time>2014-08-08T13:18:45Z</time>
      </trkpt>
      <trkpt lat="44.84101" lon="5.48354">
        <ele>1606.02</ele>
        <time>2014-08-08T13:19:00Z</time>
      </trkpt>
      <trkpt lat="44.84085" lon="5.48352">
        <ele>1608.9</ele>
        <time>2014-08-08T13:19:17Z</time>
      </trkpt>
      <trkpt lat="44.84066" lon="5.48354">
        <ele>1610.35</ele>
        <time>2014-08-08T13:19:36Z</time>
      </trkpt>
      <trkpt lat="44.8405" lon="5.48347">
        <ele>1613.23</ele>
        <time>2014-08-08T13:19:54Z</time>
      </trkpt>
      <trkpt lat="44.84037" lon="5.48333">
        <ele>1614.67</ele>
        <time>2014-08-08T13:20:09Z</time>
      </trkpt>
      <trkpt lat="44.84022" lon="5.48328">
        <ele>1616.59</ele>
        <time>2014-08-08T13:20:27Z</time>
      </trkpt>
      <trkpt lat="44.84002" lon="5.48323">
        <ele>1618.04</ele>
        <time>2014-08-08T13:20:47Z</time>
      </trkpt>
      <trkpt lat="44.83987" lon="5.4831">
        <ele>1618.52</ele>
        <time>2014-08-08T13:21:04Z</time>
      </trkpt>
      <trkpt lat="44.83972" lon="5.48299">
        <ele>1619</ele>
        <time>2014-08-08T13:21:20Z</time>
      </trkpt>
      <trkpt lat="44.83956" lon="5.4829">
        <ele>1619.96</ele>
        <time>2014-08-08T13:21:38Z</time>
      </trkpt>
      <trkpt lat="44.83936" lon="5.48272">
        <ele>1620.44</ele>
        <time>2014-08-08T13:21:58Z</time>
      </trkpt>
      <trkpt lat="44.83921" lon="5.48262">
        <ele>1621.4</ele>
        <time>2014-08-08T13:22:15Z</time>
      </trkpt>
      <trkpt lat="44.83899" lon="5.48251">
        <ele>1621.88</ele>
        <time>2014-08-08T13:22:33Z</time>
      </trkpt>
      <trkpt lat="44.83884" lon="5.48239">
        <ele>1622.36</ele>
        <time>2014-08-08T13:22:49Z</time>
      </trkpt>
      <trkpt lat="44.83865" lon="5.48223">
        <ele>1622.84</ele>
        <time>2014-08-08T13:23:07Z</time>
      </trkpt>
      <trkpt lat="44.83848" lon="5.48215">
        <ele>1623.8</ele>
        <time>2014-08-08T13:23:24Z</time>
      </trkpt>
      <trkpt lat="44.83831" lon="5.48212">
        <ele>1623.8</ele>
        <time>2014-08-08T13:23:41Z</time>
      </trkpt>
      <trkpt lat="44.83815" lon="5.48206">
        <ele>1624.28</ele>
        <time>2014-08-08T13:23:56Z</time>
      </trkpt>
      <trkpt lat="44.83795" lon="5.48202">
        <ele>1625.25</ele>
        <time>2014-08-08T13:24:15Z</time>
      </trkpt>
      <trkpt lat="44.83771" lon="5.48192">
        <ele>1626.21</ele>
        <time>2014-08-08T13:24:35Z</time>
      </trkpt>
      <trkpt lat="44.83767" lon="5.48192">
        <ele>1625.73</ele>
        <time>2014-08-08T13:24:38Z</time>
      </trkpt>
      <trkpt lat="44.83743" lon="5.48191">
        <ele>1626.69</ele>
        <time>2014-08-08T13:24:58Z</time>
      </trkpt>
      <trkpt lat="44.83726" lon="5.48191">
        <ele>1625.73</ele>
        <time>2014-08-08T13:25:15Z</time>
      </trkpt>
      <trkpt lat="44.83708" lon="5.48191">
        <ele>1624.28</ele>
        <time>2014-08-08T13:25:33Z</time>
      </trkpt>
      <trkpt lat="44.83697" lon="5.48191">
        <ele>1625.25</ele>
        <time>2014-08-08T13:25:40Z</time>
      </trkpt>
      <trkpt lat="44.83676" lon="5.48184">
        <ele>1624.28</ele>
        <time>2014-08-08T13:25:57Z</time>
      </trkpt>
      <trkpt lat="44.83678" lon="5.48172">
        <ele>1623.8</ele>
        <time>2014-08-08T13:26:15Z</time>
      </trkpt>
      <trkpt lat="44.83676" lon="5.48175">
        <ele>1624.77</ele>
        <time>2014-08-08T13:26:26Z</time>
      </trkpt>
      <trkpt lat="44.83674" lon="5.48182">
        <ele>1625.25</ele>
        <time>2014-08-08T13:26:45Z</time>
      </trkpt>
      <trkpt lat="44.83672" lon="5.48183">
        <ele>1624.77</ele>
        <time>2014-08-08T13:27:14Z</time>
      </trkpt>
      <trkpt lat="44.83669" lon="5.48182">
        <ele>1624.28</ele>
        <time>2014-08-08T13:27:34Z</time>
      </trkpt>
      <trkpt lat="44.83657" lon="5.48174">
        <ele>1626.21</ele>
        <time>2014-08-08T13:27:54Z</time>
      </trkpt>
      <trkpt lat="44.83657" lon="5.48174">
        <ele>1622.84</ele>
        <time>2014-08-08T13:28:04Z</time>
      </trkpt>
      <trkpt lat="44.83657" lon="5.48174">
        <ele>1627.65</ele>
        <time>2014-08-08T13:28:05Z</time>
      </trkpt>
      <trkpt lat="44.83657" lon="5.48174">
        <ele>1625.73</ele>
        <time>2014-08-08T13:28:08Z</time>
      </trkpt>
      <trkpt lat="44.83658" lon="5.48174">
        <ele>1626.21</ele>
        <time>2014-08-08T13:28:12Z</time>
      </trkpt>
      <trkpt lat="44.83656" lon="5.48168">
        <ele>1625.73</ele>
        <time>2014-08-08T13:28:20Z</time>
      </trkpt>
      <trkpt lat="44.83653" lon="5.48152">
        <ele>1625.25</ele>
        <time>2014-08-08T13:28:35Z</time>
      </trkpt>
      <trkpt lat="44.83651" lon="5.48144">
        <ele>1624.77</ele>
        <time>2014-08-08T13:28:56Z</time>
      </trkpt>
      <trkpt lat="44.83645" lon="5.48129">
        <ele>1625.73</ele>
        <time>2014-08-08T13:29:13Z</time>
      </trkpt>
      <trkpt lat="44.83643" lon="5.48117">
        <ele>1625.25</ele>
        <time>2014-08-08T13:29:22Z</time>
      </trkpt>
      <trkpt lat="44.8364" lon="5.48112">
        <ele>1622.36</ele>
        <time>2014-08-08T13:29:26Z</time>
      </trkpt>
      <trkpt lat="44.83637" lon="5.48104">
        <ele>1623.32</ele>
        <time>2014-08-08T13:29:39Z</time>
      </trkpt>
      <trkpt lat="44.8363" lon="5.4809">
        <ele>1623.32</ele>
        <time>2014-08-08T13:29:58Z</time>
      </trkpt>
      <trkpt lat="44.83621" lon="5.48074">
        <ele>1625.25</ele>
        <time>2014-08-08T13:30:15Z</time>
      </trkpt>
      <trkpt lat="44.83614" lon="5.48058">
        <ele>1626.21</ele>
        <time>2014-08-08T13:30:29Z</time>
      </trkpt>
      <trkpt lat="44.8361" lon="5.48048">
        <ele>1626.69</ele>
        <time>2014-08-08T13:30:46Z</time>
      </trkpt>
      <trkpt lat="44.83608" lon="5.48052">
        <ele>1625.73</ele>
        <time>2014-08-08T13:30:55Z</time>
      </trkpt>
      <trkpt lat="44.83603" lon="5.48056">
        <ele>1626.69</ele>
        <time>2014-08-08T13:31:01Z</time>
      </trkpt>
      <trkpt lat="44.83598" lon="5.4806">
        <ele>1626.69</ele>
        <time>2014-08-08T13:31:09Z</time>
      </trkpt>
      <trkpt lat="44.83589" lon="5.48077">
        <ele>1627.65</ele>
        <time>2014-08-08T13:31:25Z</time>
      </trkpt>
      <trkpt lat="44.83582" lon="5.48097">
        <ele>1628.13</ele>
        <time>2014-08-08T13:31:43Z</time>
      </trkpt>
      <trkpt lat="44.83568" lon="5.48121">
        <ele>1628.61</ele>
        <time>2014-08-08T13:32:02Z</time>
      </trkpt>
      <trkpt lat="44.83554" lon="5.48136">
        <ele>1628.13</ele>
        <time>2014-08-08T13:32:19Z</time>
      </trkpt>
      <trkpt lat="44.83548" lon="5.48141">
        <ele>1627.65</ele>
        <time>2014-08-08T13:32:26Z</time>
      </trkpt>
      <trkpt lat="44.83545" lon="5.4814">
        <ele>1627.17</ele>
        <time>2014-08-08T13:32:41Z</time>
      </trkpt>
      <trkpt lat="44.83533" lon="5.48143">
        <ele>1627.17</ele>
        <time>2014-08-08T13:33:07Z</time>
      </trkpt>
      <trkpt lat="44.83513" lon="5.48147">
        <ele>1628.13</ele>
        <time>2014-08-08T13:33:25Z</time>
      </trkpt>
      <trkpt lat="44.83491" lon="5.48155">
        <ele>1629.09</ele>
        <time>2014-08-08T13:33:44Z</time>
      </trkpt>
      <trkpt lat="44.83468" lon="5.48162">
        <ele>1630.05</ele>
        <time>2014-08-08T13:34:04Z</time>
      </trkpt>
      <trkpt lat="44.83452" lon="5.48166">
        <ele>1630.53</ele>
        <time>2014-08-08T13:34:20Z</time>
      </trkpt>
      <trkpt lat="44.83432" lon="5.48169">
        <ele>1629.57</ele>
        <time>2014-08-08T13:34:38Z</time>
      </trkpt>
      <trkpt lat="44.83431" lon="5.48169">
        <ele>1629.09</ele>
        <time>2014-08-08T13:34:39Z</time>
      </trkpt>
      <trkpt lat="44.83416" lon="5.48159">
        <ele>1627.17</ele>
        <time>2014-08-08T13:34:54Z</time>
      </trkpt>
      <trkpt lat="44.83402" lon="5.4815">
        <ele>1626.69</ele>
        <time>2014-08-08T13:35:09Z</time>
      </trkpt>
      <trkpt lat="44.83401" lon="5.48146">
        <ele>1626.21</ele>
        <time>2014-08-08T13:35:14Z</time>
      </trkpt>
      <trkpt lat="44.83399" lon="5.48139">
        <ele>1626.21</ele>
        <time>2014-08-08T13:35:18Z</time>
      </trkpt>
      <trkpt lat="44.83395" lon="5.48111">
        <ele>1623.32</ele>
        <time>2014-08-08T13:35:36Z</time>
      </trkpt>
      <trkpt lat="44.83384" lon="5.48091">
        <ele>1622.36</ele>
        <time>2014-08-08T13:35:54Z</time>
      </trkpt>
      <trkpt lat="44.83377" lon="5.48081">
        <ele>1621.4</ele>
        <time>2014-08-08T13:36:03Z</time>
      </trkpt>
      <trkpt lat="44.83375" lon="5.48078">
        <ele>1622.84</ele>
        <time>2014-08-08T13:36:06Z</time>
      </trkpt>
      <trkpt lat="44.83363" lon="5.48059">
        <ele>1620.44</ele>
        <time>2014-08-08T13:36:23Z</time>
      </trkpt>
      <trkpt lat="44.83347" lon="5.48038">
        <ele>1620.44</ele>
        <time>2014-08-08T13:36:42Z</time>
      </trkpt>
      <trkpt lat="44.83335" lon="5.48016">
        <ele>1620.92</ele>
        <time>2014-08-08T13:36:58Z</time>
      </trkpt>
      <trkpt lat="44.83322" lon="5.47997">
        <ele>1621.88</ele>
        <time>2014-08-08T13:37:15Z</time>
      </trkpt>
      <trkpt lat="44.83311" lon="5.47973">
        <ele>1622.36</ele>
        <time>2014-08-08T13:37:32Z</time>
      </trkpt>
      <trkpt lat="44.83312" lon="5.47941">
        <ele>1622.84</ele>
        <time>2014-08-08T13:37:51Z</time>
      </trkpt>
      <trkpt lat="44.83316" lon="5.47917">
        <ele>1623.8</ele>
        <time>2014-08-08T13:38:06Z</time>
      </trkpt>
      <trkpt lat="44.83319" lon="5.47891">
        <ele>1623.32</ele>
        <time>2014-08-08T13:38:23Z</time>
      </trkpt>
      <trkpt lat="44.83319" lon="5.47874">
        <ele>1622.84</ele>
        <time>2014-08-08T13:38:33Z</time>
      </trkpt>
      <trkpt lat="44.83311" lon="5.47851">
        <ele>1624.28</ele>
        <time>2014-08-08T13:38:50Z</time>
      </trkpt>
      <trkpt lat="44.83302" lon="5.47833">
        <ele>1624.77</ele>
        <time>2014-08-08T13:39:05Z</time>
      </trkpt>
      <trkpt lat="44.83294" lon="5.47808">
        <ele>1628.13</ele>
        <time>2014-08-08T13:39:25Z</time>
      </trkpt>
      <trkpt lat="44.8329" lon="5.47789">
        <ele>1629.57</ele>
        <time>2014-08-08T13:39:42Z</time>
      </trkpt>
      <trkpt lat="44.83281" lon="5.47766">
        <ele>1629.09</ele>
        <time>2014-08-08T13:40:00Z</time>
      </trkpt>
      <trkpt lat="44.83272" lon="5.47743">
        <ele>1629.57</ele>
        <time>2014-08-08T13:40:18Z</time>
      </trkpt>
      <trkpt lat="44.83263" lon="5.47729">
        <ele>1631.01</ele>
        <time>2014-08-08T13:40:34Z</time>
      </trkpt>
      <trkpt lat="44.83253" lon="5.47716">
        <ele>1634.38</ele>
        <time>2014-08-08T13:40:49Z</time>
      </trkpt>
      <trkpt lat="44.83238" lon="5.47702">
        <ele>1634.38</ele>
        <time>2014-08-08T13:41:07Z</time>
      </trkpt>
      <trkpt lat="44.83228" lon="5.47681">
        <ele>1634.86</ele>
        <time>2014-08-08T13:41:24Z</time>
      </trkpt>
      <trkpt lat="44.8322" lon="5.47665">
        <ele>1635.82</ele>
        <time>2014-08-08T13:41:38Z</time>
      </trkpt>
      <trkpt lat="44.83208" lon="5.47648">
        <ele>1637.26</ele>
        <time>2014-08-08T13:41:55Z</time>
      </trkpt>
      <trkpt lat="44.83198" lon="5.47632">
        <ele>1638.22</ele>
        <time>2014-08-08T13:42:12Z</time>
      </trkpt>
      <trkpt lat="44.83188" lon="5.47618">
        <ele>1638.7</ele>
        <time>2014-08-08T13:42:28Z</time>
      </trkpt>
      <trkpt lat="44.8317" lon="5.47604">
        <ele>1640.63</ele>
        <time>2014-08-08T13:42:47Z</time>
      </trkpt>
      <trkpt lat="44.8316" lon="5.47599">
        <ele>1640.63</ele>
        <time>2014-08-08T13:42:55Z</time>
      </trkpt>
      <trkpt lat="44.83151" lon="5.47592">
        <ele>1641.59</ele>
        <time>2014-08-08T13:43:07Z</time>
      </trkpt>
      <trkpt lat="44.83144" lon="5.47593">
        <ele>1641.59</ele>
        <time>2014-08-08T13:43:13Z</time>
      </trkpt>
      <trkpt lat="44.83127" lon="5.47585">
        <ele>1642.07</ele>
        <time>2014-08-08T13:43:30Z</time>
      </trkpt>
      <trkpt lat="44.83114" lon="5.47575">
        <ele>1643.03</ele>
        <time>2014-08-08T13:43:45Z</time>
      </trkpt>
      <trkpt lat="44.83103" lon="5.47571">
        <ele>1643.99</ele>
        <time>2014-08-08T13:44:01Z</time>
      </trkpt>
      <trkpt lat="44.83095" lon="5.4757">
        <ele>1643.51</ele>
        <time>2014-08-08T13:44:18Z</time>
      </trkpt>
      <trkpt lat="44.83094" lon="5.47569">
        <ele>1643.51</ele>
        <time>2014-08-08T13:44:19Z</time>
      </trkpt>
      <trkpt lat="44.83082" lon="5.47554">
        <ele>1645.43</ele>
        <time>2014-08-08T13:44:37Z</time>
      </trkpt>
      <trkpt lat="44.83069" lon="5.47538">
        <ele>1645.43</ele>
        <time>2014-08-08T13:44:54Z</time>
      </trkpt>
      <trkpt lat="44.83055" lon="5.47526">
        <ele>1643.51</ele>
        <time>2014-08-08T13:45:09Z</time>
      </trkpt>
      <trkpt lat="44.83038" lon="5.47517">
        <ele>1642.55</ele>
        <time>2014-08-08T13:45:25Z</time>
      </trkpt>
      <trkpt lat="44.83027" lon="5.4751">
        <ele>1644.47</ele>
        <time>2014-08-08T13:45:38Z</time>
      </trkpt>
      <trkpt lat="44.83011" lon="5.475">
        <ele>1644.95</ele>
        <time>2014-08-08T13:45:54Z</time>
      </trkpt>
      <trkpt lat="44.82998" lon="5.47486">
        <ele>1646.4</ele>
        <time>2014-08-08T13:46:10Z</time>
      </trkpt>
      <trkpt lat="44.82983" lon="5.47472">
        <ele>1647.36</ele>
        <time>2014-08-08T13:46:29Z</time>
      </trkpt>
      <trkpt lat="44.82975" lon="5.47451">
        <ele>1648.8</ele>
        <time>2014-08-08T13:46:45Z</time>
      </trkpt>
      <trkpt lat="44.82968" lon="5.47441">
        <ele>1649.28</ele>
        <time>2014-08-08T13:47:00Z</time>
      </trkpt>
      <trkpt lat="44.82969" lon="5.47445">
        <ele>1649.76</ele>
        <time>2014-08-08T13:47:19Z</time>
      </trkpt>
      <trkpt lat="44.82973" lon="5.47442">
        <ele>1648.8</ele>
        <time>2014-08-08T13:47:36Z</time>
      </trkpt>
      <trkpt lat="44.82971" lon="5.47444">
        <ele>1650.24</ele>
        <time>2014-08-08T13:47:52Z</time>
      </trkpt>
      <trkpt lat="44.8297" lon="5.47443">
        <ele>1648.32</ele>
        <time>2014-08-08T13:48:14Z</time>
      </trkpt>
      <trkpt lat="44.82972" lon="5.47442">
        <ele>1649.76</ele>
        <time>2014-08-08T13:48:35Z</time>
      </trkpt>
      <trkpt lat="44.82969" lon="5.47446">
        <ele>1648.32</ele>
        <time>2014-08-08T13:48:58Z</time>
      </trkpt>
      <trkpt lat="44.82968" lon="5.4744">
        <ele>1648.32</ele>
        <time>2014-08-08T13:49:11Z</time>
      </trkpt>
      <trkpt lat="44.82967" lon="5.47433">
        <ele>1649.28</ele>
        <time>2014-08-08T13:49:15Z</time>
      </trkpt>
      <trkpt lat="44.82967" lon="5.4742">
        <ele>1651.68</ele>
        <time>2014-08-08T13:49:22Z</time>
      </trkpt>
      <trkpt lat="44.82966" lon="5.47401">
        <ele>1653.6</ele>
        <time>2014-08-08T13:49:36Z</time>
      </trkpt>
      <trkpt lat="44.82964" lon="5.47379">
        <ele>1654.09</ele>
        <time>2014-08-08T13:49:51Z</time>
      </trkpt>
      <trkpt lat="44.8296" lon="5.47351">
        <ele>1655.05</ele>
        <time>2014-08-08T13:50:08Z</time>
      </trkpt>
      <trkpt lat="44.82958" lon="5.47328">
        <ele>1656.01</ele>
        <time>2014-08-08T13:50:24Z</time>
      </trkpt>
      <trkpt lat="44.82961" lon="5.47308">
        <ele>1656.49</ele>
        <time>2014-08-08T13:50:36Z</time>
      </trkpt>
      <trkpt lat="44.82965" lon="5.47287">
        <ele>1658.41</ele>
        <time>2014-08-08T13:50:50Z</time>
      </trkpt>
      <trkpt lat="44.82973" lon="5.47268">
        <ele>1658.89</ele>
        <time>2014-08-08T13:51:04Z</time>
      </trkpt>
      <trkpt lat="44.82977" lon="5.47258">
        <ele>1659.85</ele>
        <time>2014-08-08T13:51:13Z</time>
      </trkpt>
      <trkpt lat="44.82987" lon="5.4724">
        <ele>1660.33</ele>
        <time>2014-08-08T13:51:31Z</time>
      </trkpt>
      <trkpt lat="44.82987" lon="5.47233">
        <ele>1660.81</ele>
        <time>2014-08-08T13:51:46Z</time>
      </trkpt>
      <trkpt lat="44.82993" lon="5.4722">
        <ele>1662.26</ele>
        <time>2014-08-08T13:51:58Z</time>
      </trkpt>
      <trkpt lat="44.83" lon="5.47203">
        <ele>1662.74</ele>
        <time>2014-08-08T13:52:11Z</time>
      </trkpt>
      <trkpt lat="44.83006" lon="5.47188">
        <ele>1663.7</ele>
        <time>2014-08-08T13:52:25Z</time>
      </trkpt>
      <trkpt lat="44.83006" lon="5.47185">
        <ele>1663.7</ele>
        <time>2014-08-08T13:52:27Z</time>
      </trkpt>
      <trkpt lat="44.83011" lon="5.47163">
        <ele>1664.18</ele>
        <time>2014-08-08T13:52:43Z</time>
      </trkpt>
      <trkpt lat="44.83014" lon="5.47146">
        <ele>1664.66</ele>
        <time>2014-08-08T13:52:56Z</time>
      </trkpt>
      <trkpt lat="44.83015" lon="5.47128">
        <ele>1664.18</ele>
        <time>2014-08-08T13:53:08Z</time>
      </trkpt>
      <trkpt lat="44.83015" lon="5.47123">
        <ele>1664.66</ele>
        <time>2014-08-08T13:53:11Z</time>
      </trkpt>
      <trkpt lat="44.83012" lon="5.47099">
        <ele>1665.62</ele>
        <time>2014-08-08T13:53:28Z</time>
      </trkpt>
      <trkpt lat="44.8301" lon="5.47086">
        <ele>1666.1</ele>
        <time>2014-08-08T13:53:35Z</time>
      </trkpt>
      <trkpt lat="44.83012" lon="5.47063">
        <ele>1666.58</ele>
        <time>2014-08-08T13:53:52Z</time>
      </trkpt>
      <trkpt lat="44.83014" lon="5.4704">
        <ele>1667.54</ele>
        <time>2014-08-08T13:54:10Z</time>
      </trkpt>
      <trkpt lat="44.83017" lon="5.47024">
        <ele>1666.58</ele>
        <time>2014-08-08T13:54:21Z</time>
      </trkpt>
      <trkpt lat="44.83018" lon="5.47015">
        <ele>1666.1</ele>
        <time>2014-08-08T13:54:26Z</time>
      </trkpt>
      <trkpt lat="44.8302" lon="5.47005">
        <ele>1666.1</ele>
        <time>2014-08-08T13:54:32Z</time>
      </trkpt>
      <trkpt lat="44.83029" lon="5.46984">
        <ele>1664.66</ele>
        <time>2014-08-08T13:54:49Z</time>
      </trkpt>
      <trkpt lat="44.83031" lon="5.46976">
        <ele>1664.18</ele>
        <time>2014-08-08T13:54:56Z</time>
      </trkpt>
      <trkpt lat="44.83032" lon="5.46974">
        <ele>1664.18</ele>
        <time>2014-08-08T13:54:58Z</time>
      </trkpt>
      <trkpt lat="44.83041" lon="5.46946">
        <ele>1663.22</ele>
        <time>2014-08-08T13:55:17Z</time>
      </trkpt>
      <trkpt lat="44.83048" lon="5.46929">
        <ele>1663.7</ele>
        <time>2014-08-08T13:55:31Z</time>
      </trkpt>
      <trkpt lat="44.83058" lon="5.46905">
        <ele>1661.78</ele>
        <time>2014-08-08T13:55:47Z</time>
      </trkpt>
      <trkpt lat="44.83065" lon="5.46886">
        <ele>1662.26</ele>
        <time>2014-08-08T13:56:03Z</time>
      </trkpt>
      <trkpt lat="44.83071" lon="5.46863">
        <ele>1661.3</ele>
        <time>2014-08-08T13:56:19Z</time>
      </trkpt>
      <trkpt lat="44.83076" lon="5.46844">
        <ele>1660.33</ele>
        <time>2014-08-08T13:56:34Z</time>
      </trkpt>
      <trkpt lat="44.83077" lon="5.46827">
        <ele>1658.41</ele>
        <time>2014-08-08T13:56:51Z</time>
      </trkpt>
      <trkpt lat="44.83084" lon="5.46805">
        <ele>1656.49</ele>
        <time>2014-08-08T13:57:07Z</time>
      </trkpt>
      <trkpt lat="44.83088" lon="5.46787">
        <ele>1654.09</ele>
        <time>2014-08-08T13:57:20Z</time>
      </trkpt>
      <trkpt lat="44.83094" lon="5.46765">
        <ele>1652.16</ele>
        <time>2014-08-08T13:57:35Z</time>
      </trkpt>
      <trkpt lat="44.83099" lon="5.4674">
        <ele>1648.8</ele>
        <time>2014-08-08T13:57:52Z</time>
      </trkpt>
      <trkpt lat="44.83108" lon="5.46718">
        <ele>1646.4</ele>
        <time>2014-08-08T13:58:09Z</time>
      </trkpt>
      <trkpt lat="44.8311" lon="5.46709">
        <ele>1645.91</ele>
        <time>2014-08-08T13:58:14Z</time>
      </trkpt>
      <trkpt lat="44.83115" lon="5.46688">
        <ele>1642.55</ele>
        <time>2014-08-08T13:58:29Z</time>
      </trkpt>
      <trkpt lat="44.83116" lon="5.46684">
        <ele>1641.11</ele>
        <time>2014-08-08T13:58:31Z</time>
      </trkpt>
      <trkpt lat="44.83115" lon="5.46681">
        <ele>1641.11</ele>
        <time>2014-08-08T13:58:33Z</time>
      </trkpt>
      <trkpt lat="44.83116" lon="5.46671">
        <ele>1641.11</ele>
        <time>2014-08-08T13:58:39Z</time>
      </trkpt>
      <trkpt lat="44.83114" lon="5.46657">
        <ele>1640.15</ele>
        <time>2014-08-08T13:58:47Z</time>
      </trkpt>
      <trkpt lat="44.83112" lon="5.46628">
        <ele>1640.63</ele>
        <time>2014-08-08T13:59:05Z</time>
      </trkpt>
      <trkpt lat="44.83111" lon="5.46613">
        <ele>1640.63</ele>
        <time>2014-08-08T13:59:15Z</time>
      </trkpt>
      <trkpt lat="44.83117" lon="5.46594">
        <ele>1638.22</ele>
        <time>2014-08-08T13:59:31Z</time>
      </trkpt>
      <trkpt lat="44.83118" lon="5.46589">
        <ele>1637.74</ele>
        <time>2014-08-08T13:59:40Z</time>
      </trkpt>
      <trkpt lat="44.83123" lon="5.4656">
        <ele>1635.82</ele>
        <time>2014-08-08T13:59:59Z</time>
      </trkpt>
      <trkpt lat="44.83124" lon="5.46556">
        <ele>1634.38</ele>
        <time>2014-08-08T14:00:03Z</time>
      </trkpt>
      <trkpt lat="44.83127" lon="5.46525">
        <ele>1632.94</ele>
        <time>2014-08-08T14:00:23Z</time>
      </trkpt>
      <trkpt lat="44.83131" lon="5.46511">
        <ele>1630.05</ele>
        <time>2014-08-08T14:00:33Z</time>
      </trkpt>
      <trkpt lat="44.83132" lon="5.46497">
        <ele>1629.09</ele>
        <time>2014-08-08T14:00:44Z</time>
      </trkpt>
      <trkpt lat="44.83134" lon="5.46484">
        <ele>1627.65</ele>
        <time>2014-08-08T14:00:52Z</time>
      </trkpt>
      <trkpt lat="44.83135" lon="5.46469">
        <ele>1624.77</ele>
        <time>2014-08-08T14:01:03Z</time>
      </trkpt>
      <trkpt lat="44.83137" lon="5.46448">
        <ele>1620.92</ele>
        <time>2014-08-08T14:01:17Z</time>
      </trkpt>
      <trkpt lat="44.83137" lon="5.46445">
        <ele>1620.92</ele>
        <time>2014-08-08T14:01:19Z</time>
      </trkpt>
      <trkpt lat="44.83137" lon="5.46441">
        <ele>1620.92</ele>
        <time>2014-08-08T14:01:21Z</time>
      </trkpt>
      <trkpt lat="44.8314" lon="5.46436">
        <ele>1619.96</ele>
        <time>2014-08-08T14:01:25Z</time>
      </trkpt>
      <trkpt lat="44.83149" lon="5.46404">
        <ele>1617.56</ele>
        <time>2014-08-08T14:01:46Z</time>
      </trkpt>
      <trkpt lat="44.83157" lon="5.46381">
        <ele>1616.59</ele>
        <time>2014-08-08T14:02:01Z</time>
      </trkpt>
      <trkpt lat="44.8316" lon="5.46375">
        <ele>1616.11</ele>
        <time>2014-08-08T14:02:14Z</time>
      </trkpt>
      <trkpt lat="44.83162" lon="5.46376">
        <ele>1616.11</ele>
        <time>2014-08-08T14:02:41Z</time>
      </trkpt>
      <trkpt lat="44.83161" lon="5.46376">
        <ele>1614.67</ele>
        <time>2014-08-08T14:03:07Z</time>
      </trkpt>
      <trkpt lat="44.83159" lon="5.46378">
        <ele>1615.63</ele>
        <time>2014-08-08T14:03:15Z</time>
      </trkpt>
      <trkpt lat="44.83152" lon="5.46378">
        <ele>1616.59</ele>
        <time>2014-08-08T14:03:30Z</time>
      </trkpt>
      <trkpt lat="44.83158" lon="5.46372">
        <ele>1614.19</ele>
        <time>2014-08-08T14:03:45Z</time>
      </trkpt>
      <trkpt lat="44.8316" lon="5.46363">
        <ele>1614.67</ele>
        <time>2014-08-08T14:04:03Z</time>
      </trkpt>
      <trkpt lat="44.83166" lon="5.46363">
        <ele>1613.23</ele>
        <time>2014-08-08T14:04:32Z</time>
      </trkpt>
      <trkpt lat="44.83166" lon="5.46355">
        <ele>1613.71</ele>
        <time>2014-08-08T14:04:51Z</time>
      </trkpt>
      <trkpt lat="44.83166" lon="5.46348">
        <ele>1614.19</ele>
        <time>2014-08-08T14:05:09Z</time>
      </trkpt>
      <trkpt lat="44.83167" lon="5.46346">
        <ele>1610.35</ele>
        <time>2014-08-08T14:05:13Z</time>
      </trkpt>
      <trkpt lat="44.83168" lon="5.46345">
        <ele>1610.83</ele>
        <time>2014-08-08T14:05:14Z</time>
      </trkpt>
      <trkpt lat="44.83168" lon="5.46344">
        <ele>1612.75</ele>
        <time>2014-08-08T14:05:15Z</time>
      </trkpt>
      <trkpt lat="44.8317" lon="5.46339">
        <ele>1610.83</ele>
        <time>2014-08-08T14:05:19Z</time>
      </trkpt>
      <trkpt lat="44.83178" lon="5.46317">
        <ele>1609.38</ele>
        <time>2014-08-08T14:05:34Z</time>
      </trkpt>
      <trkpt lat="44.8318" lon="5.46304">
        <ele>1608.9</ele>
        <time>2014-08-08T14:05:47Z</time>
      </trkpt>
      <trkpt lat="44.8318" lon="5.46284">
        <ele>1607.46</ele>
        <time>2014-08-08T14:06:01Z</time>
      </trkpt>
      <trkpt lat="44.8318" lon="5.46281">
        <ele>1605.06</ele>
        <time>2014-08-08T14:06:03Z</time>
      </trkpt>
      <trkpt lat="44.83187" lon="5.46261">
        <ele>1606.02</ele>
        <time>2014-08-08T14:06:18Z</time>
      </trkpt>
      <trkpt lat="44.83196" lon="5.46241">
        <ele>1602.17</ele>
        <time>2014-08-08T14:06:35Z</time>
      </trkpt>
      <trkpt lat="44.832" lon="5.46233">
        <ele>1602.66</ele>
        <time>2014-08-08T14:06:40Z</time>
      </trkpt>
      <trkpt lat="44.83208" lon="5.46215">
        <ele>1598.81</ele>
        <time>2014-08-08T14:06:57Z</time>
      </trkpt>
      <trkpt lat="44.83209" lon="5.46212">
        <ele>1598.33</ele>
        <time>2014-08-08T14:06:59Z</time>
      </trkpt>
      <trkpt lat="44.83209" lon="5.46211">
        <ele>1597.85</ele>
        <time>2014-08-08T14:07:00Z</time>
      </trkpt>
      <trkpt lat="44.83221" lon="5.46199">
        <ele>1595.45</ele>
        <time>2014-08-08T14:07:16Z</time>
      </trkpt>
      <trkpt lat="44.83218" lon="5.4619">
        <ele>1594.48</ele>
        <time>2014-08-08T14:07:21Z</time>
      </trkpt>
      <trkpt lat="44.83224" lon="5.46165">
        <ele>1594</ele>
        <time>2014-08-08T14:07:37Z</time>
      </trkpt>
      <trkpt lat="44.83229" lon="5.46156">
        <ele>1594</ele>
        <time>2014-08-08T14:07:44Z</time>
      </trkpt>
      <trkpt lat="44.83231" lon="5.46141">
        <ele>1594</ele>
        <time>2014-08-08T14:07:54Z</time>
      </trkpt>
      <trkpt lat="44.83241" lon="5.46106">
        <ele>1591.6</ele>
        <time>2014-08-08T14:08:16Z</time>
      </trkpt>
      <trkpt lat="44.83246" lon="5.46082">
        <ele>1587.75</ele>
        <time>2014-08-08T14:08:32Z</time>
      </trkpt>
      <trkpt lat="44.83246" lon="5.46081">
        <ele>1588.72</ele>
        <time>2014-08-08T14:08:33Z</time>
      </trkpt>
      <trkpt lat="44.83251" lon="5.46044">
        <ele>1587.27</ele>
        <time>2014-08-08T14:08:56Z</time>
      </trkpt>
      <trkpt lat="44.83251" lon="5.46035">
        <ele>1588.24</ele>
        <time>2014-08-08T14:09:01Z</time>
      </trkpt>
      <trkpt lat="44.83252" lon="5.46026">
        <ele>1586.79</ele>
        <time>2014-08-08T14:09:07Z</time>
      </trkpt>
      <trkpt lat="44.83254" lon="5.46">
        <ele>1585.83</ele>
        <time>2014-08-08T14:09:25Z</time>
      </trkpt>
      <trkpt lat="44.83258" lon="5.45976">
        <ele>1584.87</ele>
        <time>2014-08-08T14:09:40Z</time>
      </trkpt>
      <trkpt lat="44.83258" lon="5.45947">
        <ele>1583.43</ele>
        <time>2014-08-08T14:09:57Z</time>
      </trkpt>
      <trkpt lat="44.83256" lon="5.45938">
        <ele>1582.47</ele>
        <time>2014-08-08T14:10:02Z</time>
      </trkpt>
      <trkpt lat="44.83257" lon="5.45919">
        <ele>1579.58</ele>
        <time>2014-08-08T14:10:14Z</time>
      </trkpt>
      <trkpt lat="44.83257" lon="5.45909">
        <ele>1580.06</ele>
        <time>2014-08-08T14:10:19Z</time>
      </trkpt>
      <trkpt lat="44.83258" lon="5.45903">
        <ele>1579.58</ele>
        <time>2014-08-08T14:10:23Z</time>
      </trkpt>
      <trkpt lat="44.83258" lon="5.45885">
        <ele>1578.14</ele>
        <time>2014-08-08T14:10:34Z</time>
      </trkpt>
      <trkpt lat="44.83262" lon="5.45875">
        <ele>1577.18</ele>
        <time>2014-08-08T14:10:41Z</time>
      </trkpt>
      <trkpt lat="44.83263" lon="5.45863">
        <ele>1576.7</ele>
        <time>2014-08-08T14:10:48Z</time>
      </trkpt>
      <trkpt lat="44.83267" lon="5.45853">
        <ele>1576.7</ele>
        <time>2014-08-08T14:10:54Z</time>
      </trkpt>
      <trkpt lat="44.83262" lon="5.45822">
        <ele>1575.26</ele>
        <time>2014-08-08T14:11:10Z</time>
      </trkpt>
      <trkpt lat="44.83263" lon="5.45818">
        <ele>1574.78</ele>
        <time>2014-08-08T14:11:16Z</time>
      </trkpt>
      <trkpt lat="44.83275" lon="5.45797">
        <ele>1572.85</ele>
        <time>2014-08-08T14:11:34Z</time>
      </trkpt>
      <trkpt lat="44.83275" lon="5.45774">
        <ele>1571.89</ele>
        <time>2014-08-08T14:11:49Z</time>
      </trkpt>
      <trkpt lat="44.83273" lon="5.45751">
        <ele>1570.93</ele>
        <time>2014-08-08T14:12:06Z</time>
      </trkpt>
      <trkpt lat="44.83273" lon="5.45742">
        <ele>1569.49</ele>
        <time>2014-08-08T14:12:12Z</time>
      </trkpt>
      <trkpt lat="44.83273" lon="5.45736">
        <ele>1568.53</ele>
        <time>2014-08-08T14:12:16Z</time>
      </trkpt>
      <trkpt lat="44.83272" lon="5.45729">
        <ele>1568.05</ele>
        <time>2014-08-08T14:12:20Z</time>
      </trkpt>
      <trkpt lat="44.8327" lon="5.45712">
        <ele>1564.68</ele>
        <time>2014-08-08T14:12:31Z</time>
      </trkpt>
      <trkpt lat="44.8327" lon="5.45709">
        <ele>1564.68</ele>
        <time>2014-08-08T14:12:33Z</time>
      </trkpt>
      <trkpt lat="44.83268" lon="5.45705">
        <ele>1565.16</ele>
        <time>2014-08-08T14:12:35Z</time>
      </trkpt>
      <trkpt lat="44.8326" lon="5.45684">
        <ele>1564.2</ele>
        <time>2014-08-08T14:12:49Z</time>
      </trkpt>
      <trkpt lat="44.83249" lon="5.45657">
        <ele>1564.68</ele>
        <time>2014-08-08T14:13:07Z</time>
      </trkpt>
      <trkpt lat="44.83238" lon="5.45629">
        <ele>1565.64</ele>
        <time>2014-08-08T14:13:25Z</time>
      </trkpt>
      <trkpt lat="44.83232" lon="5.45605">
        <ele>1565.64</ele>
        <time>2014-08-08T14:13:43Z</time>
      </trkpt>
      <trkpt lat="44.83232" lon="5.45604">
        <ele>1565.16</ele>
        <time>2014-08-08T14:13:44Z</time>
      </trkpt>
      <trkpt lat="44.83225" lon="5.45587">
        <ele>1563.72</ele>
        <time>2014-08-08T14:14:00Z</time>
      </trkpt>
      <trkpt lat="44.83217" lon="5.45563">
        <ele>1562.76</ele>
        <time>2014-08-08T14:14:17Z</time>
      </trkpt>
      <trkpt lat="44.83204" lon="5.45546">
        <ele>1562.76</ele>
        <time>2014-08-08T14:14:35Z</time>
      </trkpt>
      <trkpt lat="44.83178" lon="5.45531">
        <ele>1561.32</ele>
        <time>2014-08-08T14:14:55Z</time>
      </trkpt>
      <trkpt lat="44.83174" lon="5.45527">
        <ele>1562.76</ele>
        <time>2014-08-08T14:14:59Z</time>
      </trkpt>
      <trkpt lat="44.83156" lon="5.45516">
        <ele>1563.24</ele>
        <time>2014-08-08T14:15:15Z</time>
      </trkpt>
      <trkpt lat="44.83154" lon="5.45514">
        <ele>1559.88</ele>
        <time>2014-08-08T14:15:17Z</time>
      </trkpt>
      <trkpt lat="44.83151" lon="5.45511">
        <ele>1562.28</ele>
        <time>2014-08-08T14:15:20Z</time>
      </trkpt>
      <trkpt lat="44.83133" lon="5.45506">
        <ele>1561.32</ele>
        <time>2014-08-08T14:15:33Z</time>
      </trkpt>
      <trkpt lat="44.83127" lon="5.45504">
        <ele>1557.95</ele>
        <time>2014-08-08T14:15:38Z</time>
      </trkpt>
      <trkpt lat="44.83122" lon="5.45502">
        <ele>1558.92</ele>
        <time>2014-08-08T14:15:42Z</time>
      </trkpt>
      <trkpt lat="44.83105" lon="5.45488">
        <ele>1557.47</ele>
        <time>2014-08-08T14:16:00Z</time>
      </trkpt>
      <trkpt lat="44.83092" lon="5.45481">
        <ele>1558.43</ele>
        <time>2014-08-08T14:16:15Z</time>
      </trkpt>
      <trkpt lat="44.8309" lon="5.45478">
        <ele>1556.03</ele>
        <time>2014-08-08T14:16:22Z</time>
      </trkpt>
      <trkpt lat="44.83083" lon="5.45478">
        <ele>1556.51</ele>
        <time>2014-08-08T14:16:32Z</time>
      </trkpt>
      <trkpt lat="44.83068" lon="5.45468">
        <ele>1554.11</ele>
        <time>2014-08-08T14:16:47Z</time>
      </trkpt>
      <trkpt lat="44.83067" lon="5.45468">
        <ele>1554.11</ele>
        <time>2014-08-08T14:16:48Z</time>
      </trkpt>
      <trkpt lat="44.83062" lon="5.45464">
        <ele>1550.74</ele>
        <time>2014-08-08T14:16:53Z</time>
      </trkpt>
      <trkpt lat="44.83044" lon="5.45447">
        <ele>1550.74</ele>
        <time>2014-08-08T14:17:12Z</time>
      </trkpt>
      <trkpt lat="44.83038" lon="5.45439">
        <ele>1552.19</ele>
        <time>2014-08-08T14:17:19Z</time>
      </trkpt>
      <trkpt lat="44.83022" lon="5.45417">
        <ele>1548.34</ele>
        <time>2014-08-08T14:17:37Z</time>
      </trkpt>
      <trkpt lat="44.8302" lon="5.45414">
        <ele>1547.38</ele>
        <time>2014-08-08T14:17:39Z</time>
      </trkpt>
      <trkpt lat="44.83008" lon="5.45387">
        <ele>1549.78</ele>
        <time>2014-08-08T14:17:58Z</time>
      </trkpt>
      <trkpt lat="44.83001" lon="5.45363">
        <ele>1549.78</ele>
        <time>2014-08-08T14:18:16Z</time>
      </trkpt>
      <trkpt lat="44.82997" lon="5.45352">
        <ele>1547.86</ele>
        <time>2014-08-08T14:18:33Z</time>
      </trkpt>
      <trkpt lat="44.82995" lon="5.45344">
        <ele>1546.9</ele>
        <time>2014-08-08T14:18:50Z</time>
      </trkpt>
      <trkpt lat="44.82994" lon="5.45341">
        <ele>1548.34</ele>
        <time>2014-08-08T14:19:04Z</time>
      </trkpt>
      <trkpt lat="44.82994" lon="5.4534">
        <ele>1550.26</ele>
        <time>2014-08-08T14:19:25Z</time>
      </trkpt>
      <trkpt lat="44.82995" lon="5.45345">
        <ele>1548.82</ele>
        <time>2014-08-08T14:19:46Z</time>
      </trkpt>
      <trkpt lat="44.82997" lon="5.45343">
        <ele>1548.82</ele>
        <time>2014-08-08T14:20:04Z</time>
      </trkpt>
      <trkpt lat="44.82995" lon="5.45341">
        <ele>1548.82</ele>
        <time>2014-08-08T14:20:23Z</time>
      </trkpt>
      <trkpt lat="44.82995" lon="5.45341">
        <ele>1546.9</ele>
        <time>2014-08-08T14:20:42Z</time>
      </trkpt>
      <trkpt lat="44.82989" lon="5.45325">
        <ele>1549.78</ele>
        <time>2014-08-08T14:20:57Z</time>
      </trkpt>
      <trkpt lat="44.82986" lon="5.45318">
        <ele>1551.22</ele>
        <time>2014-08-08T14:21:02Z</time>
      </trkpt>
      <trkpt lat="44.82978" lon="5.45304">
        <ele>1553.63</ele>
        <time>2014-08-08T14:21:13Z</time>
      </trkpt>
      <trkpt lat="44.82965" lon="5.45278">
        <ele>1554.59</ele>
        <time>2014-08-08T14:21:32Z</time>
      </trkpt>
      <trkpt lat="44.82957" lon="5.45256">
        <ele>1557.47</ele>
        <time>2014-08-08T14:21:48Z</time>
      </trkpt>
      <trkpt lat="44.82957" lon="5.45251">
        <ele>1558.43</ele>
        <time>2014-08-08T14:21:51Z</time>
      </trkpt>
      <trkpt lat="44.82961" lon="5.45237">
        <ele>1559.4</ele>
        <time>2014-08-08T14:21:59Z</time>
      </trkpt>
      <trkpt lat="44.82963" lon="5.45231">
        <ele>1560.36</ele>
        <time>2014-08-08T14:22:04Z</time>
      </trkpt>
      <trkpt lat="44.82965" lon="5.45229">
        <ele>1561.32</ele>
        <time>2014-08-08T14:22:06Z</time>
      </trkpt>
      <trkpt lat="44.82971" lon="5.45216">
        <ele>1564.68</ele>
        <time>2014-08-08T14:22:18Z</time>
      </trkpt>
      <trkpt lat="44.82977" lon="5.45203">
        <ele>1568.05</ele>
        <time>2014-08-08T14:22:30Z</time>
      </trkpt>
      <trkpt lat="44.82987" lon="5.45183">
        <ele>1570.93</ele>
        <time>2014-08-08T14:22:46Z</time>
      </trkpt>
      <trkpt lat="44.82996" lon="5.45168">
        <ele>1573.82</ele>
        <time>2014-08-08T14:23:00Z</time>
      </trkpt>
      <trkpt lat="44.83001" lon="5.45162">
        <ele>1575.26</ele>
        <time>2014-08-08T14:23:05Z</time>
      </trkpt>
      <trkpt lat="44.83012" lon="5.45147">
        <ele>1578.62</ele>
        <time>2014-08-08T14:23:20Z</time>
      </trkpt>
      <trkpt lat="44.83029" lon="5.45125">
        <ele>1580.54</ele>
        <time>2014-08-08T14:23:37Z</time>
      </trkpt>
      <trkpt lat="44.8304" lon="5.45114">
        <ele>1583.43</ele>
        <time>2014-08-08T14:23:47Z</time>
      </trkpt>
      <trkpt lat="44.8305" lon="5.45099">
        <ele>1585.35</ele>
        <time>2014-08-08T14:24:00Z</time>
      </trkpt>
      <trkpt lat="44.83061" lon="5.45087">
        <ele>1588.72</ele>
        <time>2014-08-08T14:24:12Z</time>
      </trkpt>
      <trkpt lat="44.83069" lon="5.45061">
        <ele>1590.64</ele>
        <time>2014-08-08T14:24:29Z</time>
      </trkpt>
      <trkpt lat="44.83079" lon="5.45037">
        <ele>1592.56</ele>
        <time>2014-08-08T14:24:44Z</time>
      </trkpt>
      <trkpt lat="44.83087" lon="5.4503">
        <ele>1594</ele>
        <time>2014-08-08T14:24:51Z</time>
      </trkpt>
      <trkpt lat="44.83101" lon="5.45004">
        <ele>1594.48</ele>
        <time>2014-08-08T14:25:08Z</time>
      </trkpt>
      <trkpt lat="44.8311" lon="5.44981">
        <ele>1596.89</ele>
        <time>2014-08-08T14:25:25Z</time>
      </trkpt>
      <trkpt lat="44.83118" lon="5.44976">
        <ele>1598.33</ele>
        <time>2014-08-08T14:25:31Z</time>
      </trkpt>
      <trkpt lat="44.83127" lon="5.44964">
        <ele>1598.81</ele>
        <time>2014-08-08T14:25:40Z</time>
      </trkpt>
      <trkpt lat="44.83137" lon="5.44942">
        <ele>1599.77</ele>
        <time>2014-08-08T14:25:53Z</time>
      </trkpt>
      <trkpt lat="44.83144" lon="5.44902">
        <ele>1599.77</ele>
        <time>2014-08-08T14:26:12Z</time>
      </trkpt>
      <trkpt lat="44.83142" lon="5.44859">
        <ele>1600.73</ele>
        <time>2014-08-08T14:26:29Z</time>
      </trkpt>
      <trkpt lat="44.83142" lon="5.44844">
        <ele>1601.69</ele>
        <time>2014-08-08T14:26:37Z</time>
      </trkpt>
      <trkpt lat="44.83147" lon="5.44811">
        <ele>1603.14</ele>
        <time>2014-08-08T14:26:55Z</time>
      </trkpt>
      <trkpt lat="44.83149" lon="5.44802">
        <ele>1604.1</ele>
        <time>2014-08-08T14:27:01Z</time>
      </trkpt>
      <trkpt lat="44.83158" lon="5.44785">
        <ele>1607.94</ele>
        <time>2014-08-08T14:27:13Z</time>
      </trkpt>
      <trkpt lat="44.83167" lon="5.44751">
        <ele>1610.35</ele>
        <time>2014-08-08T14:27:31Z</time>
      </trkpt>
      <trkpt lat="44.83173" lon="5.44729">
        <ele>1611.31</ele>
        <time>2014-08-08T14:27:44Z</time>
      </trkpt>
      <trkpt lat="44.83175" lon="5.44727">
        <ele>1611.31</ele>
        <time>2014-08-08T14:27:46Z</time>
      </trkpt>
      <trkpt lat="44.83195" lon="5.44702">
        <ele>1609.86</ele>
        <time>2014-08-08T14:28:03Z</time>
      </trkpt>
      <trkpt lat="44.83212" lon="5.4468">
        <ele>1608.42</ele>
        <time>2014-08-08T14:28:18Z</time>
      </trkpt>
      <trkpt lat="44.83215" lon="5.44663">
        <ele>1608.42</ele>
        <time>2014-08-08T14:28:26Z</time>
      </trkpt>
      <trkpt lat="44.83202" lon="5.44621">
        <ele>1609.38</ele>
        <time>2014-08-08T14:28:42Z</time>
      </trkpt>
      <trkpt lat="44.83199" lon="5.44607">
        <ele>1610.35</ele>
        <time>2014-08-08T14:28:49Z</time>
      </trkpt>
      <trkpt lat="44.83196" lon="5.44587">
        <ele>1612.75</ele>
        <time>2014-08-08T14:28:59Z</time>
      </trkpt>
      <trkpt lat="44.83195" lon="5.44584">
        <ele>1611.79</ele>
        <time>2014-08-08T14:29:00Z</time>
      </trkpt>
      <trkpt lat="44.83195" lon="5.44582">
        <ele>1612.27</ele>
        <time>2014-08-08T14:29:01Z</time>
      </trkpt>
      <trkpt lat="44.83195" lon="5.44579">
        <ele>1612.27</ele>
        <time>2014-08-08T14:29:02Z</time>
      </trkpt>
      <trkpt lat="44.83194" lon="5.44577">
        <ele>1613.71</ele>
        <time>2014-08-08T14:29:03Z</time>
      </trkpt>
      <trkpt lat="44.83194" lon="5.44575">
        <ele>1613.23</ele>
        <time>2014-08-08T14:29:04Z</time>
      </trkpt>
      <trkpt lat="44.83193" lon="5.44573">
        <ele>1613.23</ele>
        <time>2014-08-08T14:29:05Z</time>
      </trkpt>
      <trkpt lat="44.83191" lon="5.44555">
        <ele>1615.63</ele>
        <time>2014-08-08T14:29:15Z</time>
      </trkpt>
      <trkpt lat="44.83191" lon="5.44547">
        <ele>1614.67</ele>
        <time>2014-08-08T14:29:20Z</time>
      </trkpt>
      <trkpt lat="44.83192" lon="5.44542">
        <ele>1616.11</ele>
        <time>2014-08-08T14:29:23Z</time>
      </trkpt>
      <trkpt lat="44.83193" lon="5.4454">
        <ele>1616.11</ele>
        <time>2014-08-08T14:29:24Z</time>
      </trkpt>
      <trkpt lat="44.83194" lon="5.44538">
        <ele>1615.63</ele>
        <time>2014-08-08T14:29:25Z</time>
      </trkpt>
      <trkpt lat="44.83195" lon="5.44536">
        <ele>1614.67</ele>
        <time>2014-08-08T14:29:26Z</time>
      </trkpt>
      <trkpt lat="44.83198" lon="5.44531">
        <ele>1616.11</ele>
        <time>2014-08-08T14:29:30Z</time>
      </trkpt>
      <trkpt lat="44.83198" lon="5.4451">
        <ele>1618.52</ele>
        <time>2014-08-08T14:29:40Z</time>
      </trkpt>
      <trkpt lat="44.83202" lon="5.44502">
        <ele>1619</ele>
        <time>2014-08-08T14:29:44Z</time>
      </trkpt>
      <trkpt lat="44.83202" lon="5.445">
        <ele>1619.48</ele>
        <time>2014-08-08T14:29:45Z</time>
      </trkpt>
      <trkpt lat="44.83202" lon="5.44466">
        <ele>1621.88</ele>
        <time>2014-08-08T14:30:01Z</time>
      </trkpt>
      <trkpt lat="44.83203" lon="5.44447">
        <ele>1622.84</ele>
        <time>2014-08-08T14:30:11Z</time>
      </trkpt>
      <trkpt lat="44.83204" lon="5.44445">
        <ele>1622.36</ele>
        <time>2014-08-08T14:30:12Z</time>
      </trkpt>
      <trkpt lat="44.83205" lon="5.44443">
        <ele>1623.32</ele>
        <time>2014-08-08T14:30:13Z</time>
      </trkpt>
      <trkpt lat="44.83205" lon="5.44442">
        <ele>1623.32</ele>
        <time>2014-08-08T14:30:14Z</time>
      </trkpt>
      <trkpt lat="44.83206" lon="5.44439">
        <ele>1623.32</ele>
        <time>2014-08-08T14:30:15Z</time>
      </trkpt>
      <trkpt lat="44.83206" lon="5.44437">
        <ele>1622.36</ele>
        <time>2014-08-08T14:30:16Z</time>
      </trkpt>
      <trkpt lat="44.83207" lon="5.44427">
        <ele>1622.84</ele>
        <time>2014-08-08T14:30:21Z</time>
      </trkpt>
      <trkpt lat="44.83205" lon="5.4441">
        <ele>1624.28</ele>
        <time>2014-08-08T14:30:29Z</time>
      </trkpt>
      <trkpt lat="44.83204" lon="5.44408">
        <ele>1623.8</ele>
        <time>2014-08-08T14:30:30Z</time>
      </trkpt>
      <trkpt lat="44.83204" lon="5.44407">
        <ele>1624.28</ele>
        <time>2014-08-08T14:30:31Z</time>
      </trkpt>
      <trkpt lat="44.83202" lon="5.44378">
        <ele>1625.25</ele>
        <time>2014-08-08T14:30:47Z</time>
      </trkpt>
      <trkpt lat="44.83201" lon="5.44373">
        <ele>1626.21</ele>
        <time>2014-08-08T14:30:50Z</time>
      </trkpt>
      <trkpt lat="44.83195" lon="5.44334">
        <ele>1626.69</ele>
        <time>2014-08-08T14:31:10Z</time>
      </trkpt>
      <trkpt lat="44.83205" lon="5.44312">
        <ele>1625.25</ele>
        <time>2014-08-08T14:31:25Z</time>
      </trkpt>
      <trkpt lat="44.83208" lon="5.44285">
        <ele>1623.32</ele>
        <time>2014-08-08T14:31:38Z</time>
      </trkpt>
      <trkpt lat="44.83208" lon="5.44264">
        <ele>1619.96</ele>
        <time>2014-08-08T14:31:49Z</time>
      </trkpt>
      <trkpt lat="44.83207" lon="5.44235">
        <ele>1617.07</ele>
        <time>2014-08-08T14:32:03Z</time>
      </trkpt>
      <trkpt lat="44.83215" lon="5.44207">
        <ele>1617.56</ele>
        <time>2014-08-08T14:32:20Z</time>
      </trkpt>
      <trkpt lat="44.83219" lon="5.44194">
        <ele>1617.56</ele>
        <time>2014-08-08T14:32:29Z</time>
      </trkpt>
      <trkpt lat="44.8322" lon="5.44181">
        <ele>1619.96</ele>
        <time>2014-08-08T14:32:39Z</time>
      </trkpt>
      <trkpt lat="44.83224" lon="5.44164">
        <ele>1622.36</ele>
        <time>2014-08-08T14:32:53Z</time>
      </trkpt>
      <trkpt lat="44.83228" lon="5.44139">
        <ele>1624.77</ele>
        <time>2014-08-08T14:33:08Z</time>
      </trkpt>
      <trkpt lat="44.83229" lon="5.44135">
        <ele>1624.28</ele>
        <time>2014-08-08T14:33:10Z</time>
      </trkpt>
      <trkpt lat="44.83229" lon="5.44133">
        <ele>1624.77</ele>
        <time>2014-08-08T14:33:11Z</time>
      </trkpt>
      <trkpt lat="44.8323" lon="5.44131">
        <ele>1625.73</ele>
        <time>2014-08-08T14:33:12Z</time>
      </trkpt>
      <trkpt lat="44.8323" lon="5.4413">
        <ele>1626.21</ele>
        <time>2014-08-08T14:33:13Z</time>
      </trkpt>
      <trkpt lat="44.83231" lon="5.44128">
        <ele>1627.17</ele>
        <time>2014-08-08T14:33:14Z</time>
      </trkpt>
      <trkpt lat="44.83231" lon="5.44126">
        <ele>1627.17</ele>
        <time>2014-08-08T14:33:15Z</time>
      </trkpt>
      <trkpt lat="44.83231" lon="5.44124">
        <ele>1626.69</ele>
        <time>2014-08-08T14:33:16Z</time>
      </trkpt>
      <trkpt lat="44.83231" lon="5.44105">
        <ele>1630.05</ele>
        <time>2014-08-08T14:33:26Z</time>
      </trkpt>
      <trkpt lat="44.83231" lon="5.44081">
        <ele>1631.49</ele>
        <time>2014-08-08T14:33:42Z</time>
      </trkpt>
      <trkpt lat="44.83236" lon="5.44066">
        <ele>1631.49</ele>
        <time>2014-08-08T14:33:54Z</time>
      </trkpt>
      <trkpt lat="44.83236" lon="5.44063">
        <ele>1632.94</ele>
        <time>2014-08-08T14:34:00Z</time>
      </trkpt>
      <trkpt lat="44.83235" lon="5.44059">
        <ele>1633.9</ele>
        <time>2014-08-08T14:34:18Z</time>
      </trkpt>
      <trkpt lat="44.83233" lon="5.4406">
        <ele>1632.94</ele>
        <time>2014-08-08T14:34:34Z</time>
      </trkpt>
      <trkpt lat="44.83234" lon="5.44061">
        <ele>1633.9</ele>
        <time>2014-08-08T14:35:00Z</time>
      </trkpt>
      <trkpt lat="44.83233" lon="5.44061">
        <ele>1633.42</ele>
        <time>2014-08-08T14:35:20Z</time>
      </trkpt>
      <trkpt lat="44.83233" lon="5.44062">
        <ele>1632.46</ele>
        <time>2014-08-08T14:35:44Z</time>
      </trkpt>
      <trkpt lat="44.83234" lon="5.44062">
        <ele>1632.94</ele>
        <time>2014-08-08T14:36:10Z</time>
      </trkpt>
      <trkpt lat="44.83236" lon="5.44063">
        <ele>1632.46</ele>
        <time>2014-08-08T14:36:39Z</time>
      </trkpt>
      <trkpt lat="44.83234" lon="5.4406">
        <ele>1632.94</ele>
        <time>2014-08-08T14:37:00Z</time>
      </trkpt>
      <trkpt lat="44.83233" lon="5.44059">
        <ele>1633.42</ele>
        <time>2014-08-08T14:37:34Z</time>
      </trkpt>
      <trkpt lat="44.83233" lon="5.44061">
        <ele>1633.42</ele>
        <time>2014-08-08T14:37:55Z</time>
      </trkpt>
      <trkpt lat="44.83234" lon="5.44063">
        <ele>1633.42</ele>
        <time>2014-08-08T14:38:18Z</time>
      </trkpt>
      <trkpt lat="44.83234" lon="5.44062">
        <ele>1632.94</ele>
        <time>2014-08-08T14:38:43Z</time>
      </trkpt>
      <trkpt lat="44.83234" lon="5.44064">
        <ele>1632.94</ele>
        <time>2014-08-08T14:39:03Z</time>
      </trkpt>
      <trkpt lat="44.83235" lon="5.44063">
        <ele>1632.94</ele>
        <time>2014-08-08T14:39:22Z</time>
      </trkpt>
      <trkpt lat="44.83235" lon="5.44062">
        <ele>1632.94</ele>
        <time>2014-08-08T14:39:41Z</time>
      </trkpt>
      <trkpt lat="44.83236" lon="5.44062">
        <ele>1633.9</ele>
        <time>2014-08-08T14:39:57Z</time>
      </trkpt>
      <trkpt lat="44.83235" lon="5.44062">
        <ele>1633.9</ele>
        <time>2014-08-08T14:40:24Z</time>
      </trkpt>
      <trkpt lat="44.83231" lon="5.44062">
        <ele>1633.9</ele>
        <time>2014-08-08T14:40:45Z</time>
      </trkpt>
      <trkpt lat="44.83234" lon="5.44063">
        <ele>1633.42</ele>
        <time>2014-08-08T14:41:11Z</time>
      </trkpt>
      <trkpt lat="44.83234" lon="5.44062">
        <ele>1632.94</ele>
        <time>2014-08-08T14:41:31Z</time>
      </trkpt>
      <trkpt lat="44.83235" lon="5.44061">
        <ele>1633.42</ele>
        <time>2014-08-08T14:41:37Z</time>
      </trkpt>
      <trkpt lat="44.83235" lon="5.44062">
        <ele>1633.42</ele>
        <time>2014-08-08T14:42:01Z</time>
      </trkpt>
      <trkpt lat="44.83234" lon="5.44062">
        <ele>1633.42</ele>
        <time>2014-08-08T14:42:27Z</time>
      </trkpt>
      <trkpt lat="44.83233" lon="5.44062">
        <ele>1633.42</ele>
        <time>2014-08-08T14:42:53Z</time>
      </trkpt>
      <trkpt lat="44.83233" lon="5.44062">
        <ele>1633.42</ele>
        <time>2014-08-08T14:43:16Z</time>
      </trkpt>
      <trkpt lat="44.83231" lon="5.44063">
        <ele>1634.38</ele>
        <time>2014-08-08T14:43:47Z</time>
      </trkpt>
      <trkpt lat="44.83233" lon="5.44062">
        <ele>1634.38</ele>
        <time>2014-08-08T14:44:13Z</time>
      </trkpt>
      <trkpt lat="44.83233" lon="5.44062">
        <ele>1634.38</ele>
        <time>2014-08-08T14:44:40Z</time>
      </trkpt>
      <trkpt lat="44.83235" lon="5.44063">
        <ele>1633.9</ele>
        <time>2014-08-08T14:44:57Z</time>
      </trkpt>
      <trkpt lat="44.83236" lon="5.44067">
        <ele>1633.42</ele>
        <time>2014-08-08T14:45:21Z</time>
      </trkpt>
      <trkpt lat="44.83235" lon="5.44065">
        <ele>1634.38</ele>
        <time>2014-08-08T14:45:43Z</time>
      </trkpt>
      <trkpt lat="44.83236" lon="5.44069">
        <ele>1634.86</ele>
        <time>2014-08-08T14:45:56Z</time>
      </trkpt>
      <trkpt lat="44.83236" lon="5.44068">
        <ele>1632.94</ele>
        <time>2014-08-08T14:46:15Z</time>
      </trkpt>
      <trkpt lat="44.83238" lon="5.44068">
        <ele>1633.9</ele>
        <time>2014-08-08T14:46:41Z</time>
      </trkpt>
      <trkpt lat="44.8324" lon="5.44071">
        <ele>1634.38</ele>
        <time>2014-08-08T14:47:02Z</time>
      </trkpt>
      <trkpt lat="44.83242" lon="5.44067">
        <ele>1634.38</ele>
        <time>2014-08-08T14:47:22Z</time>
      </trkpt>
      <trkpt lat="44.8326" lon="5.4406">
        <ele>1632.46</ele>
        <time>2014-08-08T14:47:38Z</time>
      </trkpt>
      <trkpt lat="44.83262" lon="5.4406">
        <ele>1631.49</ele>
        <time>2014-08-08T14:47:40Z</time>
      </trkpt>
      <trkpt lat="44.83273" lon="5.44059">
        <ele>1633.9</ele>
        <time>2014-08-08T14:47:54Z</time>
      </trkpt>
      <trkpt lat="44.83282" lon="5.44055">
        <ele>1635.82</ele>
        <time>2014-08-08T14:48:08Z</time>
      </trkpt>
      <trkpt lat="44.83295" lon="5.44047">
        <ele>1636.3</ele>
        <time>2014-08-08T14:48:24Z</time>
      </trkpt>
      <trkpt lat="44.83308" lon="5.44037">
        <ele>1635.34</ele>
        <time>2014-08-08T14:48:38Z</time>
      </trkpt>
      <trkpt lat="44.83314" lon="5.44037">
        <ele>1634.86</ele>
        <time>2014-08-08T14:48:44Z</time>
      </trkpt>
      <trkpt lat="44.83316" lon="5.44037">
        <ele>1634.86</ele>
        <time>2014-08-08T14:48:45Z</time>
      </trkpt>
      <trkpt lat="44.83331" lon="5.44036">
        <ele>1631.98</ele>
        <time>2014-08-08T14:48:58Z</time>
      </trkpt>
      <trkpt lat="44.83343" lon="5.44037">
        <ele>1632.94</ele>
        <time>2014-08-08T14:49:13Z</time>
      </trkpt>
      <trkpt lat="44.83344" lon="5.44036">
        <ele>1632.46</ele>
        <time>2014-08-08T14:49:14Z</time>
      </trkpt>
      <trkpt lat="44.83345" lon="5.44034">
        <ele>1631.49</ele>
        <time>2014-08-08T14:49:15Z</time>
      </trkpt>
      <trkpt lat="44.83346" lon="5.44033">
        <ele>1632.46</ele>
        <time>2014-08-08T14:49:16Z</time>
      </trkpt>
      <trkpt lat="44.83346" lon="5.44031">
        <ele>1631.98</ele>
        <time>2014-08-08T14:49:17Z</time>
      </trkpt>
      <trkpt lat="44.83359" lon="5.44024">
        <ele>1634.86</ele>
        <time>2014-08-08T14:49:30Z</time>
      </trkpt>
      <trkpt lat="44.83363" lon="5.44019">
        <ele>1633.9</ele>
        <time>2014-08-08T14:49:35Z</time>
      </trkpt>
      <trkpt lat="44.8337" lon="5.44006">
        <ele>1632.46</ele>
        <time>2014-08-08T14:49:49Z</time>
      </trkpt>
      <trkpt lat="44.83371" lon="5.43999">
        <ele>1631.98</ele>
        <time>2014-08-08T14:49:54Z</time>
      </trkpt>
      <trkpt lat="44.83378" lon="5.43973">
        <ele>1628.61</ele>
        <time>2014-08-08T14:50:15Z</time>
      </trkpt>
      <trkpt lat="44.83381" lon="5.43952">
        <ele>1625.73</ele>
        <time>2014-08-08T14:50:29Z</time>
      </trkpt>
      <trkpt lat="44.83381" lon="5.4395">
        <ele>1626.21</ele>
        <time>2014-08-08T14:50:30Z</time>
      </trkpt>
      <trkpt lat="44.83381" lon="5.43939">
        <ele>1625.25</ele>
        <time>2014-08-08T14:50:37Z</time>
      </trkpt>
      <trkpt lat="44.83385" lon="5.4393">
        <ele>1623.32</ele>
        <time>2014-08-08T14:50:44Z</time>
      </trkpt>
      <trkpt lat="44.83385" lon="5.43913">
        <ele>1619.48</ele>
        <time>2014-08-08T14:50:58Z</time>
      </trkpt>
      <trkpt lat="44.8339" lon="5.43894">
        <ele>1618.52</ele>
        <time>2014-08-08T14:51:14Z</time>
      </trkpt>
      <trkpt lat="44.83391" lon="5.43886">
        <ele>1614.67</ele>
        <time>2014-08-08T14:51:22Z</time>
      </trkpt>
      <trkpt lat="44.83392" lon="5.43881">
        <ele>1613.23</ele>
        <time>2014-08-08T14:51:26Z</time>
      </trkpt>
      <trkpt lat="44.83391" lon="5.43851">
        <ele>1612.27</ele>
        <time>2014-08-08T14:51:48Z</time>
      </trkpt>
      <trkpt lat="44.83387" lon="5.4383">
        <ele>1609.86</ele>
        <time>2014-08-08T14:52:04Z</time>
      </trkpt>
      <trkpt lat="44.83384" lon="5.43821">
        <ele>1608.9</ele>
        <time>2014-08-08T14:52:11Z</time>
      </trkpt>
      <trkpt lat="44.83384" lon="5.4382">
        <ele>1608.9</ele>
        <time>2014-08-08T14:52:12Z</time>
      </trkpt>
      <trkpt lat="44.83376" lon="5.43793">
        <ele>1606.5</ele>
        <time>2014-08-08T14:52:33Z</time>
      </trkpt>
      <trkpt lat="44.83379" lon="5.43782">
        <ele>1605.54</ele>
        <time>2014-08-08T14:52:41Z</time>
      </trkpt>
      <trkpt lat="44.83379" lon="5.43764">
        <ele>1604.1</ele>
        <time>2014-08-08T14:52:54Z</time>
      </trkpt>
      <trkpt lat="44.83385" lon="5.4375">
        <ele>1601.21</ele>
        <time>2014-08-08T14:53:05Z</time>
      </trkpt>
      <trkpt lat="44.83391" lon="5.43732">
        <ele>1597.85</ele>
        <time>2014-08-08T14:53:19Z</time>
      </trkpt>
      <trkpt lat="44.83393" lon="5.43728">
        <ele>1596.89</ele>
        <time>2014-08-08T14:53:22Z</time>
      </trkpt>
      <trkpt lat="44.83398" lon="5.43724">
        <ele>1595.93</ele>
        <time>2014-08-08T14:53:26Z</time>
      </trkpt>
      <trkpt lat="44.83402" lon="5.43715">
        <ele>1594.96</ele>
        <time>2014-08-08T14:53:37Z</time>
      </trkpt>
      <trkpt lat="44.83405" lon="5.43707">
        <ele>1592.56</ele>
        <time>2014-08-08T14:53:42Z</time>
      </trkpt>
      <trkpt lat="44.83409" lon="5.43687">
        <ele>1588.72</ele>
        <time>2014-08-08T14:53:55Z</time>
      </trkpt>
      <trkpt lat="44.83414" lon="5.4367">
        <ele>1586.31</ele>
        <time>2014-08-08T14:54:06Z</time>
      </trkpt>
      <trkpt lat="44.83414" lon="5.43659">
        <ele>1585.35</ele>
        <time>2014-08-08T14:54:12Z</time>
      </trkpt>
      <trkpt lat="44.83414" lon="5.43657">
        <ele>1583.91</ele>
        <time>2014-08-08T14:54:13Z</time>
      </trkpt>
      <trkpt lat="44.83415" lon="5.43655">
        <ele>1583.43</ele>
        <time>2014-08-08T14:54:14Z</time>
      </trkpt>
      <trkpt lat="44.83415" lon="5.43653">
        <ele>1582.95</ele>
        <time>2014-08-08T14:54:15Z</time>
      </trkpt>
      <trkpt lat="44.83416" lon="5.43651">
        <ele>1582.47</ele>
        <time>2014-08-08T14:54:16Z</time>
      </trkpt>
      <trkpt lat="44.83417" lon="5.43649">
        <ele>1581.51</ele>
        <time>2014-08-08T14:54:17Z</time>
      </trkpt>
      <trkpt lat="44.83418" lon="5.43647">
        <ele>1581.99</ele>
        <time>2014-08-08T14:54:18Z</time>
      </trkpt>
      <trkpt lat="44.83418" lon="5.43646">
        <ele>1581.51</ele>
        <time>2014-08-08T14:54:19Z</time>
      </trkpt>
      <trkpt lat="44.83419" lon="5.43644">
        <ele>1581.03</ele>
        <time>2014-08-08T14:54:20Z</time>
      </trkpt>
      <trkpt lat="44.83419" lon="5.43642">
        <ele>1581.03</ele>
        <time>2014-08-08T14:54:21Z</time>
      </trkpt>
      <trkpt lat="44.83416" lon="5.43641">
        <ele>1581.99</ele>
        <time>2014-08-08T14:54:24Z</time>
      </trkpt>
      <trkpt lat="44.83414" lon="5.43636">
        <ele>1579.58</ele>
        <time>2014-08-08T14:54:27Z</time>
      </trkpt>
      <trkpt lat="44.83414" lon="5.43634">
        <ele>1579.58</ele>
        <time>2014-08-08T14:54:28Z</time>
      </trkpt>
      <trkpt lat="44.83411" lon="5.43623">
        <ele>1577.18</ele>
        <time>2014-08-08T14:54:37Z</time>
      </trkpt>
      <trkpt lat="44.83419" lon="5.43607">
        <ele>1574.78</ele>
        <time>2014-08-08T14:54:50Z</time>
      </trkpt>
      <trkpt lat="44.83424" lon="5.43593">
        <ele>1572.85</ele>
        <time>2014-08-08T14:55:02Z</time>
      </trkpt>
      <trkpt lat="44.83422" lon="5.43586">
        <ele>1570.93</ele>
        <time>2014-08-08T14:55:12Z</time>
      </trkpt>
      <trkpt lat="44.83421" lon="5.43586">
        <ele>1570.93</ele>
        <time>2014-08-08T14:55:13Z</time>
      </trkpt>
      <trkpt lat="44.8342" lon="5.43586">
        <ele>1570.93</ele>
        <time>2014-08-08T14:55:14Z</time>
      </trkpt>
      <trkpt lat="44.83404" lon="5.43592">
        <ele>1570.93</ele>
        <time>2014-08-08T14:55:29Z</time>
      </trkpt>
      <trkpt lat="44.83389" lon="5.43599">
        <ele>1568.53</ele>
        <time>2014-08-08T14:55:42Z</time>
      </trkpt>
      <trkpt lat="44.83372" lon="5.43579">
        <ele>1568.05</ele>
        <time>2014-08-08T14:55:59Z</time>
      </trkpt>
      <trkpt lat="44.83369" lon="5.43558">
        <ele>1568.05</ele>
        <time>2014-08-08T14:56:13Z</time>
      </trkpt>
      <trkpt lat="44.8337" lon="5.43546">
        <ele>1566.61</ele>
        <time>2014-08-08T14:56:32Z</time>
      </trkpt>
      <trkpt lat="44.83371" lon="5.43545">
        <ele>1566.12</ele>
        <time>2014-08-08T14:56:33Z</time>
      </trkpt>
      <trkpt lat="44.83371" lon="5.43525">
        <ele>1565.64</ele>
        <time>2014-08-08T14:56:48Z</time>
      </trkpt>
      <trkpt lat="44.83372" lon="5.43509">
        <ele>1562.28</ele>
        <time>2014-08-08T14:57:00Z</time>
      </trkpt>
      <trkpt lat="44.83374" lon="5.43504">
        <ele>1561.32</ele>
        <time>2014-08-08T14:57:04Z</time>
      </trkpt>
      <trkpt lat="44.83375" lon="5.43503">
        <ele>1561.32</ele>
        <time>2014-08-08T14:57:05Z</time>
      </trkpt>
      <trkpt lat="44.83376" lon="5.43485">
        <ele>1559.4</ele>
        <time>2014-08-08T14:57:16Z</time>
      </trkpt>
      <trkpt lat="44.83376" lon="5.43484">
        <ele>1559.4</ele>
        <time>2014-08-08T14:57:17Z</time>
      </trkpt>
      <trkpt lat="44.8338" lon="5.43457">
        <ele>1556.03</ele>
        <time>2014-08-08T14:57:32Z</time>
      </trkpt>
      <trkpt lat="44.8338" lon="5.43434">
        <ele>1553.63</ele>
        <time>2014-08-08T14:57:46Z</time>
      </trkpt>
      <trkpt lat="44.83387" lon="5.43415">
        <ele>1550.26</ele>
        <time>2014-08-08T14:58:01Z</time>
      </trkpt>
      <trkpt lat="44.83398" lon="5.43394">
        <ele>1547.86</ele>
        <time>2014-08-08T14:58:18Z</time>
      </trkpt>
      <trkpt lat="44.834" lon="5.43372">
        <ele>1544.5</ele>
        <time>2014-08-08T14:58:31Z</time>
      </trkpt>
      <trkpt lat="44.83402" lon="5.4336">
        <ele>1543.05</ele>
        <time>2014-08-08T14:58:37Z</time>
      </trkpt>
      <trkpt lat="44.83403" lon="5.43359">
        <ele>1542.57</ele>
        <time>2014-08-08T14:58:38Z</time>
      </trkpt>
      <trkpt lat="44.83411" lon="5.43336">
        <ele>1540.17</ele>
        <time>2014-08-08T14:58:54Z</time>
      </trkpt>
      <trkpt lat="44.83413" lon="5.43331">
        <ele>1539.69</ele>
        <time>2014-08-08T14:58:58Z</time>
      </trkpt>
      <trkpt lat="44.8342" lon="5.43305">
        <ele>1536.32</ele>
        <time>2014-08-08T14:59:13Z</time>
      </trkpt>
      <trkpt lat="44.83424" lon="5.4328">
        <ele>1533.44</ele>
        <time>2014-08-08T14:59:29Z</time>
      </trkpt>
      <trkpt lat="44.83431" lon="5.4326">
        <ele>1530.56</ele>
        <time>2014-08-08T14:59:45Z</time>
      </trkpt>
      <trkpt lat="44.8344" lon="5.43247">
        <ele>1528.15</ele>
        <time>2014-08-08T15:00:00Z</time>
      </trkpt>
      <trkpt lat="44.83459" lon="5.43232">
        <ele>1525.75</ele>
        <time>2014-08-08T15:00:21Z</time>
      </trkpt>
      <trkpt lat="44.83483" lon="5.43237">
        <ele>1523.83</ele>
        <time>2014-08-08T15:00:41Z</time>
      </trkpt>
      <trkpt lat="44.83501" lon="5.43245">
        <ele>1523.35</ele>
        <time>2014-08-08T15:00:57Z</time>
      </trkpt>
      <trkpt lat="44.83512" lon="5.43239">
        <ele>1521.42</ele>
        <time>2014-08-08T15:01:17Z</time>
      </trkpt>
      <trkpt lat="44.83525" lon="5.43237">
        <ele>1519.02</ele>
        <time>2014-08-08T15:01:34Z</time>
      </trkpt>
      <trkpt lat="44.83543" lon="5.43233">
        <ele>1517.58</ele>
        <time>2014-08-08T15:01:53Z</time>
      </trkpt>
      <trkpt lat="44.83561" lon="5.43217">
        <ele>1515.18</ele>
        <time>2014-08-08T15:02:15Z</time>
      </trkpt>
      <trkpt lat="44.83577" lon="5.43207">
        <ele>1514.21</ele>
        <time>2014-08-08T15:02:34Z</time>
      </trkpt>
      <trkpt lat="44.83594" lon="5.43197">
        <ele>1513.25</ele>
        <time>2014-08-08T15:02:51Z</time>
      </trkpt>
      <trkpt lat="44.83602" lon="5.43201">
        <ele>1511.81</ele>
        <time>2014-08-08T15:03:10Z</time>
      </trkpt>
      <trkpt lat="44.8362" lon="5.43201">
        <ele>1510.85</ele>
        <time>2014-08-08T15:03:29Z</time>
      </trkpt>
      <trkpt lat="44.83619" lon="5.43202">
        <ele>1510.37</ele>
        <time>2014-08-08T15:03:47Z</time>
      </trkpt>
      <trkpt lat="44.83636" lon="5.43205">
        <ele>1509.89</ele>
        <time>2014-08-08T15:04:09Z</time>
      </trkpt>
      <trkpt lat="44.8363" lon="5.43206">
        <ele>1509.41</ele>
        <time>2014-08-08T15:04:33Z</time>
      </trkpt>
      <trkpt lat="44.83623" lon="5.43207">
        <ele>1510.37</ele>
        <time>2014-08-08T15:04:54Z</time>
      </trkpt>
      <trkpt lat="44.83621" lon="5.43204">
        <ele>1511.33</ele>
        <time>2014-08-08T15:05:16Z</time>
      </trkpt>
      <trkpt lat="44.83634" lon="5.43201">
        <ele>1509.89</ele>
        <time>2014-08-08T15:05:37Z</time>
      </trkpt>
      <trkpt lat="44.83646" lon="5.43202">
        <ele>1508.93</ele>
        <time>2014-08-08T15:05:58Z</time>
      </trkpt>
      <trkpt lat="44.83656" lon="5.43194">
        <ele>1507.48</ele>
        <time>2014-08-08T15:06:18Z</time>
      </trkpt>
      <trkpt lat="44.83669" lon="5.4318">
        <ele>1506.52</ele>
        <time>2014-08-08T15:06:38Z</time>
      </trkpt>
      <trkpt lat="44.83689" lon="5.4316">
        <ele>1505.08</ele>
        <time>2014-08-08T15:06:58Z</time>
      </trkpt>
      <trkpt lat="44.83695" lon="5.4314">
        <ele>1502.2</ele>
        <time>2014-08-08T15:07:13Z</time>
      </trkpt>
      <trkpt lat="44.83705" lon="5.43112">
        <ele>1500.76</ele>
        <time>2014-08-08T15:07:30Z</time>
      </trkpt>
      <trkpt lat="44.83711" lon="5.43102">
        <ele>1499.79</ele>
        <time>2014-08-08T15:07:37Z</time>
      </trkpt>
      <trkpt lat="44.83724" lon="5.43082">
        <ele>1497.87</ele>
        <time>2014-08-08T15:07:55Z</time>
      </trkpt>
      <trkpt lat="44.83732" lon="5.43064">
        <ele>1496.43</ele>
        <time>2014-08-08T15:08:10Z</time>
      </trkpt>
      <trkpt lat="44.83741" lon="5.43052">
        <ele>1494.51</ele>
        <time>2014-08-08T15:08:32Z</time>
      </trkpt>
      <trkpt lat="44.83749" lon="5.43032">
        <ele>1493.06</ele>
        <time>2014-08-08T15:08:46Z</time>
      </trkpt>
      <trkpt lat="44.83749" lon="5.43004">
        <ele>1491.14</ele>
        <time>2014-08-08T15:09:04Z</time>
      </trkpt>
      <trkpt lat="44.83747" lon="5.42998">
        <ele>1489.22</ele>
        <time>2014-08-08T15:09:09Z</time>
      </trkpt>
      <trkpt lat="44.83744" lon="5.42977">
        <ele>1487.3</ele>
        <time>2014-08-08T15:09:28Z</time>
      </trkpt>
      <trkpt lat="44.83742" lon="5.42951">
        <ele>1485.85</ele>
        <time>2014-08-08T15:09:45Z</time>
      </trkpt>
      <trkpt lat="44.83738" lon="5.42928">
        <ele>1484.41</ele>
        <time>2014-08-08T15:10:00Z</time>
      </trkpt>
      <trkpt lat="44.8374" lon="5.4292">
        <ele>1483.45</ele>
        <time>2014-08-08T15:10:06Z</time>
      </trkpt>
      <trkpt lat="44.83745" lon="5.429">
        <ele>1482.49</ele>
        <time>2014-08-08T15:10:19Z</time>
      </trkpt>
      <trkpt lat="44.83747" lon="5.42896">
        <ele>1482.01</ele>
        <time>2014-08-08T15:10:33Z</time>
      </trkpt>
      <trkpt lat="44.83745" lon="5.42894">
        <ele>1482.01</ele>
        <time>2014-08-08T15:10:35Z</time>
      </trkpt>
      <trkpt lat="44.83732" lon="5.42868">
        <ele>1479.13</ele>
        <time>2014-08-08T15:10:53Z</time>
      </trkpt>
      <trkpt lat="44.83737" lon="5.42844">
        <ele>1477.2</ele>
        <time>2014-08-08T15:11:10Z</time>
      </trkpt>
      <trkpt lat="44.83747" lon="5.42831">
        <ele>1475.28</ele>
        <time>2014-08-08T15:11:19Z</time>
      </trkpt>
      <trkpt lat="44.83763" lon="5.42812">
        <ele>1472.88</ele>
        <time>2014-08-08T15:11:37Z</time>
      </trkpt>
      <trkpt lat="44.8377" lon="5.42798">
        <ele>1470.47</ele>
        <time>2014-08-08T15:11:50Z</time>
      </trkpt>
      <trkpt lat="44.83773" lon="5.42784">
        <ele>1468.07</ele>
        <time>2014-08-08T15:12:02Z</time>
      </trkpt>
      <trkpt lat="44.83783" lon="5.42768">
        <ele>1466.15</ele>
        <time>2014-08-08T15:12:18Z</time>
      </trkpt>
      <trkpt lat="44.83785" lon="5.4276">
        <ele>1465.19</ele>
        <time>2014-08-08T15:12:23Z</time>
      </trkpt>
      <trkpt lat="44.83792" lon="5.42745">
        <ele>1461.82</ele>
        <time>2014-08-08T15:12:34Z</time>
      </trkpt>
      <trkpt lat="44.838" lon="5.42722">
        <ele>1459.9</ele>
        <time>2014-08-08T15:12:48Z</time>
      </trkpt>
      <trkpt lat="44.83809" lon="5.42707">
        <ele>1458.94</ele>
        <time>2014-08-08T15:13:07Z</time>
      </trkpt>
      <trkpt lat="44.83815" lon="5.42704">
        <ele>1457.98</ele>
        <time>2014-08-08T15:13:12Z</time>
      </trkpt>
      <trkpt lat="44.83833" lon="5.42701">
        <ele>1455.57</ele>
        <time>2014-08-08T15:13:27Z</time>
      </trkpt>
      <trkpt lat="44.83841" lon="5.42686">
        <ele>1453.65</ele>
        <time>2014-08-08T15:13:38Z</time>
      </trkpt>
      <trkpt lat="44.83849" lon="5.42675">
        <ele>1453.17</ele>
        <time>2014-08-08T15:13:47Z</time>
      </trkpt>
      <trkpt lat="44.83857" lon="5.4266">
        <ele>1452.69</ele>
        <time>2014-08-08T15:14:02Z</time>
      </trkpt>
      <trkpt lat="44.83866" lon="5.42644">
        <ele>1450.77</ele>
        <time>2014-08-08T15:14:15Z</time>
      </trkpt>
      <trkpt lat="44.83875" lon="5.42626">
        <ele>1448.84</ele>
        <time>2014-08-08T15:14:29Z</time>
      </trkpt>
      <trkpt lat="44.83893" lon="5.42616">
        <ele>1448.36</ele>
        <time>2014-08-08T15:14:44Z</time>
      </trkpt>
      <trkpt lat="44.83907" lon="5.42607">
        <ele>1445</ele>
        <time>2014-08-08T15:14:57Z</time>
      </trkpt>
      <trkpt lat="44.83929" lon="5.42601">
        <ele>1443.56</ele>
        <time>2014-08-08T15:15:14Z</time>
      </trkpt>
      <trkpt lat="44.83938" lon="5.42596">
        <ele>1440.67</ele>
        <time>2014-08-08T15:15:25Z</time>
      </trkpt>
      <trkpt lat="44.83952" lon="5.42591">
        <ele>1438.75</ele>
        <time>2014-08-08T15:15:42Z</time>
      </trkpt>
      <trkpt lat="44.83971" lon="5.4258">
        <ele>1435.39</ele>
        <time>2014-08-08T15:16:01Z</time>
      </trkpt>
      <trkpt lat="44.83981" lon="5.42578">
        <ele>1434.42</ele>
        <time>2014-08-08T15:16:10Z</time>
      </trkpt>
      <trkpt lat="44.83998" lon="5.42571">
        <ele>1430.58</ele>
        <time>2014-08-08T15:16:24Z</time>
      </trkpt>
      <trkpt lat="44.84005" lon="5.42569">
        <ele>1429.14</ele>
        <time>2014-08-08T15:16:30Z</time>
      </trkpt>
      <trkpt lat="44.84025" lon="5.42562">
        <ele>1426.73</ele>
        <time>2014-08-08T15:16:46Z</time>
      </trkpt>
      <trkpt lat="44.84046" lon="5.42551">
        <ele>1423.85</ele>
        <time>2014-08-08T15:17:08Z</time>
      </trkpt>
      <trkpt lat="44.84073" lon="5.42545">
        <ele>1421.45</ele>
        <time>2014-08-08T15:17:30Z</time>
      </trkpt>
      <trkpt lat="44.84098" lon="5.42533">
        <ele>1418.56</ele>
        <time>2014-08-08T15:17:49Z</time>
      </trkpt>
      <trkpt lat="44.8412" lon="5.42526">
        <ele>1417.12</ele>
        <time>2014-08-08T15:18:07Z</time>
      </trkpt>
      <trkpt lat="44.84143" lon="5.42519">
        <ele>1413.76</ele>
        <time>2014-08-08T15:18:25Z</time>
      </trkpt>
      <trkpt lat="44.84161" lon="5.42514">
        <ele>1410.39</ele>
        <time>2014-08-08T15:18:38Z</time>
      </trkpt>
      <trkpt lat="44.84177" lon="5.42506">
        <ele>1407.51</ele>
        <time>2014-08-08T15:18:53Z</time>
      </trkpt>
      <trkpt lat="44.84195" lon="5.42497">
        <ele>1405.1</ele>
        <time>2014-08-08T15:19:06Z</time>
      </trkpt>
      <trkpt lat="44.84212" lon="5.42481">
        <ele>1401.74</ele>
        <time>2014-08-08T15:19:24Z</time>
      </trkpt>
      <trkpt lat="44.8423" lon="5.42473">
        <ele>1401.26</ele>
        <time>2014-08-08T15:19:41Z</time>
      </trkpt>
      <trkpt lat="44.84238" lon="5.42463">
        <ele>1400.3</ele>
        <time>2014-08-08T15:19:56Z</time>
      </trkpt>
      <trkpt lat="44.8424" lon="5.42444">
        <ele>1402.22</ele>
        <time>2014-08-08T15:20:11Z</time>
      </trkpt>
      <trkpt lat="44.84242" lon="5.42421">
        <ele>1402.22</ele>
        <time>2014-08-08T15:20:26Z</time>
      </trkpt>
      <trkpt lat="44.84241" lon="5.42404">
        <ele>1401.26</ele>
        <time>2014-08-08T15:20:40Z</time>
      </trkpt>
      <trkpt lat="44.84239" lon="5.42398">
        <ele>1401.74</ele>
        <time>2014-08-08T15:20:56Z</time>
      </trkpt>
    </trkseg>
  </trk>
</gpx>